[[{"header":{"parameterUnit":"m.s-1","parameterCategory":1,"la1":31.0,"la2":29.5877,"lo1":-88.7671,"lo2":-86.6584,"dy":0.0162,"dx":0.0185,"nx":115,"ny":88,"refTime":"2025-11-07T12:00:00:Z","depth":0,"parameterNumber":2,"parameterNumberName":"U-component_of_WINDS"},"data":[0.0,0.0,0.0,0.0,0.0,0.0,0.0,0.0,0.0,0.0,0.0,0.0,0.0,0.0,0.0,0.0,0.0,0.0,0.0,0.0,0.0,0.0,0.0,0.0,0.0,0.0,0.0,0.0,0.0,0.0,0.0,0.0,0.0,0.0,0.0,0.0,0.0,0.0,0.0,0.0,0.0,0.0,0.0,0.0,0.0,0.0,0.0,0.0,0.0,0.0,0.0,0.0,0.0,0.0,0.0,0.0,0.0,0.0,0.0,0.0,0.0,0.0,0.0,0.0,0.0,0.0,0.0,0.0,0.0,0.0,0.0,0.0,0.0,0.0,0.0,0.0,0.0,0.0,0.0,0.0,0.0,0.0,0.0,0.0,0.0,0.0,0.0,0.0,0.0,0.0,0.0,0.0,0.0,0.0,0.0,0.0,0.0,0.0,0.0,0.0,0.0,0.0,0.0,0.0,0.0,0.0,0.0,0.0,0.0,0.0,0.0,0.0,0.0,0.0,0.0,0.0,0.0,0.0,0.0,0.0,0.0,0.0,0.0,0.0,0.0,0.0,0.0,0.0,0.0,0.0,0.0,0.0,0.0,0.0,0.0,0.0,0.0,0.0,0.0,0.0,0.0,0.0,0.0,0.0,0.0,0.0,0.0,0.0,0.0,0.0,0.0,0.0,0.0,0.0,0.0,0.0,0.0,0.0,0.0,0.0,0.0,0.0,0.0,0.0,0.0,0.0,0.0,0.0,0.0,0.0,0.0,0.0,0.0,0.0,0.0,0.0,0.0,0.0,0.0,0.0,0.0,0.0,0.0,0.0,0.0,0.0,0.0,0.0,0.0,0.0,0.0,0.0,0.0,0.0,0.0,0.0,0.0,0.0,0.0,0.0,0.0,0.0,0.0,0.0,0.0,0.0,0.0,0.0,0.0,0.0,0.0,0.0,0.0,0.0,0.0,0.0,0.0,0.0,0.0,0.0,0.0,0.0,0.0,0.0,0.0,0.0,0.0,0.0,0.0,0.0,0.0,0.0,0.0,0.0,0.0,0.0,0.0,0.0,0.0,0.0,0.0,0.0,0.0,0.0,0.0,0.0,0.0,0.0,0.0,0.0,0.0,0.0,0.0,0.0,0.0,0.0,0.0,0.0,0.0,0.0,0.0,0.0,0.0,0.0,0.0,0.0,0.0,0.0,0.0,0.0,0.0,0.0,0.0,0.0,0.0,0.0,0.0,0.0,0.0,0.0,0.0,0.0,0.0,0.0,0.0,0.0,0.0,0.0,0.0,0.0,0.0,0.0,0.0,0.0,0.0,0.0,0.0,0.0,0.0,0.0,0.0,0.0,0.0,0.0,0.0,0.0,0.0,0.0,0.0,0.0,0.0,0.0,0.0,0.0,0.0,0.0,0.0,0.0,0.0,0.0,0.0,0.0,0.0,0.0,0.0,0.0,0.0,0.0,0.0,0.0,0.0,0.0,0.0,0.0,0.0,0.0,0.0,0.0,0.0,0.0,0.0,0.0,0.0,0.0,0.0,0.0,0.0,0.0,0.0,0.0,0.0,0.0,0.0,0.0,0.0,0.0,0.0,0.0,0.0,0.0,0.0,0.0,0.0,0.0,0.0,0.0,0.0,0.0,0.0,0.0,0.0,0.0,0.0,0.0,0.0,0.0,0.0,0.0,0.0,0.0,0.0,0.0,0.0,0.0,0.0,0.0,0.0,0.0,0.0,0.0,0.0,0.0,0.0,0.0,0.0,0.0,0.0,0.0,0.0,0.0,0.0,0.0,0.0,0.0,0.0,0.0,0.0,0.0,0.0,0.0,0.0,0.0,0.0,0.0,0.0,0.0,0.0,0.0,0.0,0.0,0.0,0.0,0.0,0.0,0.0,0.0,0.0,0.0,0.0,0.0,0.0,0.0,0.0,0.0,0.0,0.0,0.0,0.0,0.0,0.0,0.0,0.0,0.0,0.0,0.0,0.0,0.0,0.0,0.0,0.0,0.0,0.0,0.0,0.0,0.0,0.0,0.0,0.0,0.0,0.0,0.0,0.0,0.0,0.0,0.0,0.0,0.0,0.0,0.0,0.0,0.0,0.0,0.0,0.0,0.0,0.0,0.0,0.0,0.0,0.0,0.0,0.0,0.0,0.0,0.0,0.0,0.0,0.0,0.0,0.0,0.0,0.0,0.0,0.0,0.0,0.0,0.0,0.0,0.0,0.0,0.0,0.0,0.0,0.0,0.0,0.0,0.0,0.0,0.0,0.0,0.0,0.0,0.0,0.0,0.0,0.0,0.0,0.0,0.0,0.0,0.0,0.0,0.0,0.0,0.0,0.0,0.0,0.0,0.0,0.0,0.0,0.0,0.0,0.0,0.0,0.0,0.0,0.0,0.0,0.0,0.0,0.0,0.0,0.0,0.0,0.0,0.0,0.0,0.0,0.0,0.0,0.0,0.0,0.0,0.0,0.0,0.0,0.0,0.0,0.0,0.0,0.0,0.0,0.0,0.0,0.0,0.0,0.0,0.0,0.0,0.0,0.0,0.0,0.0,0.0,0.0,0.0,0.0,0.0,0.0,0.0,0.0,0.0,0.0,0.0,0.0,0.0,0.0,0.0,0.0,0.0,0.0,0.0,0.0,0.0,0.0,0.0,0.0,0.0,0.0,0.0,0.0,0.0,0.0,0.0,0.0,0.0,0.0,0.0,0.0,0.0,0.0,0.0,0.0,0.0,0.0,0.0,0.0,0.0,0.0,0.0,0.0,0.0,0.0,0.0,0.0,0.0,0.0,0.0,0.0,0.0,0.0,0.0,0.0,0.0,0.0,0.0,0.0,0.0,0.0,0.0,0.0,0.0,0.0,0.0,0.0,0.0,0.0,0.0,0.0,0.0,0.0,0.0,0.0,0.0,0.0,0.0,0.0,0.0,0.0,0.0,0.0,0.0,0.0,0.0,0.0,0.0,0.0,0.0,0.0,0.0,0.0,0.0,0.0,0.0,0.0,0.0,0.0,0.0,0.0,0.0,0.0,0.0,0.0,0.0,0.0,0.0,0.0,0.0,0.0,0.0,0.0,0.0,0.0,0.0,0.0,0.0,0.0,0.0,0.0,0.0,0.0,0.0,0.0,0.0,0.0,0.0,0.0,0.0,0.0,0.0,0.0,0.0,0.0,0.0,0.0,0.0,0.0,0.0,0.0,0.0,0.0,0.0,0.0,0.0,0.0,0.0,0.0,0.0,0.0,0.0,0.0,0.0,0.0,0.0,0.0,0.0,0.0,0.0,0.0,0.0,0.0,0.0,0.0,0.0,0.0,0.0,0.0,0.0,0.0,0.0,0.0,0.0,0.0,0.0,0.0,0.0,0.0,0.0,0.0,0.0,0.0,0.0,0.0,0.0,0.0,0.0,0.0,0.0,0.0,0.0,0.0,0.0,0.0,0.0,0.0,0.0,0.0,0.0,0.0,0.0,0.0,0.0,0.0,0.0,0.0,0.0,0.0,0.0,0.0,0.0,0.0,0.0,0.0,0.0,0.0,0.0,0.0,0.0,0.0,0.0,0.0,0.0,0.0,0.0,0.0,0.0,0.0,0.0,0.0,0.0,0.0,0.0,0.0,0.0,0.0,0.0,0.0,0.0,0.0,0.0,0.0,0.0,0.0,0.0,0.0,0.0,0.0,0.0,0.0,0.0,0.0,0.0,0.0,0.0,0.0,0.0,0.0,0.0,0.0,0.0,0.0,0.0,0.0,0.0,0.0,0.0,0.0,0.0,0.0,0.0,0.0,0.0,0.0,0.0,0.0,0.0,0.0,0.0,0.0,0.0,0.0,0.0,0.0,0.0,0.0,0.0,0.0,0.0,0.0,0.0,0.0,0.0,0.0,0.0,0.0,0.0,0.0,0.0,0.0,0.0,0.0,0.0,0.0,0.0,0.0,0.0,0.0,0.0,0.0,0.0,0.0,0.0,0.0,0.0,0.0,0.0,0.0,0.0,0.0,0.0,0.0,0.0,0.0,0.0,0.0,0.0,0.0,0.0,0.0,0.0,0.0,0.0,0.0,0.0,0.0,0.0,0.0,0.0,0.0,0.0,0.0,0.0,0.0,0.0,0.0,0.0,0.0,0.0,0.0,0.0,0.0,0.0,0.0,0.0,0.0,0.0,0.0,0.0,0.0,0.0,0.0,0.0,0.0,0.0,0.0,0.0,0.0,0.0,0.0,0.0,0.0,0.0,0.0,0.0,0.0,0.0,0.0,0.0,0.0,0.0,0.0,0.0,0.0,0.0,0.0,5.9061,0.0,0.0,0.0,0.0,0.0,0.0,0.0,0.0,0.0,0.0,0.0,0.0,0.0,0.0,0.0,0.0,0.0,0.0,0.0,0.0,0.0,0.0,0.0,0.0,0.0,0.0,0.0,0.0,0.0,0.0,0.0,0.0,0.0,0.0,0.0,0.0,0.0,0.0,0.0,0.0,0.0,0.0,0.0,0.0,0.0,0.0,0.0,0.0,0.0,0.0,0.0,0.0,0.0,0.0,0.0,0.0,0.0,0.0,0.0,0.0,0.0,0.0,0.0,0.0,0.0,0.0,0.0,0.0,0.0,0.0,0.0,0.0,0.0,0.0,0.0,0.0,0.0,0.0,0.0,0.0,0.0,0.0,0.0,0.0,0.0,0.0,0.0,0.0,0.0,0.0,0.0,0.0,0.0,0.0,0.0,0.0,0.0,0.0,0.0,0.0,0.0,0.0,0.0,0.0,0.0,0.0,0.0,0.0,0.0,0.0,6.2181,6.2218,6.1043,6.0236,5.9832,0.0,0.0,0.0,0.0,0.0,0.0,0.0,0.0,0.0,0.0,0.0,0.0,0.0,0.0,0.0,0.0,0.0,0.0,0.0,0.0,0.0,0.0,0.0,0.0,0.0,0.0,0.0,0.0,0.0,0.0,0.0,0.0,0.0,0.0,0.0,0.0,0.0,0.0,0.0,0.0,0.0,0.0,0.0,0.0,0.0,0.0,0.0,0.0,0.0,0.0,0.0,0.0,0.0,0.0,0.0,0.0,0.0,0.0,0.0,0.0,0.0,0.0,0.0,0.0,0.0,0.0,0.0,0.0,0.0,0.0,0.0,0.0,0.0,0.0,0.0,0.0,0.0,0.0,0.0,0.0,0.0,0.0,0.0,0.0,0.0,0.0,0.0,0.0,0.0,0.0,0.0,0.0,0.0,0.0,0.0,0.0,0.0,0.0,0.0,0.0,0.0,0.0,0.0,0.0,0.0,0.0,0.0,0.0,0.0,0.0,0.0,0.0,6.2291,6.1337,6.0933,0.0,0.0,0.0,0.0,0.0,0.0,0.0,0.0,0.0,0.0,0.0,0.0,0.0,0.0,0.0,0.0,0.0,0.0,0.0,0.0,0.0,0.0,0.0,0.0,0.0,0.0,0.0,0.0,0.0,0.0,0.0,0.0,0.0,0.0,0.0,0.0,0.0,0.0,0.0,0.0,0.0,0.0,0.0,0.0,0.0,0.0,0.0,0.0,0.0,0.0,0.0,0.0,0.0,0.0,0.0,0.0,0.0,0.0,0.0,0.0,0.0,0.0,0.0,0.0,0.0,0.0,0.0,0.0,0.0,0.0,0.0,0.0,0.0,0.0,0.0,0.0,0.0,0.0,0.0,0.0,0.0,0.0,0.0,0.0,0.0,0.0,0.0,0.0,0.0,0.0,0.0,0.0,0.0,0.0,0.0,0.0,0.0,0.0,0.0,0.0,0.0,0.0,0.0,0.0,0.0,0.0,0.0,0.0,0.0,0.0,6.3062,6.6035,6.5301,0.0,6.2695,0.0,0.0,0.0,0.0,0.0,0.0,0.0,0.0,0.0,0.0,0.0,0.0,0.0,0.0,0.0,0.0,0.0,0.0,0.0,0.0,0.0,0.0,0.0,0.0,0.0,0.0,0.0,0.0,0.0,0.0,0.0,0.0,0.0,0.0,0.0,0.0,0.0,0.0,0.0,0.0,0.0,0.0,0.0,0.0,0.0,0.0,0.0,0.0,0.0,0.0,0.0,0.0,0.0,0.0,0.0,0.0,0.0,0.0,0.0,0.0,0.0,0.0,0.0,0.0,0.0,0.0,0.0,0.0,0.0,0.0,0.0,0.0,0.0,0.0,0.0,0.0,0.0,0.0,0.0,0.0,0.0,0.0,0.0,0.0,0.0,0.0,0.0,0.0,0.0,0.0,0.0,0.0,0.0,0.0,0.0,0.0,0.0,0.0,0.0,0.0,0.0,0.0,0.0,0.0,0.0,0.0,0.0,0.0,0.0,0.0,6.442,6.5778,6.5007,6.3796,0.0,0.0,0.0,0.0,0.0,0.0,0.0,0.0,0.0,0.0,0.0,0.0,0.0,0.0,0.0,0.0,0.0,0.0,0.0,0.0,0.0,0.0,0.0,0.0,0.0,0.0,0.0,0.0,0.0,0.0,0.0,0.0,0.0,0.0,0.0,0.0,0.0,0.0,0.0,0.0,0.0,0.0,0.0,0.0,0.0,0.0,0.0,0.0,0.0,0.0,0.0,0.0,0.0,0.0,0.0,0.0,0.0,0.0,0.0,0.0,0.0,0.0,0.0,0.0,0.0,0.0,0.0,0.0,0.0,0.0,0.0,0.0,0.0,0.0,0.0,0.0,0.0,0.0,0.0,0.0,0.0,0.0,0.0,0.0,0.0,0.0,0.0,0.0,0.0,0.0,0.0,0.0,0.0,0.0,0.0,0.0,0.0,0.0,0.0,0.0,0.0,0.0,0.0,0.0,0.0,0.0,0.0,0.0,0.0,0.0,6.4457,0.0,6.6182,6.5521,6.398,6.1667,0.0,0.0,0.0,0.0,0.0,0.0,0.0,0.0,0.0,0.0,0.0,0.0,0.0,0.0,0.0,0.0,0.0,0.0,0.0,0.0,0.0,0.0,0.0,0.0,0.0,0.0,0.0,0.0,0.0,0.0,0.0,0.0,0.0,0.0,0.0,0.0,0.0,0.0,0.0,0.0,0.0,0.0,0.0,0.0,0.0,0.0,0.0,0.0,0.0,0.0,0.0,0.0,0.0,0.0,0.0,0.0,0.0,0.0,0.0,0.0,0.0,0.0,0.0,0.0,0.0,0.0,0.0,0.0,0.0,0.0,0.0,0.0,0.0,0.0,0.0,0.0,0.0,0.0,0.0,0.0,0.0,0.0,0.0,0.0,0.0,0.0,0.0,0.0,0.0,0.0,0.0,0.0,0.0,0.0,0.0,0.0,0.0,0.0,0.0,0.0,0.0,0.0,0.0,0.0,0.0,0.0,0.0,0.0,0.0,6.6366,6.5632,6.8641,6.7944,6.5668,0.0,0.0,0.0,0.0,0.0,0.0,0.0,0.0,0.0,0.0,0.0,0.0,0.0,0.0,0.0,0.0,0.0,0.0,0.0,0.0,0.0,0.0,0.0,0.0,0.0,0.0,0.0,0.0,0.0,0.0,0.0,0.0,0.0,0.0,0.0,0.0,0.0,0.0,0.0,0.0,0.0,0.0,0.0,0.0,0.0,0.0,0.0,0.0,0.0,0.0,0.0,0.0,0.0,0.0,0.0,0.0,0.0,0.0,0.0,0.0,0.0,0.0,0.0,0.0,0.0,0.0,0.0,0.0,0.0,0.0,0.0,0.0,0.0,0.0,0.0,0.0,0.0,0.0,0.0,0.0,0.0,0.0,0.0,0.0,0.0,0.0,0.0,0.0,0.0,0.0,0.0,0.0,0.0,0.0,0.0,0.0,0.0,0.0,0.0,0.0,0.0,0.0,0.0,0.0,0.0,0.0,0.0,0.0,0.0,6.2658,6.3062,6.6072,7.1505,6.6696,6.3833,0.0,0.0,0.0,0.0,0.0,0.0,0.0,0.0,0.0,0.0,0.0,0.0,0.0,0.0,0.0,0.0,0.0,0.0,0.0,0.0,0.0,0.0,0.0,0.0,0.0,0.0,0.0,0.0,0.0,0.0,0.0,0.0,0.0,0.0,0.0,0.0,0.0,0.0,0.0,0.0,0.0,0.0,0.0,0.0,0.0,0.0,0.0,0.0,0.0,0.0,0.0,0.0,0.0,0.0,0.0,0.0,0.0,0.0,0.0,0.0,0.0,0.0,0.0,0.0,0.0,0.0,0.0,0.0,0.0,0.0,0.0,0.0,0.0,0.0,0.0,0.0,0.0,0.0,0.0,0.0,0.0,0.0,0.0,0.0,0.0,0.0,0.0,0.0,0.0,0.0,0.0,0.0,0.0,0.0,0.0,0.0,0.0,0.0,0.0,0.0,0.0,0.0,0.0,0.0,0.0,0.0,0.0,0.0,0.0,6.1153,0.0,6.8128,0.0,6.6219,6.2879,0.0,0.0,0.0,0.0,0.0,0.0,0.0,0.0,0.0,0.0,0.0,0.0,0.0,0.0,0.0,0.0,0.0,0.0,0.0,0.0,0.0,0.0,0.0,0.0,0.0,0.0,0.0,0.0,0.0,0.0,0.0,0.0,0.0,0.0,0.0,0.0,0.0,0.0,0.0,0.0,0.0,0.0,0.0,0.0,0.0,0.0,0.0,0.0,0.0,0.0,0.0,0.0,0.0,0.0,0.0,0.0,0.0,0.0,0.0,0.0,0.0,0.0,0.0,0.0,0.0,0.0,0.0,0.0,0.0,0.0,0.0,0.0,0.0,0.0,0.0,0.0,0.0,0.0,0.0,0.0,0.0,0.0,0.0,0.0,0.0,0.0,0.0,0.0,0.0,0.0,0.0,0.0,0.0,0.0,0.0,0.0,0.0,0.0,0.0,0.0,0.0,0.0,0.0,0.0,0.0,0.0,0.0,0.0,6.1227,6.732,7.1284,7.1578,6.8017,6.6843,6.3062,0.0,0.0,0.0,0.0,0.0,0.0,0.0,0.0,0.0,0.0,0.0,0.0,0.0,0.0,0.0,0.0,0.0,0.0,0.0,0.0,0.0,0.0,0.0,0.0,0.0,0.0,0.0,0.0,0.0,0.0,0.0,0.0,0.0,0.0,0.0,0.0,0.0,0.0,0.0,0.0,0.0,0.0,0.0,0.0,0.0,0.0,0.0,0.0,0.0,0.0,0.0,0.0,0.0,0.0,0.0,0.0,0.0,0.0,0.0,0.0,0.0,0.0,0.0,0.0,0.0,0.0,0.0,0.0,0.0,0.0,0.0,0.0,0.0,0.0,0.0,0.0,0.0,0.0,0.0,0.0,0.0,0.0,0.0,0.0,0.0,0.0,0.0,0.0,0.0,0.0,0.0,0.0,0.0,0.0,0.0,0.0,0.0,0.0,0.0,0.0,0.0,0.0,0.0,0.0,0.0,0.0,0.0,0.0,0.0,6.442,6.8825,7.1945,7.3193,6.6733,6.3906,0.0,0.0,0.0,0.0,0.0,0.0,0.0,0.0,0.0,0.0,0.0,0.0,0.0,0.0,0.0,0.0,0.0,0.0,0.0,0.0,0.0,0.0,0.0,0.0,0.0,0.0,0.0,0.0,0.0,0.0,0.0,0.0,0.0,0.0,0.0,0.0,0.0,0.0,0.0,0.0,0.0,0.0,0.0,0.0,0.0,0.0,0.0,0.0,0.0,0.0,0.0,0.0,0.0,0.0,0.0,0.0,0.0,0.0,0.0,0.0,0.0,0.0,0.0,0.0,0.0,0.0,0.0,0.0,0.0,0.0,0.0,0.0,0.0,0.0,0.0,0.0,0.0,0.0,0.0,0.0,0.0,0.0,0.0,0.0,0.0,0.0,0.0,0.0,0.0,0.0,0.0,0.0,0.0,0.0,0.0,0.0,0.0,0.0,0.0,0.0,0.0,0.0,0.0,0.0,0.0,0.0,0.0,0.0,0.0,6.9816,7.345,7.5983,7.7011,6.9926,6.6329,6.6733,0.0,0.0,0.0,0.0,0.0,0.0,0.0,0.0,0.0,0.0,0.0,0.0,0.0,0.0,0.0,0.0,0.0,0.0,0.0,0.0,0.0,0.0,0.0,0.0,0.0,0.0,0.0,0.0,0.0,0.0,0.0,0.0,0.0,0.0,0.0,0.0,0.0,0.0,0.0,0.0,0.0,0.0,0.0,0.0,0.0,0.0,0.0,0.0,0.0,0.0,0.0,0.0,0.0,0.0,0.0,0.0,0.0,0.0,0.0,0.0,0.0,0.0,0.0,0.0,0.0,0.0,0.0,0.0,0.0,0.0,0.0,0.0,0.0,0.0,0.0,0.0,0.0,0.0,0.0,0.0,0.0,0.0,0.0,0.0,0.0,0.0,0.0,0.0,0.0,0.0,0.0,0.0,0.0,0.0,0.0,0.0,0.0,0.0,0.0,0.0,0.0,0.0,0.0,0.0,0.0,0.0,0.0,0.0,8.1305,8.4095,8.3654,7.9727,7.5873,7.0293,0.0,0.0,0.0,0.0,0.0,0.0,0.0,0.0,0.0,0.0,0.0,0.0,0.0,0.0,0.0,0.0,0.0,0.0,0.0,0.0,0.0,0.0,0.0,0.0,0.0,0.0,0.0,0.0,0.0,0.0,0.0,0.0,0.0,0.0,0.0,0.0,0.0,0.0,0.0,0.0,0.0,0.0,0.0,0.0,0.0,0.0,0.0,0.0,0.0,0.0,0.0,0.0,0.0,0.0,0.0,0.0,0.0,0.0,0.0,0.0,0.0,0.0,0.0,0.0,0.0,0.0,0.0,0.0,0.0,0.0,0.0,0.0,0.0,0.0,0.0,0.0,0.0,0.0,0.0,0.0,0.0,0.0,0.0,0.0,0.0,0.0,0.0,0.0,0.0,0.0,0.0,0.0,0.0,0.0,0.0,0.0,0.0,0.0,0.0,0.0,0.0,0.0,0.0,0.0,0.0,0.0,0.0,0.0,0.0,8.549,9.3051,9.4887,9.0188,8.1232,7.5102,0.0,0.0,0.0,0.0,0.0,0.0,0.0,0.0,0.0,0.0,0.0,0.0,0.0,0.0,0.0,0.0,0.0,0.0,0.0,0.0,0.0,0.0,0.0,0.0,0.0,0.0,0.0,0.0,0.0,0.0,0.0,0.0,0.0,0.0,0.0,0.0,0.0,0.0,0.0,0.0,0.0,0.0,0.0,0.0,0.0,0.0,0.0,0.0,0.0,0.0,0.0,0.0,0.0,0.0,0.0,0.0,0.0,0.0,0.0,0.0,0.0,0.0,0.0,0.0,0.0,0.0,0.0,0.0,0.0,0.0,0.0,0.0,0.0,0.0,0.0,0.0,0.0,0.0,0.0,0.0,0.0,0.0,0.0,0.0,0.0,0.0,0.0,0.0,0.0,0.0,0.0,0.0,0.0,0.0,0.0,0.0,0.0,0.0,0.0,0.0,0.0,0.0,0.0,0.0,0.0,0.0,0.0,0.0,8.6701,9.2537,10.109,10.4272,10.1497,9.0471,8.1636,0.0,0.0,0.0,0.0,0.0,0.0,0.0,0.0,0.0,0.0,0.0,0.0,0.0,0.0,0.0,0.0,0.0,0.0,0.0,0.0,0.0,0.0,0.0,0.0,0.0,0.0,0.0,0.0,0.0,0.0,0.0,0.0,0.0,0.0,0.0,0.0,0.0,0.0,0.0,0.0,0.0,0.0,0.0,0.0,0.0,0.0,0.0,0.0,0.0,0.0,0.0,0.0,0.0,0.0,0.0,0.0,0.0,0.0,0.0,0.0,0.0,0.0,0.0,0.0,0.0,0.0,0.0,0.0,0.0,0.0,0.0,0.0,0.0,0.0,0.0,0.0,0.0,0.0,0.0,0.0,0.0,0.0,0.0,0.0,0.0,0.0,0.0,0.0,0.0,0.0,0.0,0.0,0.0,0.0,0.0,0.0,0.0,0.0,0.0,0.0,0.0,0.0,0.0,0.0,0.0,0.0,0.0,0.0,9.3456,10.0404,10.7709,11.141,11.1091,10.0313,8.8607,0.0,0.0,0.0,0.0,0.0,0.0,0.0,0.0,0.0,0.0,0.0,0.0,0.0,0.0,0.0,0.0,0.0,0.0,0.0,0.0,0.0,0.0,0.0,0.0,0.0,0.0,0.0,0.0,0.0,0.0,0.0,0.0,0.0,0.0,0.0,0.0,0.0,0.0,0.0,0.0,0.0,0.0,0.0,0.0,0.0,0.0,0.0,0.0,0.0,0.0,0.0,0.0,0.0,0.0,0.0,0.0,0.0,0.0,0.0,0.0,0.0,0.0,0.0,0.0,0.0,0.0,0.0,0.0,0.0,0.0,0.0,0.0,0.0,0.0,0.0,0.0,0.0,0.0,0.0,0.0,0.0,0.0,0.0,0.0,0.0,0.0,0.0,0.0,0.0,0.0,0.0,0.0,0.0,0.0,0.0,0.0,0.0,0.0,0.0,0.0,0.0,0.0,0.0,0.0,0.0,0.0,0.0,0.0,9.6843,10.2273,10.9418,11.2897,11.2248,10.0609,9.0942,0.0,0.0,0.0,0.0,0.0,0.0,0.0,0.0,0.0,0.0,0.0,0.0,0.0,0.0,0.0,0.0,0.0,0.0,0.0,0.0,0.0,0.0,0.0,0.0,0.0,0.0,0.0,0.0,0.0,0.0,0.0,0.0,0.0,0.0,0.0,0.0,0.0,0.0,0.0,0.0,0.0,0.0,0.0,0.0,0.0,0.0,0.0,0.0,5.8584,0.0,0.0,0.0,0.0,0.0,0.0,0.0,0.0,0.0,0.0,0.0,0.0,0.0,0.0,0.0,0.0,0.0,0.0,0.0,0.0,0.0,0.0,0.0,0.0,0.0,0.0,0.0,0.0,0.0,0.0,0.0,0.0,0.0,0.0,0.0,0.0,0.0,0.0,0.0,0.0,0.0,0.0,0.0,0.0,0.0,0.0,0.0,0.0,0.0,0.0,0.0,0.0,0.0,0.0,0.0,0.0,0.0,0.0,0.0,10.0303,10.6682,11.2012,11.4767,11.4534,10.521,9.554,0.0,0.0,0.0,0.0,0.0,0.0,0.0,0.0,0.0,0.0,0.0,0.0,0.0,0.0,0.0,0.0,0.0,0.0,0.0,0.0,0.0,0.0,0.0,0.0,0.0,0.0,0.0,0.0,0.0,0.0,0.0,0.0,0.0,0.0,0.0,0.0,0.0,0.0,0.0,0.0,0.0,0.0,0.0,0.0,0.0,0.0,0.0,0.0,0.0,0.0,0.0,0.0,0.0,0.0,0.0,0.0,0.0,0.0,0.0,0.0,0.0,0.0,0.0,0.0,0.0,0.0,0.0,0.0,0.0,0.0,0.0,0.0,0.0,0.0,0.0,0.0,0.0,0.0,0.0,0.0,0.0,0.0,0.0,0.0,0.0,0.0,0.0,0.0,0.0,0.0,0.0,0.0,0.0,0.0,0.0,0.0,0.0,0.0,0.0,0.0,0.0,0.0,0.0,0.0,0.0,0.0,0.0,9.4706,10.3586,11.2,11.5134,11.7003,11.7602,11.077,10.0513,8.6966,0.0,0.0,0.0,0.0,0.0,0.0,0.0,0.0,0.0,0.0,0.0,0.0,0.0,0.0,0.0,0.0,0.0,0.0,0.0,0.0,0.0,0.0,0.0,0.0,0.0,0.0,0.0,0.0,0.0,0.0,0.0,0.0,0.0,0.0,0.0,0.0,0.0,0.0,5.4987,5.8217,0.0,0.0,0.0,0.0,0.0,0.0,0.0,0.0,5.9869,0.0,0.0,0.0,0.0,0.0,0.0,0.0,0.0,0.0,0.0,0.0,0.0,0.0,0.0,0.0,0.0,0.0,0.0,0.0,0.0,0.0,0.0,0.0,0.0,0.0,0.0,0.0,0.0,0.0,0.0,0.0,0.0,0.0,0.0,0.0,0.0,0.0,0.0,0.0,0.0,0.0,0.0,0.0,0.0,0.0,0.0,0.0,0.0,0.0,0.0,0.0,0.0,0.0,0.0,0.0,0.0,9.6245,9.8979,10.5899,11.7261,11.8803,11.9187,11.8599,11.2775,10.3034,8.9668,0.0,0.0,0.0,0.0,0.0,0.0,0.0,0.0,0.0,0.0,0.0,0.0,0.0,0.0,0.0,0.0,0.0,0.0,0.0,0.0,0.0,0.0,0.0,0.0,0.0,0.0,0.0,0.0,0.0,0.0,0.0,0.0,0.0,0.0,0.0,0.0,0.0,0.0,0.0,6.4897,6.5485,0.0,0.0,0.0,0.0,0.0,0.0,0.0,0.0,6.0566,0.0,0.0,0.0,0.0,0.0,0.0,0.0,0.0,0.0,0.0,0.0,0.0,0.0,0.0,0.0,0.0,0.0,0.0,0.0,0.0,0.0,0.0,0.0,0.0,0.0,0.0,0.0,0.0,0.0,0.0,0.0,0.0,0.0,0.0,0.0,0.0,0.0,0.0,0.0,0.0,0.0,0.0,0.0,0.0,0.0,0.0,0.0,0.0,0.0,0.0,0.0,0.0,0.0,0.0,0.0,9.5988,10.1972,10.9104,11.7606,11.8873,11.8571,11.684,10.9505,10.0608,0.0,0.0,0.0,0.0,0.0,0.0,0.0,0.0,0.0,0.0,0.0,0.0,0.0,0.0,0.0,0.0,0.0,0.0,0.0,0.0,0.0,0.0,0.0,0.0,0.0,0.0,0.0,0.0,0.0,0.0,0.0,0.0,0.0,0.0,0.0,0.0,0.0,0.0,0.0,0.0,6.6512,6.71,6.8752,0.0,0.0,0.0,0.0,0.0,0.0,6.3172,6.1924,0.0,0.0,0.0,0.0,0.0,0.0,0.0,0.0,0.0,0.0,0.0,0.0,0.0,0.0,0.0,0.0,0.0,0.0,0.0,0.0,0.0,0.0,0.0,0.0,0.0,0.0,0.0,0.0,0.0,0.0,0.0,0.0,0.0,0.0,0.0,0.0,0.0,0.0,0.0,0.0,0.0,0.0,0.0,0.0,0.0,0.0,0.0,0.0,0.0,0.0,0.0,0.0,0.0,0.0,0.0,9.4631,10.397,11.1893,11.8256,11.8982,11.8229,11.5993,10.7104,9.8372,0.0,0.0,0.0,0.0,0.0,0.0,0.0,0.0,0.0,0.0,0.0,0.0,0.0,0.0,0.0,0.0,0.0,0.0,0.0,0.0,0.0,0.0,0.0,0.0,0.0,0.0,0.0,0.0,0.0,0.0,0.0,0.0,0.0,0.0,0.0,0.0,0.0,0.0,0.0,0.0,0.0,6.9009,7.1211,6.7834,0.0,0.0,0.0,0.0,6.5558,6.6586,0.0,0.0,0.0,0.0,0.0,0.0,0.0,0.0,0.0,0.0,0.0,0.0,0.0,0.0,0.0,0.0,0.0,0.0,0.0,0.0,0.0,0.0,0.0,0.0,0.0,0.0,0.0,0.0,0.0,0.0,0.0,0.0,0.0,0.0,0.0,0.0,0.0,0.0,0.0,0.0,0.0,0.0,0.0,0.0,0.0,0.0,0.0,0.0,0.0,0.0,0.0,0.0,0.0,0.0,0.0,0.0,9.6276,10.414,11.3026,12.2585,12.1921,12.0772,11.9555,11.0699,10.0279,0.0,0.0,0.0,0.0,0.0,0.0,0.0,0.0,0.0,0.0,0.0,0.0,0.0,0.0,0.0,0.0,0.0,0.0,0.0,0.0,0.0,0.0,0.0,0.0,0.0,0.0,0.0,0.0,0.0,0.0,0.0,0.0,0.0,0.0,0.0,0.0,0.0,0.0,0.0,0.0,0.0,7.356,7.2496,7.0073,6.8495,0.0,0.0,7.077,7.4955,7.6937,0.0,0.0,0.0,0.0,0.0,0.0,0.0,0.0,0.0,0.0,0.0,0.0,0.0,0.0,0.0,0.0,0.0,0.0,0.0,0.0,0.0,0.0,0.0,0.0,0.0,0.0,0.0,0.0,0.0,0.0,0.0,0.0,0.0,0.0,0.0,0.0,0.0,0.0,0.0,0.0,0.0,0.0,0.0,0.0,0.0,0.0,0.0,0.0,0.0,0.0,0.0,0.0,0.0,0.0,0.0,8.5887,9.6853,10.7833,11.6102,12.1504,12.1523,11.9926,11.671,10.5772,9.5828,0.0,0.0,0.0,0.0,0.0,0.0,0.0,0.0,0.0,0.0,0.0,0.0,0.0,0.0,0.0,0.0,0.0,0.0,0.0,0.0,0.0,0.0,0.0,0.0,0.0,0.0,0.0,0.0,0.0,0.0,0.0,0.0,0.0,0.0,0.0,0.0,0.0,0.0,0.0,0.0,0.0,0.0,7.5139,7.4368,0.0,0.0,0.0,7.6166,7.7781,0.0,0.0,0.0,0.0,0.0,0.0,0.0,0.0,0.0,0.0,0.0,0.0,0.0,0.0,0.0,0.0,0.0,0.0,0.0,0.0,0.0,0.0,0.0,0.0,0.0,0.0,0.0,0.0,0.0,0.0,0.0,0.0,0.0,0.0,0.0,0.0,0.0,0.0,0.0,0.0,0.0,0.0,0.0,0.0,0.0,0.0,0.0,0.0,0.0,0.0,0.0,0.0,0.0,0.0,0.0,0.0,0.0,9.7304,11.0693,11.8644,12.0621,12.0567,11.8485,11.4259,10.2965,0.0,0.0,0.0,0.0,0.0,0.0,0.0,0.0,0.0,0.0,0.0,0.0,0.0,0.0,0.0,0.0,0.0,0.0,0.0,0.0,0.0,0.0,0.0,0.0,0.0,0.0,0.0,4.28,0.0,0.0,0.0,0.0,0.0,0.0,0.0,0.0,0.0,0.0,0.0,0.0,0.0,0.0,7.5432,7.7635,7.8846,8.0021,0.0,0.0,8.1525,8.1342,8.3838,8.2039,0.0,0.0,0.0,0.0,0.0,0.0,0.0,0.0,0.0,0.0,0.0,0.0,0.0,0.0,0.0,0.0,0.0,0.0,0.0,0.0,0.0,0.0,0.0,0.0,0.0,0.0,0.0,0.0,0.0,0.0,0.0,0.0,0.0,0.0,0.0,0.0,0.0,0.0,0.0,0.0,0.0,0.0,0.0,0.0,0.0,0.0,0.0,0.0,0.0,0.0,0.0,0.0,0.0,0.0,0.0,9.8318,11.1063,11.9305,12.2456,11.9661,11.717,11.5131,10.6672,9.6673,0.0,0.0,0.0,0.0,0.0,0.0,0.0,0.0,0.0,0.0,0.0,0.0,0.0,0.0,0.0,0.0,0.0,0.0,0.0,0.0,0.0,0.0,0.0,0.0,0.0,0.0,0.0,0.0,0.0,0.0,0.0,0.0,0.0,0.0,0.0,0.0,0.0,0.0,0.0,0.0,0.0,7.7745,7.9396,8.2847,8.6297,0.0,0.0,8.7031,8.8463,9.2574,9.0629,7.5689,0.0,0.0,0.0,0.0,0.0,0.0,0.0,0.0,0.0,0.0,0.0,0.0,0.0,0.0,0.0,0.0,0.0,0.0,0.0,0.0,0.0,0.0,0.0,0.0,0.0,0.0,0.0,0.0,0.0,0.0,0.0,0.0,0.0,0.0,0.0,0.0,0.0,0.0,0.0,0.0,0.0,0.0,0.0,0.0,0.0,0.0,0.0,0.0,0.0,0.0,0.0,0.0,0.0,9.0058,9.8295,11.1659,11.9478,12.1139,11.9523,11.7023,11.3753,10.5982,9.648,0.0,0.0,0.0,0.0,0.0,0.0,0.0,0.0,0.0,0.0,0.0,0.0,0.0,0.0,0.0,0.0,0.0,0.0,0.0,0.0,0.0,0.0,0.0,0.0,0.0,0.0,0.0,0.0,5.3592,5.4289,5.3555,0.0,0.0,0.0,0.0,0.0,0.0,0.0,0.0,0.0,0.0,8.2003,8.6554,8.85,0.0,0.0,9.1253,9.0555,9.217,9.0225,8.549,7.6607,7.1468,0.0,0.0,0.0,0.0,0.0,0.0,0.0,0.0,0.0,0.0,0.0,0.0,0.0,0.0,0.0,0.0,0.0,0.0,0.0,0.0,0.0,0.0,0.0,0.0,0.0,0.0,0.0,0.0,0.0,0.0,0.0,0.0,0.0,0.0,0.0,0.0,0.0,0.0,0.0,0.0,0.0,0.0,0.0,0.0,0.0,0.0,0.0,0.0,0.0,0.0,0.0,0.0,9.0274,9.8504,11.1621,11.8869,11.9908,11.8638,11.6176,11.2368,10.5905,9.7519,0.0,0.0,0.0,0.0,0.0,0.0,0.0,0.0,0.0,0.0,0.0,0.0,0.0,0.0,0.0,0.0,0.0,0.0,0.0,0.0,0.0,0.0,0.0,0.0,0.0,0.0,0.0,0.0,5.6602,5.6161,5.2931,0.0,0.0,0.0,0.0,0.0,0.0,0.0,0.0,0.0,0.0,8.571,9.0408,9.151,9.2134,9.3051,9.14,9.0445,9.1583,8.7839,8.2884,7.7047,0.0,0.0,0.0,0.0,0.0,0.0,0.0,0.0,0.0,0.0,0.0,0.0,0.0,0.0,0.0,0.0,0.0,0.0,0.0,0.0,0.0,0.0,0.0,0.0,0.0,0.0,0.0,0.0,0.0,0.0,0.0,0.0,0.0,0.0,0.0,0.0,0.0,0.0,0.0,0.0,0.0,0.0,0.0,0.0,0.0,0.0,0.0,0.0,0.0,0.0,0.0,0.0,0.0,9.0788,9.9114,11.0648,11.7407,11.8985,11.6676,11.4176,11.156,10.729,10.0596,9.121,0.0,0.0,0.0,0.0,0.0,0.0,0.0,0.0,0.0,0.0,0.0,0.0,0.0,0.0,0.0,0.0,0.0,0.0,0.0,0.0,0.0,0.0,0.0,0.0,0.0,0.0,5.216,5.2858,5.216,0.0,0.0,0.0,0.0,0.0,0.0,0.0,0.0,0.0,0.0,8.2957,8.839,8.9417,9.0886,9.1693,9.0959,8.8133,8.6077,8.6261,8.7105,8.538,0.0,0.0,0.0,0.0,0.0,0.0,0.0,0.0,0.0,0.0,0.0,0.0,0.0,0.0,0.0,0.0,0.0,0.0,0.0,0.0,0.0,0.0,0.0,0.0,0.0,0.0,0.0,6.2673,5.9965,0.0,0.0,0.0,0.0,0.0,0.0,0.0,0.0,0.0,0.0,0.0,7.7293,8.0694,0.0,0.0,0.0,0.0,0.0,0.0,0.0,0.0,0.0,0.0,0.0,0.0,9.0623,9.8681,11.0394,11.6753,11.7292,11.6022,11.3791,11.0714,10.7598,10.0789,8.9863,0.0,0.0,0.0,0.0,0.0,0.0,0.0,0.0,0.0,0.0,0.0,0.0,0.0,0.0,0.0,0.0,0.0,0.0,0.0,0.0,0.0,0.0,0.0,0.0,0.0,5.1903,0.0,0.0,0.0,0.0,0.0,0.0,0.0,0.0,0.0,0.0,0.0,7.3891,8.0828,8.5049,8.828,9.0665,9.1987,9.2978,0.0,0.0,0.0,0.0,0.0,0.0,0.0,0.0,0.0,0.0,0.0,0.0,0.0,0.0,8.2847,7.1064,6.7797,6.7357,6.8935,0.0,0.0,0.0,0.0,0.0,0.0,0.0,0.0,0.0,0.0,0.0,0.0,0.0,0.0,6.9887,0.0,6.6289,0.0,0.0,0.0,0.0,0.0,0.0,0.0,0.0,8.2073,8.6547,8.6805,8.9879,8.9533,0.0,8.4591,7.8027,0.0,0.0,0.0,0.0,0.0,0.0,0.0,0.0,9.1482,9.9765,11.0525,11.6215,11.6407,11.5407,11.3522,11.0675,10.7328,10.1327,9.2479,8.5709,7.9631,0.0,0.0,0.0,0.0,0.0,0.0,0.0,0.0,0.0,0.0,0.0,0.0,0.0,0.0,0.0,0.0,0.0,0.0,0.0,0.0,0.0,0.0,0.0,5.3628,0.0,0.0,0.0,0.0,0.0,0.0,0.0,0.0,0.0,6.9889,7.4992,8.0901,8.6775,8.872,9.0005,9.1216,0.0,0.0,0.0,0.0,0.0,0.0,0.0,8.0755,8.3104,8.1893,8.1305,8.3581,8.9014,9.2244,8.9528,0.0,0.0,7.9984,7.6754,7.657,7.8442,7.9176,7.9874,8.1232,8.3251,8.4609,0.0,0.0,0.0,0.0,0.0,0.0,0.0,0.0,7.7444,7.627,0.0,7.3232,0.0,0.0,0.0,0.0,0.0,0.0,0.0,0.0,9.6059,10.0712,9.775,9.7711,9.7365,9.6596,9.6365,9.2257,8.4251,7.3571,0.0,0.0,0.0,0.0,0.0,0.0,9.348,10.2519,11.106,11.5715,11.6369,11.4868,11.3176,11.1329,10.6636,10.2404,9.8981,9.4095,8.8709,8.2785,7.4668,0.0,0.0,0.0,0.0,0.0,0.0,0.0,0.0,0.0,0.0,0.0,0.0,0.0,0.0,0.0,0.0,0.0,0.0,0.0,0.0,5.6381,0.0,0.0,0.0,0.0,0.0,0.0,0.0,0.0,0.0,0.0,7.7157,8.2003,8.7655,9.2244,0.0,0.0,0.0,0.0,9.0482,8.6885,8.549,8.4829,8.4242,8.7031,8.9087,8.861,0.0,0.0,9.2941,9.5584,9.6832,9.2134,9.5364,9.7456,9.4923,9.0372,8.8133,9.0262,8.8573,8.7399,8.9417,9.1326,9.2317,8.9286,0.0,0.0,0.0,0.0,8.4209,8.7329,9.2409,9.1794,8.9148,8.5161,8.4356,0.0,0.0,0.0,0.0,0.0,0.0,8.5858,9.0375,9.6251,10.0366,10.2904,10.3558,10.3405,10.2558,10.1366,9.8981,9.5406,8.9839,8.0236,6.7275,0.0,0.0,0.0,0.0,9.7288,10.3825,11.1967,11.5984,11.5638,11.4561,11.2599,10.9713,10.7098,10.4674,10.2481,9.9865,9.5672,8.9787,8.3208,0.0,0.0,0.0,0.0,0.0,0.0,0.0,0.0,0.0,0.0,0.0,0.0,0.0,0.0,0.0,0.0,0.0,0.0,0.0,5.5354,5.7336,5.8107,0.0,0.0,0.0,0.0,0.0,0.0,0.0,0.0,0.0,8.8867,8.861,8.8904,0.0,0.0,8.9271,8.7435,8.9344,9.14,9.2537,0.0,0.0,0.0,9.1767,9.1363,9.4593,9.9548,10.2852,10.2301,10.41,10.5018,10.2962,10.3843,10.4394,10.3036,9.9438,9.7309,9.8704,9.8888,9.9108,10.0319,10.1017,10.1237,10.2212,9.4326,9.0671,9.0864,9.3672,9.3864,9.6749,10.125,10.075,9.8404,9.4903,9.4057,8.9248,8.1708,8.0516,0.0,0.0,0.0,9.1797,9.69,9.9365,10.2327,10.552,10.6174,10.6136,10.5559,10.4597,10.3597,10.2558,9.9519,9.195,8.0277,0.0,0.0,8.3597,9.364,10.1208,10.6093,11.2927,11.5792,11.4291,11.3445,11.1675,10.9021,10.7905,10.6597,10.4943,10.3558,10.0866,9.6634,9.0479,8.3324,0.0,0.0,0.0,0.0,0.0,0.0,0.0,0.0,0.0,0.0,0.0,5.4429,4.7941,0.0,0.0,0.0,5.6198,5.9208,6.1594,6.3135,0.0,0.0,0.0,0.0,0.0,0.0,0.0,8.3471,8.9197,9.3529,9.5401,9.4299,9.3492,9.4116,9.3235,9.206,9.0776,0.0,9.4923,9.6282,9.6318,9.6832,9.8521,9.7199,9.7309,10.1531,10.4834,10.711,10.7734,10.8909,10.9533,10.9129,10.8762,10.8468,10.8321,10.6009,10.4137,10.4577,10.5018,10.5605,10.6413,10.6559,10.6559,11.3483,11.1368,10.2828,10.0366,10.2251,10.3905,10.4982,10.5597,10.5597,10.4636,10.2981,10.2097,9.8673,9.3287,8.9363,0.0,0.0,9.5788,9.9288,10.3135,10.4713,10.579,10.6482,10.6521,10.6521,10.6521,10.6444,10.6482,10.6444,10.4174,10.1366,9.8173,9.3595,9.2633,9.5326,10.0212,10.4828,10.8983,11.3637,11.4984,11.2753,11.1906,11.0675,10.8944,10.8752,10.7982,10.6482,10.5559,10.4405,10.2712,9.6519,8.994,8.3208,0.0,0.0,0.0,0.0,0.0,0.0,0.0,0.0,0.0,0.0,0.0,0.0,0.0,0.0,0.0,6.5588,0.0,7.1578,7.1929,0.0,0.0,0.0,7.4111,7.8552,8.4278,8.8757,9.1033,0.0,0.0,0.0,0.0,10.0209,10.1861,10.0356,9.8814,9.8007,9.9071,9.9916,9.8668,9.9145,9.9989,10.1274,10.2779,10.4871,10.7734,10.9569,10.9936,11.001,11.056,11.1148,11.1074,11.056,11.0267,11.1074,11.023,10.9606,10.8064,10.7844,10.8101,10.8762,10.8835,10.8725,11.7677,11.71,11.4907,11.2099,10.9213,11.0175,11.0367,10.9983,10.9983,10.8675,10.6444,10.5559,10.402,10.202,10.1058,10.175,10.3828,10.4636,10.5867,10.7367,10.779,10.7752,10.7405,10.7405,10.7405,10.7367,10.6713,10.7059,10.8213,10.7098,10.5751,10.4328,10.3751,10.125,9.725,10.1943,10.629,10.9829,11.1752,11.2714,11.2676,11.1906,11.0675,10.8944,10.7636,10.6828,10.6405,10.5559,10.4905,10.4405,9.9904,9.4788,8.9286,7.8054,0.0,0.0,0.0,0.0,0.0,0.0,0.0,0.0,0.0,6.6892,5.522,0.0,6.6581,0.0,7.2248,7.5939,7.5896,7.755,0.0,0.0,8.2296,8.4499,9.2134,9.4373,9.5768,9.6942,10.0246,10.2448,10.2448,10.3182,10.4541,10.6633,10.2448,9.8814,9.808,9.9805,10.1531,10.2375,10.3623,10.5165,10.6376,10.7734,10.8725,10.9569,11.0377,11.0891,11.0928,11.1074,11.1221,11.1221,11.1074,11.1038,11.1184,11.1038,11.0817,11.045,11.034,11.0377,11.0597,11.012,10.9716,11.9638,11.96,11.9254,11.7677,11.5407,11.5099,11.4291,11.3214,11.3176,11.1945,10.9829,10.8636,10.7598,10.679,10.679,10.7328,10.8213,10.8213,10.8482,10.8906,10.8906,10.8675,10.8213,10.8213,10.8252,10.8213,10.7752,10.8175,10.9406,10.9021,10.8752,10.8713,10.9521,10.7867,10.3982,10.5405,10.7213,10.906,10.9906,11.0906,11.206,11.0983,10.8829,10.5636,10.4289,10.2674,10.0827,10.025,10.0019,9.9942,9.7442,9.4018,8.9633,8.1131,7.4361,0.0,0.0,0.0,0.0,0.0,0.0,0.0,0.0,0.0,0.0,0.0,7.3991,0.0,0.0,0.0,8.3756,8.5976,8.9051,9.306,9.2644,9.4483,10.0466,10.1751,10.2375,10.2815,10.4761,10.6082,10.6082,10.6486,10.722,10.8615,10.5715,10.3256,10.2962,10.3953,10.5091,10.5972,10.6853,10.7881,10.9166,11.001,11.0524,11.056,11.0891,11.1221,11.1221,11.1221,11.1221,11.1221,11.1221,11.1221,11.1221,11.1221,11.1221,11.1221,11.1221,11.1221,11.1184,11.0854,11.0524,12.0793,12.0716,12.0023,12.0023,12.0331,11.8908,11.7292,11.5599,11.5484,11.4484,11.2791,11.1329,11.0214,10.9406,10.9367,10.9329,10.9252,10.9213,10.9213,10.9252,10.9213,10.9175,10.906,10.906,10.906,10.906,10.8944,10.9406,11.0367,11.0252,11.0521,11.1175,11.1868,11.1752,11.0791,10.8636,10.7521,10.7559,10.8329,10.9483,11.0944,10.9213,10.5905,10.125,10.0173,9.7788,9.3787,9.3749,9.3864,9.3864,9.3326,9.1672,8.8748,8.367,7.94,0.0,7.2322,0.0,0.0,0.0,0.0,0.0,0.0,0.0,0.0,8.2491,8.3388,8.2579,8.708,9.0938,9.3101,9.5595,9.8525,10.2055,10.2462,10.3352,10.5797,10.7132,10.7966,10.8099,10.8591,10.8945,10.8872,10.9019,10.9129,10.9386,10.9349,10.9092,10.9239,10.8799,10.8468,10.8909,10.9055,10.9386,11.0047,11.0707,11.1184,11.1184,11.1184,11.1221,11.1221,11.1221,11.1221,11.1221,11.1221,11.1221,11.1221,11.1221,11.1221,11.1221,11.1221,11.1221,11.1221,11.1184,11.1221,12.337,12.337,12.3216,12.2485,12.1331,12.1023,11.9523,11.7292,11.6599,11.533,11.3753,11.3407,11.2791,11.2022,11.1983,11.1637,11.1021,11.1021,11.1021,11.1021,11.1021,11.0637,10.9983,10.9944,10.9944,10.9906,10.9252,10.9713,11.1252,11.056,10.9906,10.9406,10.9521,10.8867,0.0,0.0,0.0,0.0,10.7521,10.8098,10.8329,10.6097,10.3058,9.9442,9.8442,0.0,9.3018,9.4057,9.4749,9.4788,9.5288,0.0,0.0,0.0,0.0,0.0,0.0,0.0,0.0,0.0,0.0,0.0,8.9594,8.7564,8.6194,9.1329,9.3678,9.1344,9.6464,10.0223,10.0801,10.3549,10.5956,10.7358,10.7506,10.8485,11.078,11.0254,10.9803,11.0481,11.0129,10.9753,10.979,11.0304,11.1001,11.1478,11.2249,11.2653,11.2579,11.045,10.9129,10.9643,11.023,11.0744,11.0964,11.1111,11.1221,11.1221,11.1221,11.1221,11.1221,11.1221,11.1221,11.1221,11.1221,11.1221,11.1221,11.1221,11.1221,11.1221,11.1221,11.1221,11.1221,11.1221,11.1221,12.4101,0.0,12.4101,12.3601,0.0,12.2408,12.1254,11.96,11.8331,11.683,11.5215,11.4791,11.4137,11.333,11.333,11.2906,11.2099,11.2099,11.1906,11.1522,11.1906,11.1868,11.1445,11.1868,11.206,11.206,11.1637,11.1637,11.206,11.1637,11.1021,11.0214,11.1021,11.0983,11.0175,11.0175,10.9329,10.7675,10.8059,10.829,10.8213,10.6213,10.2904,9.8365,0.0,0.0,0.0,0.0,0.0,0.0,0.0,0.0,0.0,0.0,0.0,9.2249,9.1171,9.1402,9.3403,9.4403,9.7057,10.2058,10.2481,10.0481,9.5903,9.9562,10.1775,10.1154,10.3681,10.5777,10.7016,10.8605,11.0069,11.1194,11.1054,11.1113,11.1793,11.1992,11.1568,11.0828,11.1005,11.1135,11.0685,11.1295,11.1919,11.2322,11.2726,11.3167,11.335,11.1882,11.0671,11.0597,11.0891,11.1184,11.1221,11.1221,11.1221,11.1221,11.1221,11.1221,11.1221,11.1221,11.1221,11.1221,11.1221,11.1221,11.1221,11.1221,11.1221,11.1221,11.1221,11.1221,11.1221,11.1515,11.1808,12.4562,12.4562,12.4562,12.4486,12.4255,12.3447,12.2524,12.1485,0.0,0.0,0.0,11.5869,11.5061,11.4253,11.4253,11.3753,11.2945,11.2945,11.256,11.1983,11.2637,11.2945,11.2983,11.3676,11.3984,11.3984,11.3984,11.3637,11.2945,11.2945,11.2599,11.2099,11.333,11.3984,11.3984,11.3984,11.2522,10.9713,10.8983,10.8598,10.8406,10.6674,10.3058,9.7442,9.6095,9.3441,8.9325,8.971,9.0287,9.0787,9.1402,9.2402,9.398,9.5095,9.7096,10.0096,10.1481,10.3712,10.7251,10.779,10.9021,11.1368,11.2829,11.1291,10.5867,10.6936,10.841,10.9774,10.9442,10.9977,11.2003,11.2257,11.2869,11.4229,11.3721,11.3006,11.2455,11.3421,11.3474,11.1563,11.2248,11.2576,11.1852,11.238,11.2969,11.308,11.3351,11.3117,11.3397,11.2831,11.1919,11.1295,11.1184,11.1221,11.1221,11.1405,11.1405,11.1478,11.1588,11.1588,11.1441,11.1405,11.1368,11.1221,11.1221,11.1221,11.1221,11.1221,11.1221,11.1221,11.1221,11.1221,11.1295,11.1845,11.2286,12.6294,12.6332,12.6332,12.5909,12.5178,12.4293,12.3024,12.1408,11.9061,11.7869,11.7561,11.6715,11.5869,11.5138,11.5099,11.4638,11.383,11.383,11.3753,0.0,11.3753,11.3791,11.383,11.3945,11.3984,11.3984,11.3984,11.3945,11.383,11.383,11.3753,11.3676,11.3868,11.3984,11.3984,11.3984,11.3407,11.2137,10.9329,10.7521,10.6751,10.4366,10.1019,9.6788,9.7019,9.5172,9.1095,9.3672,9.4941,9.4403,9.7096,9.9096,10.0058,10.2174,10.4366,10.6367,10.8598,11.0483,11.1752,11.3214,11.483,11.6522,11.6946,11.5484,11.1906,11.2357,11.3043,11.3273,11.3657,11.4394,11.4817,11.5271,11.5694,11.5993,11.5979,11.5876,11.5587,11.5833,11.561,11.444,11.46,11.4337,11.3626,11.4058,11.4802,11.5397,11.536,11.5137,11.3815,11.2934,11.2154,11.1441,11.1221,11.1221,11.1258,11.1808,11.2065,11.2212,11.2726,11.2836,11.2212,11.2102,11.1955,11.1368,11.1258,11.1221,11.1221,11.1221,11.1221,11.1221,11.1221,11.1295,11.1258,11.1845,11.2212,12.6409,12.6063,12.6486,12.6178,12.5332,12.4486,12.3408,12.2139,12.0062,11.9138,11.9023,11.7792,11.6984,11.6638,11.6138,11.5484,11.4714,11.4714,11.4445,11.406,11.4484,11.4714,11.4753,11.5138,11.5368,11.533,11.533,11.5368,11.533,11.4907,11.4714,11.4714,11.4714,11.4714,11.4714,11.4714,11.4022,11.2714,11.1175,10.979,10.8482,10.6867,10.4674,10.1866,10.1712,10.0558,9.8211,9.9596,10.0442,10.0481,10.2404,10.4097,10.5405,10.7829,10.9983,11.1752,11.3791,11.5291,11.6138,11.6907,11.7677,11.8446,11.8523,11.7677,11.5638,11.4984,11.4868,11.5291,11.5368,11.5484,11.5869,11.6253,11.6484,11.6484,11.6896,11.7017,11.6724,11.7385,11.7327,11.619,11.6243,11.6156,11.531,11.5842,11.648,11.6892,11.693,11.6069,11.4117,11.3816,11.3198,11.1594,11.1221,11.1221,11.1258,11.1882,11.2176,11.1845,11.28,11.313,11.2579,11.2396,11.2249,11.1919,11.1515,11.1258,11.1221,11.1221,11.1221,11.1258,11.1625,11.1662,11.1478,11.1845,11.2359,12.6294,12.5755,12.6409,12.6178,12.5332,12.4678,12.3832,12.2793,12.1447,12.0793,12.0369,11.8638,11.7792,11.7715,11.6869,11.6138,11.5599,11.5561,11.5215,11.4676,11.5253,11.5676,11.5907,11.6522,11.6869,11.7061,11.71,11.71,11.7023,11.6446,11.6138,11.6138,11.5945,11.583,11.5869,11.5676,11.483,11.3407,11.3291,11.2291,11.0291,10.9713,10.8675,10.7098,10.6713,10.6174,10.5405,10.552,10.5905,10.6521,10.7367,10.8521,10.9983,11.2252,11.433,11.6022,11.7523,11.8754,11.9523,11.9485,11.9446,11.9638,11.9485,11.91,11.8369,11.7023,11.6215,11.6407,11.5907,11.5869,11.633,11.6484,11.6561,11.6792,11.7561,11.7837,11.7361,11.8623,11.9072,11.7642,11.7899,11.8032,11.756,11.7605,11.787,11.787,11.7955,11.7118,11.5013,11.4958,11.4343,11.2646,11.181,11.1856,11.1884,11.2744,11.304,11.2438,11.3816,11.4539,11.4169,11.3668,11.3372,11.3234,11.2864,11.2401,11.1963,11.184,11.1902,11.1985,11.2139,11.2139,11.1698,11.2176,11.291,12.664,12.6601,12.6678,12.6178,12.5447,12.5293,12.437,12.2985,12.2716,12.2177,12.1216,11.8869,11.7869,11.7677,11.6907,11.6484,11.6407,11.6369,11.633,11.6292,11.6369,11.6792,11.7484,11.7638,11.81,11.8715,11.8792,11.8715,11.8792,11.8715,11.8677,11.8638,11.7984,11.7561,11.7484,11.6792,11.5945,11.5061,11.5061,11.3483,11.0444,11.0906,11.0444,10.8752,11.0137,11.0521,10.956,11.0367,11.0829,11.0983,11.1637,11.2522,11.356,11.5176,11.6946,11.86,11.9562,12.0446,12.1216,12.0639,12.0562,12.1216,12.06,12.0139,11.9985,11.9215,11.8061,11.6984,11.6522,11.6522,11.6484,11.6561,11.6946,11.7638,11.8446,11.8938,11.9046,12.0323,12.0977,12.0074,11.9939,11.9955,11.9692,11.9212,11.8831,11.8789,11.9229,11.8827,11.6722,11.6284,11.5913,11.4304,11.3678,11.3678,11.3652,11.4958,11.5385,11.5682,11.707,11.7302,11.6816,11.655,11.6689,11.5057,11.516,11.4907,11.4005,11.3506,11.3563,11.3436,11.313,11.2573,11.2485,11.3139,11.4037,12.6717,12.6717,12.6717,12.6486,12.6101,12.564,12.4716,12.3639,12.3101,12.2408,12.1485,11.9946,11.9023,11.8523,11.7638,11.7292,11.7292,11.7253,11.7561,11.7984,11.8023,11.8254,11.8523,11.86,11.8754,11.9061,11.91,11.9331,11.9754,11.9831,11.9562,11.9138,11.8715,11.86,11.8523,11.8215,11.7369,11.6061,11.5984,11.5099,11.3445,11.306,11.2637,11.206,11.2637,11.2829,11.2522,11.2791,11.3214,11.3753,11.4522,11.533,11.6215,11.8292,11.9831,12.06,12.1831,12.2678,12.3062,12.2293,12.1985,12.237,12.1562,12.1062,12.1023,12.0292,11.9446,11.8869,11.8331,11.783,11.7407,11.7715,11.8215,11.86,11.9292,11.9985,12.0562,12.1177,12.16,12.1754,12.1831,12.1583,12.1105,12.0748,12.0232,11.9861,12.0086,11.9557,11.8184,11.7955,11.7683,11.7186,11.6995,11.5973,11.4691,11.5722,11.6469,11.6318,11.7382,11.8439,11.7972,11.7571,11.7269,11.6658,11.6716,11.6469,11.5532,11.5314,11.5318,11.5127,11.5205,11.498,11.5952,11.6064,11.6363,12.6717,12.6717,12.6717,12.6717,12.664,12.6024,12.514,12.4101,12.3485,12.2639,12.1562,12.0908,12.0216,11.9369,11.8523,11.8177,11.8177,11.8177,11.8484,11.9061,11.91,11.9215,11.9408,11.9446,11.9562,11.9754,11.9831,12.01,12.06,12.0639,12.0331,11.9831,11.9562,11.9446,11.9408,11.9254,11.8484,11.7369,11.7215,11.6907,11.633,11.5715,11.5291,11.5099,11.5291,11.5291,11.5061,11.5253,11.5561,11.5984,11.6753,11.7715,11.8831,12.06,12.1793,12.2331,12.3408,12.4101,12.4101,12.3562,12.3255,12.3178,12.2601,12.2293,12.2139,12.1523,12.0908,12.0562,12.01,11.9369,11.8407,11.8715,11.9177,11.9408,12.0139,12.0985,12.1793,12.1947,12.2408,12.3332,12.3062,12.2678,12.21,12.1861,12.1601,12.0783,12.0619,12.0353,11.9557,11.9302,11.9323,11.9177,11.9254,11.8178,11.5762,11.6897,11.7344,11.723,11.8265,11.9543,11.8749,11.8773,11.8469,11.8509,11.8022,11.7522,11.7205,11.7103,11.6972,11.6839,11.6809,11.7073,11.7588,11.7797,11.7835,12.6717,12.6717,12.6717,12.6717,12.6678,12.664,12.564,12.4101,12.4024,12.3101,12.1716,12.1523,12.1062,12.0216,11.9446,11.9061,11.9023,11.9061,11.91,11.9254,11.9215,11.9562,12.0216,12.0254,12.0639,12.1216,12.1216,12.1331,12.1485,12.1485,12.1523,12.137,12.0639,12.0254,12.0177,11.96,11.91,11.8908,11.8869,11.8908,11.8869,11.8792,11.8331,11.7792,11.8369,11.8254,11.7753,11.8369,11.8484,11.7715,11.8523,11.9715,12.1177,12.1562,12.2408,12.3793,12.4101,12.4178,12.4216,12.4139,12.4062,12.4024,12.3909,12.3947,12.3832,12.3139,12.237,12.1639,12.1485,12.0754,11.9408,11.9292,11.9638,12.0292,12.1023,12.187,12.2793,12.2908,12.3601,12.4562,12.387,12.3062,12.287,12.2831,12.237,12.1698,12.1523,12.1169,12.0468,12.0246,11.9985,11.9638,11.9677,11.9592,11.8161,11.8562,11.9314,11.9034,11.9341,12.1167,12.139,12.1313,12.0804,12.0487,12.0415,11.9964,11.9176,11.8658,11.8478,11.8255,11.8065,11.8276,11.8875,11.8068,11.821,12.6717,12.6717,12.6717,12.6717,12.6717,12.6717,12.5717,12.4139,12.4101,12.3139,12.1793,12.16,12.1408,12.11,12.0831,12.0408,11.9869,11.9869,12.0177,12.0639,12.0677,12.0869,12.11,12.1139,12.1254,12.1523,12.16,12.16,12.16,12.16,12.16,12.1562,12.1293,12.1139,12.11,12.0869,12.0446,11.9946,11.9869,11.9869,11.9869,11.9869,11.9946,12.0177,11.9485,11.8946,11.8638,11.8946,11.9177,11.9369,12.0216,12.1216,12.237,12.3447,12.4524,12.5601,12.5755,12.5755,12.5678,12.5216,12.4947,12.4909,12.4409,12.4409,12.4678,12.4178,12.3524,12.3178,12.2678,12.1908,12.1062,12.0677,12.1023,12.1793,12.2254,12.2985,12.3985,12.4062,12.4139,12.4947,12.437,12.3716,12.3485,12.3216,12.2562,12.1793,12.16,12.1408,12.1216,12.11,12.0946,12.0793,12.0908,12.0716,11.9638,11.9792,12.01,11.9715,11.9938,12.0814,12.1293,12.1523,12.1083,12.1006,12.1485,12.1361,12.0223,12.0223,12.0009,12.0048,11.9787,11.9558,12.0162,11.9558,11.9749,12.6717,12.6717,12.6717,12.6717,12.664,12.6409,12.5447,12.4139,12.3832,12.3062,12.21,12.1754,12.1754,12.1908,12.1716,12.1331,12.0754,12.0716,12.1062,12.1562,12.16,12.16,12.16,12.16,12.16,12.16,12.16,12.16,12.16,12.16,12.16,12.16,12.16,12.16,12.16,12.16,12.1254,12.0793,12.0716,12.0716,12.0716,12.0716,12.0985,12.1331,12.0485,11.9754,11.9523,11.9754,12.0139,12.0754,12.1562,12.2524,12.3678,12.5024,12.6063,12.6601,12.6678,12.6717,12.664,12.614,12.5832,12.5794,12.5332,12.5216,12.5717,12.5024,12.4601,12.4332,12.3755,12.2985,12.2601,12.2408,12.2562,12.2908,12.3139,12.387,12.514,12.4601,12.4255,12.4447,12.4601,12.4293,12.3793,12.3485,12.2793,12.1754,12.16,12.16,12.16,12.16,12.16,12.1562,12.1485,12.11,12.0331,12.0177,12.0292,11.9985,12.0177,12.0869,12.1293,12.1485,12.16,12.16,12.16,12.16,12.16,12.16,12.16,12.16,12.1265,12.0786,12.1178,12.139,12.114,12.6717,12.6717,12.6717,12.6717,12.6601,12.587,12.4947,12.4101,12.3332,12.2908,12.2639,12.2024,12.2139,12.2562,12.2062,12.1639,12.1485,12.1447,12.1485,12.16,12.16,12.16,12.16,12.16,12.1677,12.1716,12.16,12.1639,12.1716,12.1639,12.16,12.16,12.16,12.16,12.16,12.16,12.16,12.1485,12.1447,12.1523,12.16,12.1523,12.1523,12.1677,12.1562,12.1139,12.0408,12.11,12.1562,12.1754,12.2524,12.3716,12.514,12.614,12.6678,12.6678,12.6717,12.6717,12.6717,12.664,12.6563,12.6563,12.6563,12.6447,12.6371,12.587,12.537,12.514,12.4601,12.4024,12.3947,12.387,12.3678,12.3178,12.3678,12.437,12.5063,12.4716,12.3832,12.3562,12.4332,12.4562,12.3601,12.3408,12.3139,12.1985,12.16,12.16,12.16,12.16,12.16,12.16,12.1523,12.1254,12.0754,12.0292,12.0292,12.0331,12.0754,12.1254,12.1408,12.16,12.16,12.16,12.16,12.16,12.16,12.16,12.16,12.16,12.16,12.1523,12.1562,12.1562,12.1485,12.6717,12.6717,12.6717,12.6717,12.6563,12.5755,12.4909,12.4062,12.3255,12.2908,12.2831,12.2601,12.2639,12.2793,12.2562,12.2177,12.1639,12.16,12.16,12.1639,12.16,12.16,12.16,12.16,12.1908,12.2293,12.187,12.1908,12.2293,12.187,12.16,12.16,12.16,12.16,12.16,12.16,12.16,12.16,12.16,12.187,12.237,12.1908,12.1908,12.2408,12.2485,12.237,12.2139,12.237,12.2754,12.3255,12.4139,12.514,12.6101,12.6524,12.6717,12.6717,12.6717,12.6717,12.6717,12.6717,12.6717,12.6717,12.6717,12.6717,12.6678,12.6447,12.5986,12.5563,12.5101,12.4793,12.4255,12.4101,12.4255,12.4601,12.4332,12.4716,12.5832,12.5947,12.5216,12.4139,12.4716,12.4562,12.3408,12.3216,12.287,12.187,12.16,12.16,12.16,12.16,12.16,12.16,12.1485,12.137,12.0869,12.0562,12.0562,12.0485,12.0793,12.1254,12.1447,12.16,12.16,12.16,12.16,12.16,12.16,12.16,12.16,12.1408,12.1254,12.1293,12.1447,12.1485,12.1408,12.6717,12.6717,12.6717,12.6717,12.6601,12.5755,12.4909,12.4101,12.3601,12.337,12.337,12.337,12.3524,12.3639,12.3178,12.2793,12.2524,12.2254,12.2254,12.2408,12.2139,12.1947,12.1639,12.16,12.2062,12.2601,12.2024,12.2062,12.2831,12.2062,12.16,12.16,12.16,12.16,12.16,12.16,12.16,12.1639,12.1947,12.237,12.2754,12.2678,12.2793,12.3255,12.3332,12.3524,12.3755,12.3832,12.4062,12.4639,12.5409,12.614,12.664,12.6717,12.6717,12.6717,12.6717,12.6717,12.6717,12.6717,12.6717,12.6717,12.6717,12.6717,12.6678,12.6717,12.6409,12.6024,12.587,12.564,12.5216,12.5063,12.5332,12.5794,12.5101,12.5101,12.6063,12.6217,12.5409,12.4255,12.4332,12.3947,12.2947,12.2754,12.2485,12.1831,12.16,12.16,12.16,12.16,12.16,12.16,12.1562,12.1331,12.0946,12.0831,12.0831,12.0716,12.0639,12.1062,12.1408,12.1523,12.16,12.16,12.16,12.16,12.16,12.16,12.1562,12.1254,12.11,12.1331,12.1523,12.1331,12.1293,12.6717,12.6717,12.6717,12.6717,12.6601,12.5794,12.4986,12.4293,12.4062,12.4101,12.4139,12.4178,12.4562,12.487,12.387,12.3524,12.3832,12.3293,12.3255,12.3562,12.3255,12.2601,12.1908,12.1831,12.2293,12.2831,12.2246,12.2246,12.2831,12.2177,12.16,12.16,12.16,12.16,12.16,12.16,12.1793,12.1908,12.2562,12.3024,12.3178,12.3639,12.4062,12.4178,12.4178,12.4486,12.5024,12.5255,12.5409,12.5563,12.6217,12.6601,12.6717,12.6717,12.6717,12.6832,12.6755,12.6794,12.6755,12.6717,12.6717,12.6717,12.6717,12.6717,12.6717,12.6678,12.6678,12.6563,12.6563,12.6601,12.6524,12.6486,12.6524,12.6563,12.5909,12.5563,12.5332,12.5447,12.4909,12.3639,12.3524,12.3485,12.2024,12.2331,12.2254,12.187,12.16,12.16,12.16,12.16,12.16,12.16,12.16,12.1254,12.0869,12.0716,12.0716,12.06,12.0562,12.0946,12.137,12.1523,12.16,12.16,12.1639,12.1639,12.16,12.16,12.16,12.1447,12.1447,12.1562,12.1447,12.1254,12.1293,12.6717,12.6717,12.6717,12.6717,12.6563,12.5755,12.5293,12.4986,12.437,12.4524,12.4909,12.5063,12.5178,12.5293,12.4947,12.4562,12.4216,12.3909,12.3832,12.4024,12.3909,12.3332,12.2678,12.2609,12.2985,12.3639,12.3447,12.3255,12.2908,12.2639,12.2216,12.16,12.16,12.16,12.1639,12.2216,12.2524,12.2678,12.337,12.4139,12.4524,12.4293,12.4447,12.5024,12.5063,12.5178,12.5486,12.6024,12.6332,12.6371,12.6524,12.6717,12.6794,12.6832,12.7063,12.7448,12.7101,12.7025,12.7371,12.7063,12.6755,12.6717,12.6871,12.6717,12.6717,12.6717,12.6717,12.6717,12.6717,12.6717,12.6717,12.6717,12.6717,12.6678,12.6409,12.5832,12.5101,12.5524,12.5486,12.3524,12.3716,12.3178,12.2177,12.1793,12.1908,12.1677,12.16,12.16,12.16,12.16,12.16,12.16,12.1485,12.1139,12.0831,12.0639,12.0523,12.0446,12.0562,12.0869,12.1293,12.16,12.16,12.16,12.1831,12.187,12.1677,12.16,12.16,12.16,12.1254,12.1139,12.1254,12.1177,12.1331,12.6717,12.6717,12.6717,12.6717,12.664,12.6178,12.5755,12.5447,12.5293,12.5216,12.5486,12.5794,12.5947,12.5909,12.5563,12.537,12.5178,12.4793,12.487,12.514,12.4832,12.4178,12.3601,12.3408,12.3832,12.4524,12.4293,12.4062,12.3832,12.3293,12.2639,12.2177,12.1793,12.1793,12.2216,12.2601,12.3101,12.3485,12.4216,12.4947,12.5293,12.5293,12.5486,12.587,12.5947,12.6063,12.6447,12.6948,12.7217,12.7217,12.7217,12.7371,12.7717,12.7755,12.7986,12.8409,12.7986,12.7986,12.8256,12.7986,12.7794,12.7755,12.7755,12.7525,12.7332,12.7217,12.714,12.6755,12.6717,12.6717,12.6717,12.6717,12.6717,12.6678,12.6717,12.6294,12.5255,12.6101,12.5563,12.4255,12.3716,12.3485,12.1831,12.1639,12.16,12.16,12.16,12.16,12.16,12.16,12.1677,12.1793,12.1793,12.1523,12.1408,12.1293,12.1293,12.11,12.137,12.1523,12.16,12.1947,12.187,12.1908,12.2024,12.2024,12.1754,12.16,12.16,12.1408,12.0985,12.1177,12.1562,12.1793,12.1831,12.6717,12.6717,12.6717,12.6717,12.6717,12.6678,12.6217,12.5794,12.6217,12.6178,12.587,12.6371,12.6563,12.664,12.5947,12.5947,12.6563,12.5794,12.587,12.5986,12.5717,12.5063,12.4332,12.4255,12.4601,12.514,12.4601,12.4678,12.4601,12.3678,12.3216,12.2947,12.2293,12.237,12.2947,12.3216,12.3601,12.4255,12.5101,12.5524,12.5755,12.6101,12.6409,12.6486,12.6524,12.6948,12.7486,12.7871,12.7948,12.8217,12.8102,12.8409,12.9025,12.914,12.9256,12.9217,12.914,12.9063,12.9256,12.914,12.9063,12.8986,12.9025,12.8909,12.8179,12.7909,12.7525,12.7025,12.6755,12.6717,12.6717,12.6717,12.6717,12.6717,12.6717,12.6717,12.6717,12.6678,12.6063,12.4562,12.4255,12.3447,12.237,12.1716,12.1716,12.16,12.1639,12.1754,12.187,12.2062,12.2177,12.2331,12.2216,12.2062,12.2024,12.1985,12.2062,12.2139,12.2562,12.2716,12.2447,12.2562,12.237,12.237,12.2447,12.2139,12.1677,12.16,12.1754,12.1947,12.1985,12.237,12.2754,12.2831,12.287,12.6717,12.6717,12.6717,12.6717,12.6717,12.6717,12.6601,12.6409,12.6601,12.6563,12.6486,12.664,12.6717,12.6678,12.6447,12.6524,12.6678,12.6409,12.6255,12.5678,12.6294,12.587,12.5255,12.5101,12.5216,12.5486,12.5947,12.5524,12.4716,12.4716,12.4486,12.3832,12.3562,12.3639,12.387,12.4409,12.4909,12.5255,12.5947,12.6332,12.6332,12.6524,12.6717,12.6717,12.6755,12.714,12.7717,12.7909,12.8563,12.941,12.9371,12.9179,12.9333,12.9333,12.9602,12.9948,12.964,12.9563,12.9948,12.9679,12.9217,12.9371,12.941,12.914,12.8948,12.8332,12.7948,12.7525,12.7101,12.6794,12.6717,12.6717,12.6717,12.6717,12.6717,12.6717,12.6717,12.6717,12.6178,12.5409,12.5024,12.4486,12.287,12.2562,12.2293,12.1793,12.1754,12.1947,12.2216,12.2485,12.2754,12.2985,12.3024,12.2947,12.2947,12.2908,12.2908,12.3062,12.3524,12.3832,12.3562,12.3562,12.3562,12.3216,12.2793,12.2485,12.2293,12.2331,12.2639,12.2831,12.3024,12.337,12.3678,12.3755,12.4024,12.6717,12.6717,12.6717,12.6717,12.6717,12.6717,12.6717,12.6717,12.6717,12.6717,12.6717,12.6717,12.6717,12.6717,12.6717,12.6678,12.6717,12.6678,12.6447,12.6178,12.6486,12.6409,12.614,12.5986,12.5986,12.6063,12.6409,12.6024,12.5601,12.5293,12.5101,12.4678,12.4332,12.4293,12.4678,12.5216,12.5601,12.5986,12.6409,12.6717,12.6717,12.6717,12.6717,12.6832,12.7063,12.764,12.8448,12.8948,12.9794,13.0564,13.0602,13.0333,13.0371,13.0333,13.0602,13.0833,13.0718,13.0525,13.0794,13.0679,13.041,13.0333,13.0333,13.0102,12.9871,12.9333,12.8679,12.8063,12.7486,12.714,12.6755,12.6717,12.6717,12.6717,12.6717,12.6717,12.6717,12.6678,12.6371,12.5678,12.5332,12.4447,12.3601,12.3255,12.2562,12.1908,12.2331,12.2562,12.2716,12.3024,12.3485,12.3716,12.387,12.3909,12.3909,12.387,12.3793,12.3985,12.4293,12.4562,12.4601,12.4716,12.4909,12.4293,12.3601,12.3601,12.3485,12.3524,12.3447,12.3562,12.3793,12.4216,12.4524,12.4678,12.5063,12.6717,12.6717,12.6717,12.6717,12.6717,12.6717,12.6717,12.6717,12.6717,12.6717,12.6717,12.6717,12.6717,12.6717,12.6717,12.6717,12.6717,12.6717,12.6601,12.6601,12.664,12.664,12.6563,12.6563,12.6563,12.6717,12.6678,12.6563,12.6371,12.6024,12.5717,12.5486,12.4947,12.5063,12.5524,12.564,12.5947,12.6524,12.664,12.6717,12.6717,12.6717,12.6717,12.6832,12.7448,12.8179,12.9025,12.9833,13.0794,13.1602,13.1679,13.1679,13.1679,13.1679,13.1679,13.1641,13.1487,13.1487,13.1487,13.1525,13.1525,13.1679,13.1641,13.1333,13.0794,13.0371,12.9679,12.8833,12.8102,12.7486,12.6832,12.6717,12.6717,12.6717,12.6717,12.6717,12.6717,12.6717,12.6332,12.5909,12.5755,12.514,12.4255,12.3678,12.287,12.2331,12.2793,12.3178,12.3408,12.3755,12.4293,12.4793,12.5063,12.514,12.514,12.5063,12.4947,12.4909,12.5178,12.5332,12.5524,12.5678,12.564,12.4986,12.4524,12.4486,12.437,12.4255,12.4216,12.4255,12.4678,12.5216,12.5447,12.5563,12.5909,12.6717,12.6717,12.6717,12.6717,12.6717,12.6717,12.6717,12.6717,12.6717,12.6717,12.6717,12.6717,12.6717,12.6717,12.6717,12.6717,12.6717,12.6717,12.6717,12.6717,12.6717,12.6717,12.6717,12.6717,12.6717,12.6717,12.6717,12.6717,12.6678,12.6524,12.6332,12.6409,12.6217,12.6294,12.6294,12.6486,12.6409,12.664,12.6717,12.6717,12.6717,12.6717,12.6717,12.6794,12.7486,12.8332,12.9179,13.0025,13.0871,13.1564,13.1679,13.1679,13.1679,13.1679,13.1679,13.1679,13.1679,13.1679,13.1679,13.1679,13.1679,13.1679,13.1679,13.1718,13.1372,13.091,13.0294,12.964,12.8525,12.7563,12.6794,12.6717,12.6717,12.6717,12.6717,12.6755,12.6755,12.6717,12.664,12.6332,12.6255,12.6024,12.5063,12.4332,12.387,12.3447,12.3639,12.4139,12.4486,12.487,12.537,12.587,12.6371,12.6371,12.6371,12.6294,12.6178,12.6024,12.614,12.6101,12.6294,12.6447,12.6255,12.5601,12.5216,12.5063,12.4986,12.4986,12.5063,12.5178,12.5678,12.6217,12.6178,12.614,12.6255,12.6717,12.6717,12.6717,12.6717,12.6717,12.6717,12.6717,12.6717,12.6717,12.6717,12.6717,12.6717,12.6717,12.6717,12.6717,12.6717,12.6717,12.6717,12.6717,12.6717,12.6717,12.6717,12.6717,12.6717,12.6717,12.6717,12.6717,12.6717,12.6717,12.6678,12.6717,12.6678,12.6717,12.6717,12.6717,12.6678,12.6717,12.6717,12.6717,12.6717,12.6717,12.6717,12.6717,12.6909,12.7525,12.8332,12.9179,13.0025,13.0871,13.1525,13.1679,13.1679,13.1679,13.1679,13.1679,13.1679,13.1679,13.1679,13.1679,13.1718,13.1872,13.2256,13.1987,13.1987,13.2025,13.1641,13.0794,12.9794,12.8833,12.7563,12.6794,12.6755,12.6909,12.714,12.7025,12.6986,12.7101,12.6948,12.6871,12.6832,12.664,12.6255,12.5563,12.5024,12.4832,12.4716,12.4639,12.4986,12.5447,12.5794,12.614,12.6332,12.6678,12.6678,12.6678,12.6678,12.6717,12.6717,12.6717,12.6717,12.6717,12.6678,12.6601,12.6217,12.5947,12.5678,12.587,12.5947,12.6024,12.6024,12.6255,12.6486,12.6601,12.6678,12.6717,12.6717,12.6717,12.6717,12.6794,12.6909,12.6755,12.6794,12.6871,12.6755,12.6717,12.6717,12.6717,12.6717,12.6717,12.6717,12.6717,12.6717,12.6717,12.6717,12.6717,12.6717,12.6717,12.6717,12.6717,12.6717,12.6717,12.6717,12.6717,12.6717,12.6717,12.6717,12.6717,12.6717,12.6717,12.6717,12.6717,12.6717,12.6717,12.6717,12.6717,12.6717,12.6717,12.6832,12.7025,12.7717,12.8602,12.9525,13.041,13.1064,13.1525,13.1679,13.1679,13.1679,13.1679,13.1679,13.1679,13.1679,13.1756,13.1949,13.1718,13.2025,13.2718,13.2141,13.2179,13.2256,13.1833,13.1064,12.9679,12.8717,12.7909,12.7255,12.6948,12.7255,12.7602,12.7525,12.7409,12.7832,12.7794,12.7371,12.7255,12.6986,12.6563,12.5986,12.5832,12.5678,12.5601,12.5524,12.5563,12.6024,12.6255,12.6486,12.6563,12.6717,12.6678,12.6717,12.6717,12.6717,12.6717,12.6717,12.6717,12.6717,12.6717,12.6601,12.6524,12.6524,12.6332,12.664,12.6717,12.6486,12.6447,12.664,12.6717,12.6717,12.6717,12.6717,12.6717,12.6717,12.6717,12.7101,12.7525,12.6986,12.7101,12.7563,12.6948,12.6717,12.6717,12.6717,12.6717,12.6717,12.6717,12.6717,12.6717,12.6717,12.6717,12.6717,12.6717,12.6717,12.6717,12.6717,12.6717,12.6717,12.6717,12.6717,12.6717,12.6717,12.6717,12.6717,12.6717,12.6717,12.6717,12.6717,12.6717,12.6717,12.6717,12.6717,12.6755,12.6755,12.7063,12.7794,12.8448,12.9294,13.0064,13.0871,13.1448,13.1602,13.1679,13.1679,13.1679,13.1679,13.1679,13.1679,13.1756,13.2025,13.241,13.2064,13.2064,13.2641,13.2179,13.1872,13.1872,13.1872,13.1295,13.0487,12.9563,12.8717,12.7986,12.7794,12.7871,12.814,12.8448,12.864,12.8948,12.8525,12.814,12.7678,12.7448,12.7063,12.6563,12.6563,12.6524,12.6486,12.6447,12.6409,12.6447,12.6601,12.6678,12.6717,12.6717,12.6717,12.6717,12.6717,12.6717,12.6717,12.6717,12.6717,12.6717,12.6717,12.6717,12.6678,12.6717,12.6717,12.6717,12.6717,12.6717,12.6717,12.6717,12.6717,12.6717,12.6717,12.6717,12.7371,12.7332,12.6871,12.6871,12.714,12.6832,12.6871,12.7101,12.6871,12.6717,12.6717,12.6717,12.6717,12.6717,12.6717,12.6717,12.6717,12.6717,12.6717,12.6717,12.6717,12.6717,12.6717,12.6717,12.6717,12.6717,12.6717,12.6717,12.6717,12.6717,12.6717,12.6717,12.6717,12.6717,12.6717,12.6717,12.6717,12.6717,12.6717,12.6948,12.714,12.7063,12.7332,12.8525,12.8563,12.9294,13.0294,13.0756,13.1295,13.1525,13.1679,13.1679,13.1564,13.1333,13.1141,13.1641,13.1218,13.141,13.2025,13.1872,13.2218,13.2526,13.2218,13.1718,13.1679,13.1641,13.1372,13.0564,13.0179,12.9525,12.8871,12.864,12.8986,12.9217,12.9333,12.9602,12.9679,12.9217,12.8794,12.8332,12.7871,12.7409,12.6986,12.6717,12.664,12.6601,12.6563,12.6563,12.6601,12.664,12.6717,12.6717,12.6717,12.6717,12.6717,12.6717,12.6717,12.6717,12.6717,12.6717,12.6717,12.6717,12.6717,12.6717,12.6717,12.6717,12.6717,12.6717,12.6717,12.6717,12.6717,12.6717,12.6717,12.6717,12.6717,12.8409,12.814,12.714,12.6794,12.6948,12.6755,12.6832,12.7025,12.7025,12.6909,12.6717,12.6717,12.6717,12.6717,12.6717,12.6717,12.6717,12.6717,12.6717,12.6717,12.6717,12.6717,12.6717,12.6717,12.6717,12.6717,12.6717,12.6717,12.6717,12.6717,12.6717,12.6717,12.6717,12.6717,12.6717,12.6717,12.6717,12.6717,12.6717,12.6986,12.7332,12.7217,12.7909,12.8602,12.8948,12.9256,13.0525,13.0871,13.1256,13.1525,13.1679,13.1679,13.1602,13.1333,13.1256,13.1525,13.1256,13.1256,13.1641,13.1795,13.2179,13.241,13.2256,13.1679,13.1679,13.1679,13.1564,13.091,13.0525,13.0141,12.9717,12.9525,12.9717,12.9987,13.0141,13.0371,13.0525,13.0179,12.9563,12.8833,12.8294,12.764,12.7217,12.6832,12.6717,12.6717,12.6717,12.6717,12.6717,12.6717,12.6717,12.6717,12.6717,12.6717,12.6717,12.6717,12.6717,12.6717,12.6717,12.6717,12.6717,12.6717,12.6717,12.6717,12.6717,12.6717,12.6717,12.6717,12.6717,12.6717,12.6717,12.6717,12.6717,12.6717,12.6871,12.9833,12.8986,12.7409,12.7101,12.7678,12.6986,12.7101,12.7602,12.7717,12.7294,12.6755,12.6717,12.6717,12.6717,12.6717,12.6717,12.6717,12.6717,12.6717,12.6717,12.6717,12.6717,12.6717,12.6717,12.6717,12.6717,12.6832,12.6871,12.6755,12.6871,12.6794,12.6717,12.6717,12.6717,12.6717,12.6717,12.6717,12.6717,12.6717,12.6794,12.7178,12.7486,12.8294,12.9179,12.9948,13.0718,13.1525,13.1525,13.1525,13.1679,13.1679,13.1679,13.1641,13.1372,13.1372,13.1525,13.1372,13.1448,13.1756,13.1949,13.2218,13.2487,13.2333,13.1795,13.1679,13.1679,13.1602,13.1448,13.0987,13.0679,13.0448,13.0448,13.0525,13.0641,13.0833,13.1064,13.1218,13.1256,13.0602,12.9525,12.8717,12.8063,12.7255,12.6832,12.6717,12.6717,12.6717,12.6717,12.6717,12.6717,12.6717,12.6717,12.6717,12.6717,12.6717,12.6717,12.6717,12.6717,12.6717,12.6717,12.6717,12.6717,12.6717,12.6717,12.6717,12.6717,12.6717,12.6755,12.6755,12.6717,12.6717,12.6717,12.6717,12.6717,12.7025,13.0294,12.9833,12.814,12.7332,12.714,12.6832,12.6871,12.714,12.7178,12.7025,12.6717,12.6717,12.6717,12.6717,12.6717,12.6717,12.6717,12.6717,12.6717,12.6717,12.6717,12.6717,12.6717,12.6717,12.6717,12.6794,12.7101,12.7101,12.6755,12.7063,12.6986,12.6871,12.6794,12.6717,12.6717,12.6717,12.6717,12.6717,12.6755,12.6909,12.7486,12.7755,12.8563,12.9948,13.0179,13.091,13.1525,13.1641,13.1679,13.1679,13.1679,13.1679,13.1602,13.1333,13.1333,13.1564,13.1372,13.1564,13.2256,13.241,13.2679,13.2756,13.2641,13.2218,13.1756,13.1679,13.1679,13.1564,13.141,13.1141,13.1218,13.1218,13.1256,13.1333,13.141,13.1602,13.1679,13.1679,13.091,12.9563,12.8948,12.8409,12.7563,12.6717,12.6717,12.6717,12.6717,12.6717,12.6717,12.6717,12.6717,12.6717,12.6717,12.6717,12.6717,12.6717,12.6717,12.6717,12.6717,12.6717,12.6717,12.6717,12.6717,12.6717,12.6871,12.7063,12.7101,12.6909,12.6871,12.6909,12.6832,12.6717,12.6717,12.6717,12.7217,13.0718,13.0333,12.8909,12.7794,12.7063,12.6794,12.6717,12.6755,12.7025,12.7063,12.7025,12.6832,12.6717,12.6717,12.6717,12.6717,12.6717,12.6717,12.6717,12.6717,12.6717,12.6717,12.6717,12.6717,12.6717,12.6871,12.714,12.7178,12.7178,12.7448,12.7563,12.7409,12.6948,12.6755,12.6717,12.6717,12.6717,12.6717,12.7025,12.7255,12.7871,12.8563,12.9063,13.041,13.0718,13.1141,13.1564,13.1679,13.1679,13.1679,13.1679,13.1679,13.1487,13.1333,13.1256,13.1295,13.1372,13.1487,13.2256,13.2872,13.2833,13.2526,13.2487,13.2141,13.1872,13.1679,13.1679,13.1679,13.1641,13.1679,13.1679,13.1602,13.1564,13.1525,13.1525,13.1679,13.1679,13.1602,13.0602,12.9487,12.9025,12.8602,12.7717,12.6909,12.6909,12.6986,12.7178,12.7025,12.6717,12.6717,12.6717,12.6717,12.6717,12.6717,12.6717,12.6717,12.6717,12.6717,12.6717,12.6717,12.6717,12.6717,12.6948,12.7217,12.7409,12.7525,12.7755,12.7909,12.7563,12.7178,12.6986,12.6717,12.6871,12.6948,12.7448,13.1218,13.041,12.9563,12.8679,12.7832,12.7025,12.6717,12.6755,12.7371,12.7678,12.7525,12.6986,12.6717,12.6717,12.6717,12.6717,12.6717,12.6717,12.6717,12.6717,12.6717,12.6717,12.6717,12.6717,12.6717,12.6717,12.7025,12.7409,12.764,12.7371,12.7717,12.7909,12.7255,12.6717,12.6717,12.6717,12.6717,12.6794,12.7409,12.764,12.814,12.9179,12.9948,13.0525,13.1141,13.1564,13.1641,13.1679,13.1679,13.1679,13.1679,13.1679,13.1641,13.1602,13.1564,13.1602,13.1641,13.1641,13.1795,13.2526,13.2603,13.2218,13.2333,13.2025,13.1795,13.1679,13.1679,13.1679,13.1679,13.1679,13.1679,13.1679,13.1679,13.1679,13.1679,13.1679,13.1679,13.1641,13.0718,12.9833,12.9256,12.8717,12.7794,12.714,12.714,12.7294,12.7563,12.7371,12.6871,12.6717,12.6717,12.6717,12.6717,12.6717,12.6717,12.6717,12.6717,12.6717,12.6794,12.6871,12.6909,12.6909,12.7217,12.7678,12.7871,12.7909,12.8525,12.914,12.8602,12.8025,12.7063,12.6755,12.6909,12.7255,12.7755,13.1525,13.1218,13.041,12.9563,12.864,12.7294,12.6717,12.6755,12.6986,12.7101,12.7063,12.6755,12.6717,12.6717,12.6717,12.6717,12.6717,12.6717,12.6717,12.6717,12.6717,12.6717,12.6717,12.6717,12.6717,12.6871,12.7101,12.714,12.7063,12.714,12.7217,12.7332,12.7294,12.6755,12.6717,12.6717,12.6717,12.6717,12.7025,12.7332,12.7986,12.9102,13.0025,13.0564,13.1333,13.1679,13.1679,13.1679,13.1679,13.1679,13.1679,13.1679,13.1679,13.1679,13.1679,13.1679,13.1679,13.1679,13.191,13.2449,13.2833,13.2564,13.2372,13.2141,13.1833,13.1718,13.1679,13.1679,13.1679,13.1679,13.1679,13.1679,13.1679,13.1679,13.1679,13.1679,13.1679,13.1679,13.1179,13.0333,12.9679,12.8409,12.7371,12.7332,12.7371,12.7294,12.7486,12.7294,12.6832,12.6717,12.6717,12.6717,12.6717,12.6717,12.6717,12.6832,12.6794,12.6717,12.6986,12.7294,12.7255,12.7255,12.764,12.8179,12.8217,12.8294,12.9256,12.991,12.9525,12.8871,12.7909,12.7371,12.7563,12.7832,12.8063,13.1679,13.1564,13.0525,12.9756,12.9025,12.7717,12.7101,12.7063,12.6871,12.6832,12.7025,12.6871,12.6717,12.6717,12.6717,12.6717,12.6717,12.6717,12.6717,12.6717,12.6717,12.6717,12.6717,12.6717,12.6717,12.6871,12.7101,12.7255,12.7255,12.7371,12.7255,12.7025,12.7217,12.7217,12.7025,12.6717,12.6717,12.6909,12.7294,12.8025,12.8679,12.9487,13.0448,13.0948,13.141,13.1679,13.1679,13.1679,13.1679,13.1679,13.1679,13.1679,13.1679,13.1679,13.1679,13.1679,13.1679,13.1679,13.1872,13.2064,13.2372,13.2372,13.2526,13.2256,13.1833,13.1718,13.1679,13.1679,13.1679,13.1679,13.1679,13.1679,13.1679,13.1679,13.1679,13.1679,13.1679,13.1679,13.141,13.0602,12.9679,12.8332,12.7178,12.7448,12.7563,12.7448,12.7371,12.7101,12.6871,12.6755,12.6717,12.6717,12.6717,12.6717,12.6871,12.714,12.7025,12.6755,12.7294,12.7986,12.7794,12.7832,12.8256,12.8717,12.9102,12.9563,13.0294,13.0602,13.0141,12.9525,12.8717,12.8371,12.8371,12.8563,12.8833,13.1679,13.1448,12.9987,12.9333,12.9063,12.8179,12.7832,12.7794,12.7101,12.7178,12.7832,12.6986,12.6717,12.6717,12.6717,12.6717,12.6717,12.6717,12.6717,12.6717,12.6717,12.6717,12.6717,12.6717,12.6717,12.6717,12.6832,12.714,12.764,12.7217,12.6832,12.7063,12.7794,12.764,12.714,12.6794,12.6832,12.7178,12.7832,12.8602,12.9333,13.0487,13.1064,13.1448,13.1641,13.1679,13.1679,13.1679,13.1679,13.1679,13.1679,13.1679,13.1679,13.1679,13.1679,13.1679,13.1679,13.1679,13.1718,13.1872,13.1872,13.1949,13.1833,13.1718,13.1718,13.1679,13.1679,13.1679,13.1679,13.1679,13.1679,13.1679,13.1679,13.1679,13.1679,13.1679,13.1679,13.1564,13.1333,13.0641,12.9756,12.8563,12.7255,12.7178,12.7486,12.7255,12.7101,12.7063,12.6871,12.6755,12.6717,12.6717,12.6717,12.6717,12.6909,12.7255,12.7371,12.7178,12.8332,12.9025,12.8756,12.8602,12.914,12.9679,13.0217,13.0718,13.1102,13.1025,13.0718,13.0064,12.9679,12.9371,12.9371,12.9679,12.9987,13.1679,13.1641,13.1179,13.0294,12.914,12.8294,12.7909,12.7871,12.764,12.7755,12.7871,12.7063,12.6717,12.6717,12.6717,12.6717,12.6717,12.6717,12.6717,12.6717,12.6717,12.6717,12.6717,12.6717,12.6717,12.6717,12.6755,12.6832,12.6948,12.6717,12.714,12.764,12.7678,12.7486,12.7332,12.6986,12.714,12.7486,12.814,12.8833,12.9679,13.0564,13.1141,13.1448,13.1679,13.1679,13.1679,13.1679,13.1679,13.1679,13.1679,13.1679,13.1679,13.1679,13.1679,13.1679,13.1679,13.1679,13.1679,13.1679,13.1679,13.1718,13.1718,13.1679,13.1679,13.1679,13.1679,13.1679,13.1679,13.1679,13.1679,13.1679,13.1679,13.1679,13.1679,13.1679,13.1679,13.1602,13.1333,13.0679,12.9756,12.8679,12.7371,12.6986,12.7217,12.6948,12.6832,12.6948,12.6871,12.6794,12.6717,12.6717,12.6717,12.6717,12.6986,12.7294,12.7525,12.7832,12.8948,12.9717,12.941,12.9448,13.0064,13.0602,13.1102,13.1333,13.1525,13.1448,13.141,13.141,13.1064,13.0679,13.041,13.0641,13.0833,13.1679,13.1641,13.1333,13.0256,12.8871,12.8871,12.8794,12.8409,12.8063,12.7909,12.7794,12.7063,12.6717,12.6717,12.6717,12.6717,12.6717,12.6717,12.6717,12.6717,12.6717,12.6717,12.6717,12.6717,12.6717,12.6717,12.6717,12.6717,12.6755,12.7063,12.7448,12.7255,12.7025,12.7255,12.7178,12.6948,12.7178,12.7602,12.8102,12.8602,12.9294,13.0179,13.0794,13.1141,13.141,13.1602,13.1602,13.1602,13.1641,13.1679,13.1679,13.1679,13.1679,13.1679,13.1679,13.1679,13.1679,13.1679,13.1679,13.1679,13.1679,13.1795,13.1949,13.1987,13.1795,13.1679,13.1679,13.1679,13.1679,13.1679,13.1679,13.1679,13.1679,13.1679,13.1679,13.1679,13.1679,13.1679,13.1218,13.0602,12.9679,12.864,12.7832,12.7371,12.7332,12.7717,12.7678,12.7371,12.7217,12.6909,12.6794,12.6717,12.6717,12.6717,12.7025,12.7371,12.7678,12.8217,12.9333,12.991,12.9833,13.0371,13.1025,13.1525,13.1949,13.2218,13.2526,13.2333,13.2256,13.2333,13.2449,13.2179,13.1718,13.1295,13.1487,13.1679,13.1602,13.0833,12.964,12.8371,12.9602,12.9679,12.8986,12.814,12.7986,12.7871,12.7101,12.6717,12.6717,12.6717,12.6717,12.6717,12.6717,12.6717,12.6717,12.6717,12.6717,12.6717,12.6717,12.6717,12.6717,12.6717,12.6717,12.6871,12.7101,12.7101,12.6755,12.7255,12.7371,12.6871,12.6794,12.7025,12.7409,12.7678,12.7986,12.8602,12.9487,13.041,13.0487,13.091,13.1333,13.1372,13.1448,13.1525,13.1564,13.1564,13.1487,13.1679,13.1679,13.1679,13.1679,13.1679,13.1679,13.1679,13.1679,13.1679,13.1949,13.2372,13.2333,13.2102,13.2025,13.2102,13.1872,13.1833,13.1833,13.1795,13.1987,13.2102,13.1833,13.1679,13.1679,13.1679,13.141,13.0794,13.0102,12.9217,12.8294,12.8025,12.7563,12.7832,12.8486,12.8602,12.8102,12.7602,12.7217,12.6909,12.6755,12.6717,12.6755,12.7025,12.7371,12.7832,12.8602,12.9679,13.0179,13.0217,13.1025,13.2025,13.2372,13.2679,13.3333,13.3641,13.3372,13.3256,13.3564,13.3641,13.368,13.3218,13.2449,13.1872,13.1679,13.1602,13.0833,12.9871,12.8986,12.9333,12.8679,12.7371,12.7794,12.8256,12.8525,12.7448,12.6717,12.6717,12.6717,12.6717,12.6717,12.6717,12.6717,12.6717,12.6717,12.6717,12.6717,12.6717,12.6717,12.6717,12.6717,12.6717,12.6871,12.6986,12.6986,12.6755,12.7063,12.6909,12.6755,12.6717,12.6871,12.714,12.7178,12.7717,12.8563,12.8948,12.9525,12.9563,12.9871,12.9987,12.9987,12.9987,13.0294,13.0602,13.0756,13.1102,13.1641,13.1679,13.1679,13.1679,13.1679,13.1679,13.1679,13.1679,13.1679,13.1718,13.2025,13.2333,13.2487,13.2603,13.2526,13.2179,13.1949,13.1949,13.1987,13.2218,13.2333,13.1987,13.1756,13.1756,13.1756,13.1102,13.0448,12.964,12.8756,12.8409,12.8179,12.8217,12.8409,12.8717,12.8948,12.8717,12.814,12.7678,12.7101,12.6909,12.6717,12.6794,12.7025,12.7448,12.7909,12.8756,12.9794,13.0256,13.0564,13.1756,13.2872,13.3064,13.341,13.4103,13.4449,13.418,13.418,13.4603,13.4641,13.4564,13.4295,13.368,13.2795,13.1679,13.1602,13.0833,13.0025,12.9294,12.9179,12.864,12.7948,12.7909,12.8179,12.8409,12.7371,12.6717,12.6717,12.6717,12.6717,12.6717,12.6717,12.6717,12.6717,12.6717,12.6717,12.6717,12.6717,12.6717,12.6717,12.6717,12.6755,12.6986,12.6832,12.6755,12.6717,12.6717,12.6717,12.6717,12.6717,12.6717,12.6717,12.6717,12.7294,12.8256,12.8409,12.8602,12.864,12.8909,12.9025,12.9371,12.9487,13.0064,13.0564,13.0871,13.1218,13.1641,13.1679,13.1679,13.1679,13.1679,13.1679,13.1679,13.1679,13.1679,13.1718,13.2179,13.2679,13.2756,13.2833,13.2833,13.2526,13.1949,13.1872,13.1795,13.1987,13.1987,13.1756,13.2141,13.241,13.2179,13.1718,13.0948,13.0141,12.964,12.9563,12.941,12.941,12.9679,13.0102,13.0179,12.9371,12.8756,12.7948,12.7448,12.6986,12.6794,12.6717,12.6832,12.7371,12.8063,12.8948,12.9794,13.0564,13.1141,13.2603,13.3641,13.3718,13.4141,13.4988,13.5141,13.4988,13.5257,13.568,13.5603,13.5411,13.5103,13.4757,13.3872,13.1333,13.1256,13.0602,12.9833,12.9102,12.9025,12.8871,12.864,12.8063,12.7717,12.7678,12.7025,12.6717,12.6717,12.6717,12.6717,12.6717,12.6717,12.6717,12.6717,12.6717,12.6717,12.6717,12.6717,12.6717,12.6717,12.6717,12.7063,12.7409,12.7025,12.6717,12.6717,12.6717,12.6717,12.6717,12.6717,12.6717,12.6717,12.6717,12.6717,12.7063,12.7332,12.764,12.8025,12.8409,12.8833,12.9102,12.941,12.991,13.0679,13.1025,13.1487,13.1641,13.1679,13.1679,13.1679,13.1679,13.1679,13.1679,13.1679,13.1679,13.1872,13.2564,13.2949,13.2949,13.2949,13.2949,13.2718,13.2179,13.1833,13.1795,13.2025,13.2025,13.1795,13.2333,13.2756,13.241,13.1987,13.1218,13.0448,13.0333,13.0294,13.041,13.0448,13.0756,13.1256,13.0987,13.0179,12.9294,12.8294,12.7525,12.7101,12.6755,12.6717,12.6717,12.7563,12.8409,12.8525,12.9333,13.0525,13.1679,13.2718,13.3603,13.4257,13.4795,13.5449,13.5911,13.5911,13.6296,13.6488,13.6334,13.6065,13.5911,13.5526,13.4872,12.9679,12.9679,12.9525,12.8948,12.8256,12.814,12.7794,12.7217,12.7101,12.6909,12.6948,12.6871,12.6717,12.6717,12.6717,12.6717,12.6717,12.6717,12.6717,12.6717,12.6717,12.6717,12.6717,12.6717,12.6717,12.6755,12.6794,12.6832,12.7332,12.6986,12.6717,12.6717,12.6717,12.6717,12.6717,12.6717,12.6717,12.6717,12.6717,12.6717,12.6717,12.6871,12.6871,12.7025,12.7063,12.7178,12.7217,12.7332,12.8217,12.941,13.0833,13.1487,13.1679,13.1679,13.1679,13.1679,13.1679,13.1679,13.1679,13.1679,13.1679,13.1756,13.2372,13.2872,13.2872,13.2872,13.2872,13.2949,13.2487,13.2102,13.2141,13.2949,13.3103,13.2179,13.2141,13.2179,13.2025,13.1487,13.0871,13.041,13.0179,13.0333,13.0602,13.0718,13.091,13.1179,13.0987,13.0179,12.9333,12.8486,12.7602,12.7178,12.6717,12.6717,12.6755,12.8063,12.8833,12.8717,12.9063,13.0525,13.1679,13.2449,13.3295,13.4141,13.4949,13.568,13.6103,13.6488,13.6565,13.668,13.6719,13.6642,13.6526,13.6257,13.5565]},{"header":{"parameterUnit":"m.s-1","parameterCategory":1,"la1":31.0,"la2":29.5877,"lo1":-88.7671,"lo2":-86.6584,"dy":0.0162,"dx":0.0185,"nx":115,"ny":88,"refTime":"2025-11-07T12:00:00:Z","depth":0,"parameterNumber":3,"parameterNumberName":"V-component_of_WINDS"},"data":[0.0,0.0,0.0,0.0,0.0,0.0,0.0,0.0,0.0,0.0,0.0,0.0,0.0,0.0,0.0,0.0,0.0,0.0,0.0,0.0,0.0,0.0,0.0,0.0,0.0,0.0,0.0,0.0,0.0,0.0,0.0,0.0,0.0,0.0,0.0,0.0,0.0,0.0,0.0,0.0,0.0,0.0,0.0,0.0,0.0,0.0,0.0,0.0,0.0,0.0,0.0,0.0,0.0,0.0,0.0,0.0,0.0,0.0,0.0,0.0,0.0,0.0,0.0,0.0,0.0,0.0,0.0,0.0,0.0,0.0,0.0,0.0,0.0,0.0,0.0,0.0,0.0,0.0,0.0,0.0,0.0,0.0,0.0,0.0,0.0,0.0,0.0,0.0,0.0,0.0,0.0,0.0,0.0,0.0,0.0,0.0,0.0,0.0,0.0,0.0,0.0,0.0,0.0,0.0,0.0,0.0,0.0,0.0,0.0,0.0,0.0,0.0,0.0,0.0,0.0,0.0,0.0,0.0,0.0,0.0,0.0,0.0,0.0,0.0,0.0,0.0,0.0,0.0,0.0,0.0,0.0,0.0,0.0,0.0,0.0,0.0,0.0,0.0,0.0,0.0,0.0,0.0,0.0,0.0,0.0,0.0,0.0,0.0,0.0,0.0,0.0,0.0,0.0,0.0,0.0,0.0,0.0,0.0,0.0,0.0,0.0,0.0,0.0,0.0,0.0,0.0,0.0,0.0,0.0,0.0,0.0,0.0,0.0,0.0,0.0,0.0,0.0,0.0,0.0,0.0,0.0,0.0,0.0,0.0,0.0,0.0,0.0,0.0,0.0,0.0,0.0,0.0,0.0,0.0,0.0,0.0,0.0,0.0,0.0,0.0,0.0,0.0,0.0,0.0,0.0,0.0,0.0,0.0,0.0,0.0,0.0,0.0,0.0,0.0,0.0,0.0,0.0,0.0,0.0,0.0,0.0,0.0,0.0,0.0,0.0,0.0,0.0,0.0,0.0,0.0,0.0,0.0,0.0,0.0,0.0,0.0,0.0,0.0,0.0,0.0,0.0,0.0,0.0,0.0,0.0,0.0,0.0,0.0,0.0,0.0,0.0,0.0,0.0,0.0,0.0,0.0,0.0,0.0,0.0,0.0,0.0,0.0,0.0,0.0,0.0,0.0,0.0,0.0,0.0,0.0,0.0,0.0,0.0,0.0,0.0,0.0,0.0,0.0,0.0,0.0,0.0,0.0,0.0,0.0,0.0,0.0,0.0,0.0,0.0,0.0,0.0,0.0,0.0,0.0,0.0,0.0,0.0,0.0,0.0,0.0,0.0,0.0,0.0,0.0,0.0,0.0,0.0,0.0,0.0,0.0,0.0,0.0,0.0,0.0,0.0,0.0,0.0,0.0,0.0,0.0,0.0,0.0,0.0,0.0,0.0,0.0,0.0,0.0,0.0,0.0,0.0,0.0,0.0,0.0,0.0,0.0,0.0,0.0,0.0,0.0,0.0,0.0,0.0,0.0,0.0,0.0,0.0,0.0,0.0,0.0,0.0,0.0,0.0,0.0,0.0,0.0,0.0,0.0,0.0,0.0,0.0,0.0,0.0,0.0,0.0,0.0,0.0,0.0,0.0,0.0,0.0,0.0,0.0,0.0,0.0,0.0,0.0,0.0,0.0,0.0,0.0,0.0,0.0,0.0,0.0,0.0,0.0,0.0,0.0,0.0,0.0,0.0,0.0,0.0,0.0,0.0,0.0,0.0,0.0,0.0,0.0,0.0,0.0,0.0,0.0,0.0,0.0,0.0,0.0,0.0,0.0,0.0,0.0,0.0,0.0,0.0,0.0,0.0,0.0,0.0,0.0,0.0,0.0,0.0,0.0,0.0,0.0,0.0,0.0,0.0,0.0,0.0,0.0,0.0,0.0,0.0,0.0,0.0,0.0,0.0,0.0,0.0,0.0,0.0,0.0,0.0,0.0,0.0,0.0,0.0,0.0,0.0,0.0,0.0,0.0,0.0,0.0,0.0,0.0,0.0,0.0,0.0,0.0,0.0,0.0,0.0,0.0,0.0,0.0,0.0,0.0,0.0,0.0,0.0,0.0,0.0,0.0,0.0,0.0,0.0,0.0,0.0,0.0,0.0,0.0,0.0,0.0,0.0,0.0,0.0,0.0,0.0,0.0,0.0,0.0,0.0,0.0,0.0,0.0,0.0,0.0,0.0,0.0,0.0,0.0,0.0,0.0,0.0,0.0,0.0,0.0,0.0,0.0,0.0,0.0,0.0,0.0,0.0,0.0,0.0,0.0,0.0,0.0,0.0,0.0,0.0,0.0,0.0,0.0,0.0,0.0,0.0,0.0,0.0,0.0,0.0,0.0,0.0,0.0,0.0,0.0,0.0,0.0,0.0,0.0,0.0,0.0,0.0,0.0,0.0,0.0,0.0,0.0,0.0,0.0,0.0,0.0,0.0,0.0,0.0,0.0,0.0,0.0,0.0,0.0,0.0,0.0,0.0,0.0,0.0,0.0,0.0,0.0,0.0,0.0,0.0,0.0,0.0,0.0,0.0,0.0,0.0,0.0,0.0,0.0,0.0,0.0,0.0,0.0,0.0,0.0,0.0,0.0,0.0,0.0,0.0,0.0,0.0,0.0,0.0,0.0,0.0,0.0,0.0,0.0,0.0,0.0,0.0,0.0,0.0,0.0,0.0,0.0,0.0,0.0,0.0,0.0,0.0,0.0,0.0,0.0,0.0,0.0,0.0,0.0,0.0,0.0,0.0,0.0,0.0,0.0,0.0,0.0,0.0,0.0,0.0,0.0,0.0,0.0,0.0,0.0,0.0,0.0,0.0,0.0,0.0,0.0,0.0,0.0,0.0,0.0,0.0,0.0,0.0,0.0,0.0,0.0,0.0,0.0,0.0,0.0,0.0,0.0,0.0,0.0,0.0,0.0,0.0,0.0,0.0,0.0,0.0,0.0,0.0,0.0,0.0,0.0,0.0,0.0,0.0,0.0,0.0,0.0,0.0,0.0,0.0,0.0,0.0,0.0,0.0,0.0,0.0,0.0,0.0,0.0,0.0,0.0,0.0,0.0,0.0,0.0,0.0,0.0,0.0,0.0,0.0,0.0,0.0,0.0,0.0,0.0,0.0,0.0,0.0,0.0,0.0,0.0,0.0,0.0,0.0,0.0,0.0,0.0,0.0,0.0,0.0,0.0,0.0,0.0,0.0,0.0,0.0,0.0,0.0,0.0,0.0,0.0,0.0,0.0,0.0,0.0,0.0,0.0,0.0,0.0,0.0,0.0,0.0,0.0,0.0,0.0,0.0,0.0,0.0,0.0,0.0,0.0,0.0,0.0,0.0,0.0,0.0,0.0,0.0,0.0,0.0,0.0,0.0,0.0,0.0,0.0,0.0,0.0,0.0,0.0,0.0,0.0,0.0,0.0,0.0,0.0,0.0,0.0,0.0,0.0,0.0,0.0,0.0,0.0,0.0,0.0,0.0,0.0,0.0,0.0,0.0,0.0,0.0,0.0,0.0,0.0,0.0,0.0,0.0,0.0,0.0,0.0,0.0,0.0,0.0,0.0,0.0,0.0,0.0,0.0,0.0,0.0,0.0,0.0,0.0,0.0,0.0,0.0,0.0,0.0,0.0,0.0,0.0,0.0,0.0,0.0,0.0,0.0,0.0,0.0,0.0,0.0,0.0,0.0,0.0,0.0,0.0,0.0,0.0,0.0,0.0,0.0,0.0,0.0,0.0,0.0,0.0,0.0,0.0,0.0,0.0,0.0,0.0,0.0,0.0,0.0,0.0,0.0,0.0,0.0,0.0,0.0,0.0,0.0,0.0,0.0,0.0,0.0,0.0,0.0,0.0,0.0,0.0,0.0,0.0,0.0,0.0,0.0,0.0,0.0,0.0,0.0,0.0,0.0,0.0,0.0,0.0,0.0,0.0,0.0,0.0,0.0,0.0,0.0,0.0,0.0,0.0,0.0,0.0,0.0,0.0,0.0,0.0,0.0,0.0,0.0,0.0,0.0,0.0,0.0,0.0,0.0,0.0,0.0,0.0,0.0,0.0,0.0,0.0,0.0,0.0,0.0,0.0,0.0,0.0,0.0,0.0,0.0,0.0,0.0,0.0,0.0,0.0,0.0,0.0,0.0,0.0,0.0,0.0,0.0,0.0,0.0,0.0,0.0,0.0,0.0,0.0,0.0,0.0,0.0,0.0,0.0,0.0,0.0,0.0,0.0,0.0,0.0,0.0,0.0,0.0,-2.1496,0.0,0.0,0.0,0.0,0.0,0.0,0.0,0.0,0.0,0.0,0.0,0.0,0.0,0.0,0.0,0.0,0.0,0.0,0.0,0.0,0.0,0.0,0.0,0.0,0.0,0.0,0.0,0.0,0.0,0.0,0.0,0.0,0.0,0.0,0.0,0.0,0.0,0.0,0.0,0.0,0.0,0.0,0.0,0.0,0.0,0.0,0.0,0.0,0.0,0.0,0.0,0.0,0.0,0.0,0.0,0.0,0.0,0.0,0.0,0.0,0.0,0.0,0.0,0.0,0.0,0.0,0.0,0.0,0.0,0.0,0.0,0.0,0.0,0.0,0.0,0.0,0.0,0.0,0.0,0.0,0.0,0.0,0.0,0.0,0.0,0.0,0.0,0.0,0.0,0.0,0.0,0.0,0.0,0.0,0.0,0.0,0.0,0.0,0.0,0.0,0.0,0.0,0.0,0.0,0.0,0.0,0.0,0.0,0.0,0.0,-2.2632,-2.2645,-2.2218,-2.1924,-2.1777,0.0,0.0,0.0,0.0,0.0,0.0,0.0,0.0,0.0,0.0,0.0,0.0,0.0,0.0,0.0,0.0,0.0,0.0,0.0,0.0,0.0,0.0,0.0,0.0,0.0,0.0,0.0,0.0,0.0,0.0,0.0,0.0,0.0,0.0,0.0,0.0,0.0,0.0,0.0,0.0,0.0,0.0,0.0,0.0,0.0,0.0,0.0,0.0,0.0,0.0,0.0,0.0,0.0,0.0,0.0,0.0,0.0,0.0,0.0,0.0,0.0,0.0,0.0,0.0,0.0,0.0,0.0,0.0,0.0,0.0,0.0,0.0,0.0,0.0,0.0,0.0,0.0,0.0,0.0,0.0,0.0,0.0,0.0,0.0,0.0,0.0,0.0,0.0,0.0,0.0,0.0,0.0,0.0,0.0,0.0,0.0,0.0,0.0,0.0,0.0,0.0,0.0,0.0,0.0,0.0,0.0,0.0,0.0,0.0,0.0,0.0,0.0,-2.2672,-2.2325,-2.2178,0.0,0.0,0.0,0.0,0.0,0.0,0.0,0.0,0.0,0.0,0.0,0.0,0.0,0.0,0.0,0.0,0.0,0.0,0.0,0.0,0.0,0.0,0.0,0.0,0.0,0.0,0.0,0.0,0.0,0.0,0.0,0.0,0.0,0.0,0.0,0.0,0.0,0.0,0.0,0.0,0.0,0.0,0.0,0.0,0.0,0.0,0.0,0.0,0.0,0.0,0.0,0.0,0.0,0.0,0.0,0.0,0.0,0.0,0.0,0.0,0.0,0.0,0.0,0.0,0.0,0.0,0.0,0.0,0.0,0.0,0.0,0.0,0.0,0.0,0.0,0.0,0.0,0.0,0.0,0.0,0.0,0.0,0.0,0.0,0.0,0.0,0.0,0.0,0.0,0.0,0.0,0.0,0.0,0.0,0.0,0.0,0.0,0.0,0.0,0.0,0.0,0.0,0.0,0.0,0.0,0.0,0.0,0.0,0.0,0.0,-2.2953,-2.4035,-2.3768,0.0,-2.2819,0.0,0.0,0.0,0.0,0.0,0.0,0.0,0.0,0.0,0.0,0.0,0.0,0.0,0.0,0.0,0.0,0.0,0.0,0.0,0.0,0.0,0.0,0.0,0.0,0.0,0.0,0.0,0.0,0.0,0.0,0.0,0.0,0.0,0.0,0.0,0.0,0.0,0.0,0.0,0.0,0.0,0.0,0.0,0.0,0.0,0.0,0.0,0.0,0.0,0.0,0.0,0.0,0.0,0.0,0.0,0.0,0.0,0.0,0.0,0.0,0.0,0.0,0.0,0.0,0.0,0.0,0.0,0.0,0.0,0.0,0.0,0.0,0.0,0.0,0.0,0.0,0.0,0.0,0.0,0.0,0.0,0.0,0.0,0.0,0.0,0.0,0.0,0.0,0.0,0.0,0.0,0.0,0.0,0.0,0.0,0.0,0.0,0.0,0.0,0.0,0.0,0.0,0.0,0.0,0.0,0.0,0.0,0.0,0.0,0.0,-2.3447,-2.3941,-2.3661,-2.322,0.0,0.0,0.0,0.0,0.0,0.0,0.0,0.0,0.0,0.0,0.0,0.0,0.0,0.0,0.0,0.0,0.0,0.0,0.0,0.0,0.0,0.0,0.0,0.0,0.0,0.0,0.0,0.0,0.0,0.0,0.0,0.0,0.0,0.0,0.0,0.0,0.0,0.0,0.0,0.0,0.0,0.0,0.0,0.0,0.0,0.0,0.0,0.0,0.0,0.0,0.0,0.0,0.0,0.0,0.0,0.0,0.0,0.0,0.0,0.0,0.0,0.0,0.0,0.0,0.0,0.0,0.0,0.0,0.0,0.0,0.0,0.0,0.0,0.0,0.0,0.0,0.0,0.0,0.0,0.0,0.0,0.0,0.0,0.0,0.0,0.0,0.0,0.0,0.0,0.0,0.0,0.0,0.0,0.0,0.0,0.0,0.0,0.0,0.0,0.0,0.0,0.0,0.0,0.0,0.0,0.0,0.0,0.0,0.0,0.0,-2.346,0.0,-2.4088,-2.3848,-2.3287,-2.2445,0.0,0.0,0.0,0.0,0.0,0.0,0.0,0.0,0.0,0.0,0.0,0.0,0.0,0.0,0.0,0.0,0.0,0.0,0.0,0.0,0.0,0.0,0.0,0.0,0.0,0.0,0.0,0.0,0.0,0.0,0.0,0.0,0.0,0.0,0.0,0.0,0.0,0.0,0.0,0.0,0.0,0.0,0.0,0.0,0.0,0.0,0.0,0.0,0.0,0.0,0.0,0.0,0.0,0.0,0.0,0.0,0.0,0.0,0.0,0.0,0.0,0.0,0.0,0.0,0.0,0.0,0.0,0.0,0.0,0.0,0.0,0.0,0.0,0.0,0.0,0.0,0.0,0.0,0.0,0.0,0.0,0.0,0.0,0.0,0.0,0.0,0.0,0.0,0.0,0.0,0.0,0.0,0.0,0.0,0.0,0.0,0.0,0.0,0.0,0.0,0.0,0.0,0.0,0.0,0.0,0.0,0.0,0.0,0.0,-2.4155,-2.3888,-2.4983,-2.473,-2.3901,0.0,0.0,0.0,0.0,0.0,0.0,0.0,0.0,0.0,0.0,0.0,0.0,0.0,0.0,0.0,0.0,0.0,0.0,0.0,0.0,0.0,0.0,0.0,0.0,0.0,0.0,0.0,0.0,0.0,0.0,0.0,0.0,0.0,0.0,0.0,0.0,0.0,0.0,0.0,0.0,0.0,0.0,0.0,0.0,0.0,0.0,0.0,0.0,0.0,0.0,0.0,0.0,0.0,0.0,0.0,0.0,0.0,0.0,0.0,0.0,0.0,0.0,0.0,0.0,0.0,0.0,0.0,0.0,0.0,0.0,0.0,0.0,0.0,0.0,0.0,0.0,0.0,0.0,0.0,0.0,0.0,0.0,0.0,0.0,0.0,0.0,0.0,0.0,0.0,0.0,0.0,0.0,0.0,0.0,0.0,0.0,0.0,0.0,0.0,0.0,0.0,0.0,0.0,0.0,0.0,0.0,0.0,0.0,0.0,-2.2806,-2.2953,-2.4048,-2.6026,-2.4275,-2.3233,0.0,0.0,0.0,0.0,0.0,0.0,0.0,0.0,0.0,0.0,0.0,0.0,0.0,0.0,0.0,0.0,0.0,0.0,0.0,0.0,0.0,0.0,0.0,0.0,0.0,0.0,0.0,0.0,0.0,0.0,0.0,0.0,0.0,0.0,0.0,0.0,0.0,0.0,0.0,0.0,0.0,0.0,0.0,0.0,0.0,0.0,0.0,0.0,0.0,0.0,0.0,0.0,0.0,0.0,0.0,0.0,0.0,0.0,0.0,0.0,0.0,0.0,0.0,0.0,0.0,0.0,0.0,0.0,0.0,0.0,0.0,0.0,0.0,0.0,0.0,0.0,0.0,0.0,0.0,0.0,0.0,0.0,0.0,0.0,0.0,0.0,0.0,0.0,0.0,0.0,0.0,0.0,0.0,0.0,0.0,0.0,0.0,0.0,0.0,0.0,0.0,0.0,0.0,0.0,0.0,0.0,0.0,0.0,0.0,-2.2258,0.0,-2.4796,0.0,-2.4102,-2.2886,0.0,0.0,0.0,0.0,0.0,0.0,0.0,0.0,0.0,0.0,0.0,0.0,0.0,0.0,0.0,0.0,0.0,0.0,0.0,0.0,0.0,0.0,0.0,0.0,0.0,0.0,0.0,0.0,0.0,0.0,0.0,0.0,0.0,0.0,0.0,0.0,0.0,0.0,0.0,0.0,0.0,0.0,0.0,0.0,0.0,0.0,0.0,0.0,0.0,0.0,0.0,0.0,0.0,0.0,0.0,0.0,0.0,0.0,0.0,0.0,0.0,0.0,0.0,0.0,0.0,0.0,0.0,0.0,0.0,0.0,0.0,0.0,0.0,0.0,0.0,0.0,0.0,0.0,0.0,0.0,0.0,0.0,0.0,0.0,0.0,0.0,0.0,0.0,0.0,0.0,0.0,0.0,0.0,0.0,0.0,0.0,0.0,0.0,0.0,0.0,0.0,0.0,0.0,0.0,0.0,0.0,0.0,0.0,-2.2285,-2.4502,-2.5945,-2.6052,-2.4756,-2.4329,-2.2953,0.0,0.0,0.0,0.0,0.0,0.0,0.0,0.0,0.0,0.0,0.0,0.0,0.0,0.0,0.0,0.0,0.0,0.0,0.0,0.0,0.0,0.0,0.0,0.0,0.0,0.0,0.0,0.0,0.0,0.0,0.0,0.0,0.0,0.0,0.0,0.0,0.0,0.0,0.0,0.0,0.0,0.0,0.0,0.0,0.0,0.0,0.0,0.0,0.0,0.0,0.0,0.0,0.0,0.0,0.0,0.0,0.0,0.0,0.0,0.0,0.0,0.0,0.0,0.0,0.0,0.0,0.0,0.0,0.0,0.0,0.0,0.0,0.0,0.0,0.0,0.0,0.0,0.0,0.0,0.0,0.0,0.0,0.0,0.0,0.0,0.0,0.0,0.0,0.0,0.0,0.0,0.0,0.0,0.0,0.0,0.0,0.0,0.0,0.0,0.0,0.0,0.0,0.0,0.0,0.0,0.0,0.0,0.0,0.0,-2.3447,-2.505,-2.6186,-2.664,-2.4289,-2.326,0.0,0.0,0.0,0.0,0.0,0.0,0.0,0.0,0.0,0.0,0.0,0.0,0.0,0.0,0.0,0.0,0.0,0.0,0.0,0.0,0.0,0.0,0.0,0.0,0.0,0.0,0.0,0.0,0.0,0.0,0.0,0.0,0.0,0.0,0.0,0.0,0.0,0.0,0.0,0.0,0.0,0.0,0.0,0.0,0.0,0.0,0.0,0.0,0.0,0.0,0.0,0.0,0.0,0.0,0.0,0.0,0.0,0.0,0.0,0.0,0.0,0.0,0.0,0.0,0.0,0.0,0.0,0.0,0.0,0.0,0.0,0.0,0.0,0.0,0.0,0.0,0.0,0.0,0.0,0.0,0.0,0.0,0.0,0.0,0.0,0.0,0.0,0.0,0.0,0.0,0.0,0.0,0.0,0.0,0.0,0.0,0.0,0.0,0.0,0.0,0.0,0.0,0.0,0.0,0.0,0.0,0.0,0.0,0.0,-2.5411,-2.6734,-2.7655,-2.803,-2.5451,-2.4142,-2.4289,0.0,0.0,0.0,0.0,0.0,0.0,0.0,0.0,0.0,0.0,0.0,0.0,0.0,0.0,0.0,0.0,0.0,0.0,0.0,0.0,0.0,0.0,0.0,0.0,0.0,0.0,0.0,0.0,0.0,0.0,0.0,0.0,0.0,0.0,0.0,0.0,0.0,0.0,0.0,0.0,0.0,0.0,0.0,0.0,0.0,0.0,0.0,0.0,0.0,0.0,0.0,0.0,0.0,0.0,0.0,0.0,0.0,0.0,0.0,0.0,0.0,0.0,0.0,0.0,0.0,0.0,0.0,0.0,0.0,0.0,0.0,0.0,0.0,0.0,0.0,0.0,0.0,0.0,0.0,0.0,0.0,0.0,0.0,0.0,0.0,0.0,0.0,0.0,0.0,0.0,0.0,0.0,0.0,0.0,0.0,0.0,0.0,0.0,0.0,0.0,0.0,0.0,0.0,0.0,0.0,0.0,0.0,0.0,-2.9593,-3.0608,-3.0448,-2.9018,-2.7615,-2.5585,0.0,0.0,0.0,0.0,0.0,0.0,0.0,0.0,0.0,0.0,0.0,0.0,0.0,0.0,0.0,0.0,0.0,0.0,0.0,0.0,0.0,0.0,0.0,0.0,0.0,0.0,0.0,0.0,0.0,0.0,0.0,0.0,0.0,0.0,0.0,0.0,0.0,0.0,0.0,0.0,0.0,0.0,0.0,0.0,0.0,0.0,0.0,0.0,0.0,0.0,0.0,0.0,0.0,0.0,0.0,0.0,0.0,0.0,0.0,0.0,0.0,0.0,0.0,0.0,0.0,0.0,0.0,0.0,0.0,0.0,0.0,0.0,0.0,0.0,0.0,0.0,0.0,0.0,0.0,0.0,0.0,0.0,0.0,0.0,0.0,0.0,0.0,0.0,0.0,0.0,0.0,0.0,0.0,0.0,0.0,0.0,0.0,0.0,0.0,0.0,0.0,0.0,0.0,0.0,0.0,0.0,0.0,0.0,0.0,-3.1116,-3.3868,-3.4536,-3.2826,-2.9566,-2.7335,0.0,0.0,0.0,0.0,0.0,0.0,0.0,0.0,0.0,0.0,0.0,0.0,0.0,0.0,0.0,0.0,0.0,0.0,0.0,0.0,0.0,0.0,0.0,0.0,0.0,0.0,0.0,0.0,0.0,0.0,0.0,0.0,0.0,0.0,0.0,0.0,0.0,0.0,0.0,0.0,0.0,0.0,0.0,0.0,0.0,0.0,0.0,0.0,0.0,0.0,0.0,0.0,0.0,0.0,0.0,0.0,0.0,0.0,0.0,0.0,0.0,0.0,0.0,0.0,0.0,0.0,0.0,0.0,0.0,0.0,0.0,0.0,0.0,0.0,0.0,0.0,0.0,0.0,0.0,0.0,0.0,0.0,0.0,0.0,0.0,0.0,0.0,0.0,0.0,0.0,0.0,0.0,0.0,0.0,0.0,0.0,0.0,0.0,0.0,0.0,0.0,0.0,0.0,0.0,0.0,0.0,0.0,0.0,-3.1557,-3.3681,-3.6794,-3.7181,-3.4701,-3.2038,-2.9713,0.0,0.0,0.0,0.0,0.0,0.0,0.0,0.0,0.0,0.0,0.0,0.0,0.0,0.0,0.0,0.0,0.0,0.0,0.0,0.0,0.0,0.0,0.0,0.0,0.0,0.0,0.0,0.0,0.0,0.0,0.0,0.0,0.0,0.0,0.0,0.0,0.0,0.0,0.0,0.0,0.0,0.0,0.0,0.0,0.0,0.0,0.0,0.0,0.0,0.0,0.0,0.0,0.0,0.0,0.0,0.0,0.0,0.0,0.0,0.0,0.0,0.0,0.0,0.0,0.0,0.0,0.0,0.0,0.0,0.0,0.0,0.0,0.0,0.0,0.0,0.0,0.0,0.0,0.0,0.0,0.0,0.0,0.0,0.0,0.0,0.0,0.0,0.0,0.0,0.0,0.0,0.0,0.0,0.0,0.0,0.0,0.0,0.0,0.0,0.0,0.0,0.0,0.0,0.0,0.0,0.0,0.0,0.0,-3.3784,-3.6049,-3.8937,-3.8906,-3.5293,-3.4541,-3.2031,0.0,0.0,0.0,0.0,0.0,0.0,0.0,0.0,0.0,0.0,0.0,0.0,0.0,0.0,0.0,0.0,0.0,0.0,0.0,0.0,0.0,0.0,0.0,0.0,0.0,0.0,0.0,0.0,0.0,0.0,0.0,0.0,0.0,0.0,0.0,0.0,0.0,0.0,0.0,0.0,0.0,0.0,0.0,0.0,0.0,0.0,0.0,0.0,0.0,0.0,0.0,0.0,0.0,0.0,0.0,0.0,0.0,0.0,0.0,0.0,0.0,0.0,0.0,0.0,0.0,0.0,0.0,0.0,0.0,0.0,0.0,0.0,0.0,0.0,0.0,0.0,0.0,0.0,0.0,0.0,0.0,0.0,0.0,0.0,0.0,0.0,0.0,0.0,0.0,0.0,0.0,0.0,0.0,0.0,0.0,0.0,0.0,0.0,0.0,0.0,0.0,0.0,0.0,0.0,0.0,0.0,0.0,0.0,-3.3819,-3.2984,-3.8211,-3.9149,-3.5392,-3.4642,-3.1758,0.0,0.0,0.0,0.0,0.0,0.0,0.0,0.0,0.0,0.0,0.0,0.0,0.0,0.0,0.0,0.0,0.0,0.0,0.0,0.0,0.0,0.0,0.0,0.0,0.0,0.0,0.0,0.0,0.0,0.0,0.0,0.0,0.0,0.0,0.0,0.0,0.0,0.0,0.0,0.0,0.0,0.0,0.0,0.0,0.0,0.0,0.0,0.0,-2.1323,0.0,0.0,0.0,0.0,0.0,0.0,0.0,0.0,0.0,0.0,0.0,0.0,0.0,0.0,0.0,0.0,0.0,0.0,0.0,0.0,0.0,0.0,0.0,0.0,0.0,0.0,0.0,0.0,0.0,0.0,0.0,0.0,0.0,0.0,0.0,0.0,0.0,0.0,0.0,0.0,0.0,0.0,0.0,0.0,0.0,0.0,0.0,0.0,0.0,0.0,0.0,0.0,0.0,0.0,0.0,0.0,0.0,0.0,0.0,-3.5519,-3.5954,-3.9666,-3.9237,-3.3926,-3.3931,-3.2199,0.0,0.0,0.0,0.0,0.0,0.0,0.0,0.0,0.0,0.0,0.0,0.0,0.0,0.0,0.0,0.0,0.0,0.0,0.0,0.0,0.0,0.0,0.0,0.0,0.0,0.0,0.0,0.0,0.0,0.0,0.0,0.0,0.0,0.0,0.0,0.0,0.0,0.0,0.0,0.0,0.0,0.0,0.0,0.0,0.0,0.0,0.0,0.0,0.0,0.0,0.0,0.0,0.0,0.0,0.0,0.0,0.0,0.0,0.0,0.0,0.0,0.0,0.0,0.0,0.0,0.0,0.0,0.0,0.0,0.0,0.0,0.0,0.0,0.0,0.0,0.0,0.0,0.0,0.0,0.0,0.0,0.0,0.0,0.0,0.0,0.0,0.0,0.0,0.0,0.0,0.0,0.0,0.0,0.0,0.0,0.0,0.0,0.0,0.0,0.0,0.0,0.0,0.0,0.0,0.0,0.0,0.0,-3.4003,-3.6428,-3.9112,-4.0207,-3.7453,-3.1236,-3.1763,-3.1691,-3.0583,0.0,0.0,0.0,0.0,0.0,0.0,0.0,0.0,0.0,0.0,0.0,0.0,0.0,0.0,0.0,0.0,0.0,0.0,0.0,0.0,0.0,0.0,0.0,0.0,0.0,0.0,0.0,0.0,0.0,0.0,0.0,0.0,0.0,0.0,0.0,0.0,0.0,0.0,-2.0013,-2.1189,0.0,0.0,0.0,0.0,0.0,0.0,0.0,0.0,-2.179,0.0,0.0,0.0,0.0,0.0,0.0,0.0,0.0,0.0,0.0,0.0,0.0,0.0,0.0,0.0,0.0,0.0,0.0,0.0,0.0,0.0,0.0,0.0,0.0,0.0,0.0,0.0,0.0,0.0,0.0,0.0,0.0,0.0,0.0,0.0,0.0,0.0,0.0,0.0,0.0,0.0,0.0,0.0,0.0,0.0,0.0,0.0,0.0,0.0,0.0,0.0,0.0,0.0,0.0,0.0,0.0,-3.503,-3.2878,-3.2124,-3.3071,-3.3506,-3.1658,-2.7381,-2.6555,-2.6886,-2.7628,0.0,0.0,0.0,0.0,0.0,0.0,0.0,0.0,0.0,0.0,0.0,0.0,0.0,0.0,0.0,0.0,0.0,0.0,0.0,0.0,0.0,0.0,0.0,0.0,0.0,0.0,0.0,0.0,0.0,0.0,0.0,0.0,0.0,0.0,0.0,0.0,0.0,0.0,0.0,-2.3621,-2.3834,0.0,0.0,0.0,0.0,0.0,0.0,0.0,0.0,-2.2044,0.0,0.0,0.0,0.0,0.0,0.0,0.0,0.0,0.0,0.0,0.0,0.0,0.0,0.0,0.0,0.0,0.0,0.0,0.0,0.0,0.0,0.0,0.0,0.0,0.0,0.0,0.0,0.0,0.0,0.0,0.0,0.0,0.0,0.0,0.0,0.0,0.0,0.0,0.0,0.0,0.0,0.0,0.0,0.0,0.0,0.0,0.0,0.0,0.0,0.0,0.0,0.0,0.0,0.0,0.0,-3.4937,-3.5361,-3.5977,-3.7363,-3.5777,-3.2883,-2.8861,-2.5785,-2.369,0.0,0.0,0.0,0.0,0.0,0.0,0.0,0.0,0.0,0.0,0.0,0.0,0.0,0.0,0.0,0.0,0.0,0.0,0.0,0.0,0.0,0.0,0.0,0.0,0.0,0.0,0.0,0.0,0.0,0.0,0.0,0.0,0.0,0.0,0.0,0.0,0.0,0.0,0.0,0.0,-2.4209,-2.4422,-2.5024,0.0,0.0,0.0,0.0,0.0,0.0,-2.2993,-2.2539,0.0,0.0,0.0,0.0,0.0,0.0,0.0,0.0,0.0,0.0,0.0,0.0,0.0,0.0,0.0,0.0,0.0,0.0,0.0,0.0,0.0,0.0,0.0,0.0,0.0,0.0,0.0,0.0,0.0,0.0,0.0,0.0,0.0,0.0,0.0,0.0,0.0,0.0,0.0,0.0,0.0,0.0,0.0,0.0,0.0,0.0,0.0,0.0,0.0,0.0,0.0,0.0,0.0,0.0,0.0,-3.3279,-3.58,-3.7983,-3.9281,-3.6093,-3.251,-2.9189,-2.4727,-2.1359,0.0,0.0,0.0,0.0,0.0,0.0,0.0,0.0,0.0,0.0,0.0,0.0,0.0,0.0,0.0,0.0,0.0,0.0,0.0,0.0,0.0,0.0,0.0,0.0,0.0,0.0,0.0,0.0,0.0,0.0,0.0,0.0,0.0,0.0,0.0,0.0,0.0,0.0,0.0,0.0,0.0,-2.5117,-2.5919,-2.469,0.0,0.0,0.0,0.0,-2.3861,-2.4235,0.0,0.0,0.0,0.0,0.0,0.0,0.0,0.0,0.0,0.0,0.0,0.0,0.0,0.0,0.0,0.0,0.0,0.0,0.0,0.0,0.0,0.0,0.0,0.0,0.0,0.0,0.0,0.0,0.0,0.0,0.0,0.0,0.0,0.0,0.0,0.0,0.0,0.0,0.0,0.0,0.0,0.0,0.0,0.0,0.0,0.0,0.0,0.0,0.0,0.0,0.0,0.0,0.0,0.0,0.0,0.0,-2.9664,-2.9371,-2.8968,-2.8865,-2.536,-2.2929,-2.2428,-2.0267,-1.9039,0.0,0.0,0.0,0.0,0.0,0.0,0.0,0.0,0.0,0.0,0.0,0.0,0.0,0.0,0.0,0.0,0.0,0.0,0.0,0.0,0.0,0.0,0.0,0.0,0.0,0.0,0.0,0.0,0.0,0.0,0.0,0.0,0.0,0.0,0.0,0.0,0.0,0.0,0.0,0.0,0.0,-2.6774,-2.6386,-2.5504,-2.493,0.0,0.0,-2.5758,-2.7281,-2.8003,0.0,0.0,0.0,0.0,0.0,0.0,0.0,0.0,0.0,0.0,0.0,0.0,0.0,0.0,0.0,0.0,0.0,0.0,0.0,0.0,0.0,0.0,0.0,0.0,0.0,0.0,0.0,0.0,0.0,0.0,0.0,0.0,0.0,0.0,0.0,0.0,0.0,0.0,0.0,0.0,0.0,0.0,0.0,0.0,0.0,0.0,0.0,0.0,0.0,0.0,0.0,0.0,0.0,0.0,0.0,-2.7286,-2.938,-2.9652,-3.0026,-3.0013,-2.6663,-2.4399,-2.3745,-1.9842,-1.7329,0.0,0.0,0.0,0.0,0.0,0.0,0.0,0.0,0.0,0.0,0.0,0.0,0.0,0.0,0.0,0.0,0.0,0.0,0.0,0.0,0.0,0.0,0.0,0.0,0.0,0.0,0.0,0.0,0.0,0.0,0.0,0.0,0.0,0.0,0.0,0.0,0.0,0.0,0.0,0.0,0.0,0.0,-2.7348,-2.7068,0.0,0.0,0.0,-2.7722,-2.831,0.0,0.0,0.0,0.0,0.0,0.0,0.0,0.0,0.0,0.0,0.0,0.0,0.0,0.0,0.0,0.0,0.0,0.0,0.0,0.0,0.0,0.0,0.0,0.0,0.0,0.0,0.0,0.0,0.0,0.0,0.0,0.0,0.0,0.0,0.0,0.0,0.0,0.0,0.0,0.0,0.0,0.0,0.0,0.0,0.0,0.0,0.0,0.0,0.0,0.0,0.0,0.0,0.0,0.0,0.0,0.0,0.0,-2.8131,-2.9401,-2.9856,-2.9516,-2.7005,-2.5185,-2.4026,-1.9549,0.0,0.0,0.0,0.0,0.0,0.0,0.0,0.0,0.0,0.0,0.0,0.0,0.0,0.0,0.0,0.0,0.0,0.0,0.0,0.0,0.0,0.0,0.0,0.0,0.0,0.0,0.0,-1.5578,0.0,0.0,0.0,0.0,0.0,0.0,0.0,0.0,0.0,0.0,0.0,0.0,0.0,0.0,-2.7455,-2.8257,-2.8698,-2.9125,0.0,0.0,-2.9673,-2.9606,-3.0515,-2.986,0.0,0.0,0.0,0.0,0.0,0.0,0.0,0.0,0.0,0.0,0.0,0.0,0.0,0.0,0.0,0.0,0.0,0.0,0.0,0.0,0.0,0.0,0.0,0.0,0.0,0.0,0.0,0.0,0.0,0.0,0.0,0.0,0.0,0.0,0.0,0.0,0.0,0.0,0.0,0.0,0.0,0.0,0.0,0.0,0.0,0.0,0.0,0.0,0.0,0.0,0.0,0.0,0.0,0.0,0.0,-2.4513,-2.5641,-2.5087,-2.242,-2.1638,-2.0924,-2.056,-1.9049,-1.7046,0.0,0.0,0.0,0.0,0.0,0.0,0.0,0.0,0.0,0.0,0.0,0.0,0.0,0.0,0.0,0.0,0.0,0.0,0.0,0.0,0.0,0.0,0.0,0.0,0.0,0.0,0.0,0.0,0.0,0.0,0.0,0.0,0.0,0.0,0.0,0.0,0.0,0.0,0.0,0.0,0.0,-2.8297,-2.8898,-3.0154,-3.141,0.0,0.0,-3.1677,-3.2198,-3.3694,-3.2986,-2.7549,0.0,0.0,0.0,0.0,0.0,0.0,0.0,0.0,0.0,0.0,0.0,0.0,0.0,0.0,0.0,0.0,0.0,0.0,0.0,0.0,0.0,0.0,0.0,0.0,0.0,0.0,0.0,0.0,0.0,0.0,0.0,0.0,0.0,0.0,0.0,0.0,0.0,0.0,0.0,0.0,0.0,0.0,0.0,0.0,0.0,0.0,0.0,0.0,0.0,0.0,0.0,0.0,0.0,-2.3081,-2.428,-2.3479,-2.2414,-2.136,-2.1075,-2.0634,-2.0058,-1.8687,-1.7012,0.0,0.0,0.0,0.0,0.0,0.0,0.0,0.0,0.0,0.0,0.0,0.0,0.0,0.0,0.0,0.0,0.0,0.0,0.0,0.0,0.0,0.0,0.0,0.0,0.0,0.0,0.0,0.0,-1.9506,-1.976,-1.9492,0.0,0.0,0.0,0.0,0.0,0.0,0.0,0.0,0.0,0.0,-2.9847,-3.1503,-3.2211,0.0,0.0,-3.3213,-3.2959,-3.3547,-3.2839,-3.1116,-2.7883,-2.6012,0.0,0.0,0.0,0.0,0.0,0.0,0.0,0.0,0.0,0.0,0.0,0.0,0.0,0.0,0.0,0.0,0.0,0.0,0.0,0.0,0.0,0.0,0.0,0.0,0.0,0.0,0.0,0.0,0.0,0.0,0.0,0.0,0.0,0.0,0.0,0.0,0.0,0.0,0.0,0.0,0.0,0.0,0.0,0.0,0.0,0.0,0.0,0.0,0.0,0.0,0.0,0.0,-2.1049,-2.3421,-2.1697,-2.096,-2.1143,-2.0919,-2.0485,-1.9813,-1.8674,-1.7195,0.0,0.0,0.0,0.0,0.0,0.0,0.0,0.0,0.0,0.0,0.0,0.0,0.0,0.0,0.0,0.0,0.0,0.0,0.0,0.0,0.0,0.0,0.0,0.0,0.0,0.0,0.0,0.0,-2.0601,-2.0441,-1.9265,0.0,0.0,0.0,0.0,0.0,0.0,0.0,0.0,0.0,0.0,-3.1196,-3.2906,-3.3307,-3.3534,-3.3868,-3.3267,-3.2919,-3.3334,-3.1971,-3.0167,-2.8043,0.0,0.0,0.0,0.0,0.0,0.0,0.0,0.0,0.0,0.0,0.0,0.0,0.0,0.0,0.0,0.0,0.0,0.0,0.0,0.0,0.0,0.0,0.0,0.0,0.0,0.0,0.0,0.0,0.0,0.0,0.0,0.0,0.0,0.0,0.0,0.0,0.0,0.0,0.0,0.0,0.0,0.0,0.0,0.0,0.0,0.0,0.0,0.0,0.0,0.0,0.0,0.0,0.0,-1.9091,-2.1067,-2.0757,-2.0702,-2.098,-2.0573,-2.0132,-1.9671,-1.8918,-1.7738,-1.6083,0.0,0.0,0.0,0.0,0.0,0.0,0.0,0.0,0.0,0.0,0.0,0.0,0.0,0.0,0.0,0.0,0.0,0.0,0.0,0.0,0.0,0.0,0.0,0.0,0.0,0.0,-1.8985,-1.9239,-1.8985,0.0,0.0,0.0,0.0,0.0,0.0,0.0,0.0,0.0,0.0,-3.0194,-3.2171,-3.2545,-3.308,-3.3374,-3.3106,-3.2078,-3.133,-3.1396,-3.1704,-3.1076,0.0,0.0,0.0,0.0,0.0,0.0,0.0,0.0,0.0,0.0,0.0,0.0,0.0,0.0,0.0,0.0,0.0,0.0,0.0,0.0,0.0,0.0,0.0,0.0,0.0,0.0,0.0,-1.7087,-1.6912,0.0,0.0,0.0,0.0,0.0,0.0,0.0,0.0,0.0,0.0,0.0,-1.8735,-1.8259,0.0,0.0,0.0,0.0,0.0,0.0,0.0,0.0,0.0,0.0,0.0,0.0,-1.9676,-2.3009,-2.1459,-2.0587,-2.0682,-2.0458,-2.0064,-1.9522,-1.8972,-1.7772,-1.5845,0.0,0.0,0.0,0.0,0.0,0.0,0.0,0.0,0.0,0.0,0.0,0.0,0.0,0.0,0.0,0.0,0.0,0.0,0.0,0.0,0.0,0.0,0.0,0.0,0.0,-1.8891,0.0,0.0,0.0,0.0,0.0,0.0,0.0,0.0,0.0,0.0,0.0,-2.6894,-2.9419,-3.0955,-3.2131,-3.3,-3.348,-3.3841,0.0,0.0,0.0,0.0,0.0,0.0,0.0,0.0,0.0,0.0,0.0,0.0,0.0,0.0,-3.0154,-2.5865,-2.4676,-2.4516,-2.509,0.0,0.0,0.0,0.0,0.0,0.0,0.0,0.0,0.0,0.0,0.0,0.0,0.0,0.0,-1.6617,0.0,-1.6374,0.0,0.0,0.0,0.0,0.0,0.0,0.0,0.0,-1.7445,-1.7608,-1.8847,-1.8082,-1.8216,0.0,-1.8367,-1.7835,0.0,0.0,0.0,0.0,0.0,0.0,0.0,0.0,-1.882,-2.2117,-2.0984,-2.0492,-2.0526,-2.0349,-2.0017,-1.9515,-1.8925,-1.7867,-1.6307,-1.5113,-1.4041,0.0,0.0,0.0,0.0,0.0,0.0,0.0,0.0,0.0,0.0,0.0,0.0,0.0,0.0,0.0,0.0,0.0,0.0,0.0,0.0,0.0,0.0,0.0,-1.9519,0.0,0.0,0.0,0.0,0.0,0.0,0.0,0.0,0.0,-2.5438,-2.7295,-2.9446,-3.1583,-3.2291,-3.2759,-3.32,0.0,0.0,0.0,0.0,0.0,0.0,0.0,-2.9392,-3.0247,-2.9806,-2.9593,-3.0421,-3.2398,-3.3574,-3.2585,0.0,0.0,-2.9112,-2.7936,-2.7869,-2.8551,-2.8818,-2.9072,-2.9566,-3.0301,-3.0795,0.0,0.0,0.0,0.0,0.0,0.0,0.0,0.0,-1.6108,-1.656,0.0,-1.7412,0.0,0.0,0.0,0.0,0.0,0.0,0.0,0.0,-1.7804,-1.7758,-1.7236,-1.7229,-1.7168,-1.7032,-1.6992,-1.7099,-1.7333,-1.6816,0.0,0.0,0.0,0.0,0.0,0.0,-1.6483,-1.8307,-1.9583,-2.0404,-2.0519,-2.0254,-1.9956,-1.963,-1.8803,-1.8057,-1.7453,-1.6592,-1.5642,-1.4597,-1.3166,0.0,0.0,0.0,0.0,0.0,0.0,0.0,0.0,0.0,0.0,0.0,0.0,0.0,0.0,0.0,0.0,0.0,0.0,0.0,0.0,-2.0521,0.0,0.0,0.0,0.0,0.0,0.0,0.0,0.0,0.0,0.0,-2.8083,-2.9847,-3.1904,-3.3574,0.0,0.0,0.0,0.0,-3.2933,-3.1623,-3.1116,-3.0875,-3.0662,-3.1677,-3.2425,-3.2251,0.0,0.0,-3.3828,-3.479,-3.5244,-3.3534,-3.471,-3.5471,-3.4549,-3.2893,-3.2078,-3.2853,-3.2238,-3.181,-3.2545,-3.324,-3.3601,-1.5744,0.0,0.0,0.0,0.0,-1.4848,-1.5595,-1.6919,-1.6806,-1.6724,-1.6361,-1.6206,0.0,0.0,0.0,0.0,0.0,0.0,-1.7858,-1.8387,-1.7839,-1.7697,-1.8145,-1.826,-1.8233,-1.8084,-1.7874,-1.7676,-1.7467,-1.6853,-1.6689,-1.6618,0.0,0.0,0.0,0.0,-1.8031,-2.0652,-2.0499,-2.0451,-2.039,-2.02,-1.9854,-1.9345,-1.8884,-1.8457,-1.807,-1.7609,-1.687,-1.5832,-1.4672,0.0,0.0,0.0,0.0,0.0,0.0,0.0,0.0,0.0,0.0,0.0,0.0,0.0,0.0,0.0,0.0,0.0,0.0,0.0,-2.0147,-2.0869,-2.1149,0.0,0.0,0.0,0.0,0.0,0.0,0.0,0.0,0.0,-3.2345,-3.2251,-3.2358,0.0,0.0,-3.2492,-3.1824,-3.2519,-3.3267,-3.3681,0.0,0.0,0.0,-3.34,-3.3253,-3.4429,-3.6233,-3.7435,-3.7235,-3.7889,-3.8223,-3.7475,-3.7796,-3.7996,-3.7502,-3.6193,-3.5418,-3.5925,-3.5992,-3.6072,-3.6513,-3.6767,-3.6847,-1.8023,-1.6632,-1.5988,-1.6022,-1.6517,-1.6551,-1.706,-1.7853,-1.7765,-1.7351,-1.6734,-1.6585,-1.5737,-1.4407,-1.4197,0.0,0.0,0.0,-1.7844,-1.8616,-1.7968,-1.8043,-1.8606,-1.8721,-1.8715,-1.8613,-1.8443,-1.8267,-1.8084,-1.7548,-1.725,-1.7063,0.0,0.0,-1.8342,-1.7778,-1.853,-2.0863,-2.0675,-2.0417,-2.0153,-2.0003,-1.9691,-1.9223,-1.9027,-1.8796,-1.8504,-1.826,-1.7785,-1.7039,-1.5954,-1.4692,0.0,0.0,0.0,0.0,0.0,0.0,0.0,0.0,0.0,0.0,0.0,-1.7031,-1.7213,0.0,0.0,0.0,-2.0454,-2.155,-2.2418,-2.2979,0.0,0.0,0.0,0.0,0.0,0.0,0.0,-3.0381,-3.2465,-3.4042,-3.4723,-3.4322,-3.4028,-3.4255,-3.3935,-3.3507,-3.304,0.0,-3.4549,-3.5044,-3.5057,-3.5244,-3.5859,-3.5378,-3.5418,-3.6954,-3.8157,-3.8985,-3.9212,-3.964,-3.9867,-3.972,-3.9586,-3.9479,-3.9426,-3.8584,-3.7903,-3.8063,-3.8223,-3.8437,-3.8731,-3.8784,-3.8784,-2.001,-1.9637,-1.8131,-1.7697,-1.803,-1.8321,-1.8511,-1.862,-1.862,-1.845,-1.8158,-1.8002,-1.7399,-1.6449,-1.5757,0.0,0.0,-1.689,-1.7507,-1.8186,-1.8464,-1.8654,-1.8776,-1.8782,-1.8782,-1.8782,-1.8769,-1.8776,-1.8769,-1.8369,-1.7874,-1.7311,-1.6503,-1.6334,-1.6809,-1.767,-1.8484,-1.9217,-2.0037,-2.0275,-1.9881,-1.9732,-1.9515,-1.921,-1.9176,-1.904,-1.8776,-1.8613,-1.8409,-1.8111,-1.7019,-1.5859,-1.4672,0.0,0.0,0.0,0.0,0.0,0.0,0.0,0.0,0.0,0.0,0.0,0.0,0.0,0.0,0.0,-2.3549,0.0,-2.6052,-2.6002,0.0,0.0,0.0,-2.6974,-2.8591,-3.0675,-3.2305,-3.3133,0.0,0.0,0.0,0.0,-3.6473,-3.7074,-3.6527,-3.5965,-3.5672,-3.6059,-3.6366,-3.5912,-3.6086,-3.6393,-3.6861,-3.7408,-3.817,-3.9212,-3.988,-4.0014,-4.004,-4.0241,-4.0454,-4.0428,-4.0241,-4.0134,-4.0428,-4.012,-3.9893,-3.9332,-3.9252,-3.9346,-3.9586,-3.9613,-3.9573,-2.075,-2.0648,-2.0261,-1.9766,-1.9257,-1.9427,-1.9461,-1.9393,-1.9393,-1.9162,-1.8769,-1.8613,-1.8342,-1.7989,-1.7819,-1.7941,-1.8308,-1.845,-1.8667,-1.8932,-1.9006,-1.9,-1.8938,-1.8938,-1.8938,-1.8932,-1.8816,-1.8877,-1.9081,-1.8884,-1.8647,-1.8396,-1.8294,-1.7853,-1.7148,-1.7975,-1.8742,-1.9366,-1.9705,-1.9875,-1.9868,-1.9732,-1.9515,-1.921,-1.8979,-1.8837,-1.8762,-1.8613,-1.8498,-1.8409,-1.7616,-1.6714,-1.5744,-1.3763,0.0,0.0,0.0,0.0,0.0,0.0,0.0,0.0,0.0,-1.8394,-1.5314,0.0,-2.2601,0.0,-2.3127,-2.5041,-2.7437,-2.6136,0.0,0.0,-2.9953,-3.0755,-3.3534,-3.4349,-3.4857,-3.5284,-3.6487,-3.7288,-3.7288,-3.7555,-3.805,-3.8811,-3.7288,-3.5965,-3.5698,-3.6326,-3.6954,-3.7261,-3.7716,-3.8277,-3.8718,-3.9212,-3.9573,-3.988,-4.0174,-4.0361,-4.0374,-4.0428,-4.0481,-4.0481,-4.0428,-4.0414,-4.0468,-4.0414,-4.0334,-4.0201,-4.0161,-4.0174,-4.0254,-4.008,-3.9933,-2.1095,-2.1089,-2.1028,-2.075,-2.0349,-2.0295,-2.0153,-1.9963,-1.9956,-1.9739,-1.9366,-1.9156,-1.8972,-1.883,-1.883,-1.8925,-1.9081,-1.9081,-1.9128,-1.9203,-1.9203,-1.9162,-1.9081,-1.9081,-1.9088,-1.9081,-1.9,-1.9074,-1.9291,-1.9223,-1.9176,-1.9169,-1.9312,-1.902,-1.8335,-1.8586,-1.8905,-1.923,-1.9379,-1.9556,-1.9759,-1.9569,-1.9189,-1.8626,-1.8389,-1.8104,-1.7779,-1.7677,-1.7636,-1.7623,-1.7182,-1.6578,-1.5805,-1.4306,-1.3112,0.0,0.0,0.0,0.0,0.0,0.0,0.0,0.0,0.0,0.0,0.0,-2.1566,0.0,0.0,0.0,-2.8024,-2.7521,-2.8291,-3.1363,-3.2807,-3.4389,-3.6567,-3.7034,-3.7261,-3.7422,-3.813,-3.8611,-3.8611,-3.8758,-3.9025,-3.9533,-3.8477,-3.7582,-3.7475,-3.7836,-3.825,-3.8571,-3.8891,-3.9265,-3.9733,-4.004,-4.0227,-4.0241,-4.0361,-4.0481,-4.0481,-4.0481,-4.0481,-4.0481,-4.0481,-4.0481,-4.0481,-4.0481,-4.0481,-4.0481,-4.0481,-4.0481,-4.0468,-4.0348,-4.0227,-2.1299,-2.1285,-2.1163,-2.1163,-2.1218,-2.0967,-2.0682,-2.0383,-2.0363,-2.0187,-1.9888,-1.963,-1.9434,-1.9291,-1.9284,-1.9278,-1.9264,-1.9257,-1.9257,-1.9264,-1.9257,-1.925,-1.923,-1.923,-1.923,-1.923,-1.921,-1.9291,-1.9461,-1.944,-1.9488,-1.9603,-1.9725,-1.9705,-1.9535,-1.9156,-1.8959,-1.8966,-1.9101,-1.9305,-1.9563,-1.9257,-1.8674,-1.7853,-1.7663,-1.7243,-1.6537,-1.653,-1.6551,-1.6551,-1.6456,-1.6164,-1.5649,-1.4753,-1.4,0.0,-1.2752,0.0,0.0,0.0,0.0,0.0,0.0,0.0,0.0,-1.8099,-1.9443,-2.407,-2.5794,-2.6937,-2.802,-2.8544,-2.9653,-3.1201,-3.4532,-3.6853,-3.7205,-3.8464,-3.903,-3.8545,-3.9256,-3.9653,-3.9626,-3.968,-3.972,-3.9813,-3.98,-3.9706,-3.976,-3.9599,-3.9479,-3.964,-3.9693,-3.9813,-4.0054,-4.0294,-4.0468,-4.0468,-4.0468,-4.0481,-4.0481,-4.0481,-4.0481,-4.0481,-4.0481,-4.0481,-4.0481,-4.0481,-4.0481,-4.0481,-4.0481,-4.0481,-4.0481,-4.0468,-4.0481,-2.1753,-2.1753,-2.1726,-2.1597,-2.1394,-2.134,-2.1075,-2.0682,-2.056,-2.0336,-2.0058,-1.9997,-1.9888,-1.9752,-1.9746,-1.9685,-1.9576,-1.9576,-1.9576,-1.9576,-1.9576,-1.9508,-1.9393,-1.9386,-1.9386,-1.9379,-1.9264,-1.9345,-1.9617,-1.9495,-1.9379,-1.9291,-1.9312,-1.9196,0.0,0.0,0.0,0.0,-1.8959,-1.9061,-1.9101,-1.8708,-1.8172,-1.7534,-1.7358,0.0,-1.6402,-1.6585,-1.6707,-1.6714,-1.6802,0.0,0.0,0.0,0.0,0.0,0.0,0.0,0.0,0.0,0.0,0.0,-1.5798,-1.5834,-1.6365,-1.8789,-2.1412,-2.3411,-2.3382,-2.4293,-2.6774,-2.5818,-2.6172,-2.9018,-3.2612,-3.3945,-3.229,-3.6356,-3.8883,-3.6164,-3.8189,-3.9947,-3.996,-4.0147,-4.0401,-4.0575,-4.0855,-4.1002,-4.0976,-4.0201,-3.972,-3.9907,-4.012,-4.0308,-4.0388,-4.0441,-4.0481,-4.0481,-4.0481,-4.0481,-4.0481,-4.0481,-4.0481,-4.0481,-4.0481,-4.0481,-4.0481,-4.0481,-4.0481,-4.0481,-4.0481,-4.0481,-4.0481,-4.0481,-4.0481,-2.1882,0.0,-2.1882,-2.1794,0.0,-2.1584,-2.138,-2.1089,-2.0865,-2.06,-2.0315,-2.0241,-2.0126,-1.9983,-1.9983,-1.9908,-1.9766,-1.9766,-1.9732,-1.9664,-1.9732,-1.9725,-1.9651,-1.9725,-1.9759,-1.9759,-1.9685,-1.9685,-1.9759,-1.9685,-1.9576,-1.9434,-1.9576,-1.9569,-1.9427,-1.9427,-1.9278,-1.8986,-1.9054,-1.9094,-1.9081,-1.8728,-1.8145,-1.7344,0.0,0.0,0.0,0.0,0.0,0.0,0.0,0.0,0.0,0.0,0.0,-1.6266,-1.6076,-1.6117,-1.6469,-1.6646,-1.7114,-1.7996,-1.807,-1.7717,-1.691,-2.0256,-2.2796,-2.3586,-2.3223,-2.3692,-2.5446,-2.4824,-2.4906,-2.6952,-3.0017,-3.2124,-3.2585,-3.3972,-3.5982,-3.7352,-3.7681,-3.8267,-4.0013,-4.0508,-4.0735,-4.0882,-4.1029,-4.1189,-4.1256,-4.0722,-4.0281,-4.0254,-4.0361,-4.0468,-4.0481,-4.0481,-4.0481,-4.0481,-4.0481,-4.0481,-4.0481,-4.0481,-4.0481,-4.0481,-4.0481,-4.0481,-4.0481,-4.0481,-4.0481,-4.0481,-4.0481,-4.0481,-4.0481,-4.0588,-4.0695,-2.1964,-2.1964,-2.1964,-2.195,-2.1909,-2.1767,-2.1604,-2.1421,0.0,0.0,0.0,-2.0431,-2.0288,-2.0146,-2.0146,-2.0058,-1.9915,-1.9915,-1.9847,-1.9746,-1.9861,-1.9915,-1.9922,-2.0044,-2.0098,-2.0098,-2.0098,-2.0037,-1.9915,-1.9915,-1.9854,-1.9766,-1.9983,-2.0098,-2.0098,-2.0098,-1.9841,-1.9345,-1.9217,-1.9149,-1.9115,-1.881,-1.8172,-1.7182,-1.6944,-1.6476,-1.575,-1.5818,-1.592,-1.6008,-1.6117,-1.6293,-1.6571,-1.6768,-1.7121,-1.765,-1.7894,-1.8287,-1.8911,-1.9006,-1.9223,-1.9637,-1.9895,-1.9624,-1.8667,-2.1028,-2.2796,-2.3333,-2.3013,-2.3126,-2.3552,-2.3861,-2.3991,-2.4541,-2.7302,-3.028,-3.1981,-3.1721,-3.2538,-3.6249,-3.5392,-3.6036,-3.9061,-3.9796,-4.0005,-4.0044,-3.9862,-4.0057,-4.0435,-4.051,-4.0735,-4.0508,-4.0468,-4.0481,-4.0481,-4.0548,-4.0548,-4.0575,-4.0615,-4.0615,-4.0561,-4.0548,-4.0535,-4.0481,-4.0481,-4.0481,-4.0481,-4.0481,-4.0481,-4.0481,-4.0481,-4.0481,-4.0508,-4.0708,-4.0869,-2.2269,-2.2276,-2.2276,-2.2201,-2.2072,-2.1916,-2.1692,-2.1408,-2.0994,-2.0783,-2.0729,-2.058,-2.0431,-2.0302,-2.0295,-2.0214,-2.0071,-2.0071,-2.0058,0.0,-2.0058,-2.0064,-2.0071,-2.0092,-2.0098,-2.0098,-2.0098,-2.0092,-2.0071,-2.0071,-2.0058,-2.0044,-2.0078,-2.0098,-2.0098,-2.0098,-1.9997,-1.9773,-1.9278,-1.8959,-1.8823,-1.8403,-1.7812,-1.7066,-1.7107,-1.6781,-1.6062,-1.6517,-1.6741,-1.6646,-1.7121,-1.7473,-1.7643,-1.8016,-1.8403,-1.8755,-1.9149,-1.9481,-1.9705,-1.9963,-2.0248,-2.0546,-2.0621,-2.0363,-1.9732,-2.0317,-2.0696,-2.0738,-2.0809,-2.0686,-2.0762,-2.1104,-2.1182,-2.1498,-2.4388,-2.5424,-2.3779,-2.7542,-2.9899,-2.8798,-2.9904,-3.2786,-3.5826,-3.6785,-3.7025,-3.7217,-3.7205,-3.7133,-3.7531,-3.9162,-4.0544,-4.0561,-4.0481,-4.0481,-4.0495,-4.0695,-4.0788,-4.0842,-4.1029,-4.1069,-4.0842,-4.0802,-4.0748,-4.0535,-4.0495,-4.0481,-4.0481,-4.0481,-4.0481,-4.0481,-4.0481,-4.0508,-4.0495,-4.0708,-4.0842,-2.2289,-2.2228,-2.2303,-2.2249,-2.2099,-2.195,-2.176,-2.1536,-2.117,-2.1007,-2.0987,-2.077,-2.0627,-2.0566,-2.0478,-2.0363,-2.0227,-2.0227,-2.018,-2.0112,-2.0187,-2.0227,-2.0234,-2.0302,-2.0343,-2.0336,-2.0336,-2.0343,-2.0336,-2.0261,-2.0227,-2.0227,-2.0227,-2.0227,-2.0227,-2.0227,-2.0105,-1.9875,-1.9603,-1.9359,-1.9128,-1.8843,-1.8457,-1.7962,-1.7935,-1.7731,-1.7317,-1.7561,-1.7711,-1.7717,-1.8057,-1.8355,-1.8586,-1.9013,-1.9393,-1.9705,-2.0064,-2.0329,-2.0478,-2.0614,-2.075,-2.0885,-2.0899,-2.075,-2.039,-2.0275,-2.0254,-2.0329,-2.0343,-2.0363,-2.0431,-2.0499,-2.0539,-2.0539,-2.2193,-2.3011,-2.3483,-2.4149,-2.6279,-2.7895,-2.8176,-2.95,-3.2793,-3.3491,-3.3675,-3.3794,-3.3805,-3.4381,-3.5434,-3.5613,-3.678,-3.9792,-4.0481,-4.0481,-4.0495,-4.0722,-4.0829,-4.0708,-4.1056,-4.1176,-4.0976,-4.0909,-4.0855,-4.0735,-4.0588,-4.0495,-4.0481,-4.0481,-4.0481,-4.0495,-4.0628,-4.0642,-4.0575,-4.0708,-4.0895,-2.2269,-2.2174,-2.2289,-2.2249,-2.2099,-2.1984,-2.1835,-2.1652,-2.1414,-2.1299,-2.1224,-2.0919,-2.077,-2.0756,-2.0607,-2.0478,-2.0383,-2.0376,-2.0315,-2.022,-2.0322,-2.0397,-2.0438,-2.0546,-2.0607,-2.0641,-2.0648,-2.0648,-2.0634,-2.0532,-2.0478,-2.0478,-2.0444,-2.0424,-2.0431,-2.0397,-2.0248,-1.9997,-1.9976,-1.98,-1.9447,-1.9345,-1.9162,-1.8884,-1.8816,-1.8721,-1.8586,-1.8606,-1.8674,-1.8782,-1.8932,-1.9135,-1.9393,-1.9793,-2.0159,-2.0458,-2.0722,-2.0939,-2.1075,-2.1068,-2.1062,-2.1095,-2.1068,-2.1001,-2.0872,-2.0634,-2.0492,-2.0526,-2.0438,-2.0431,-2.0512,-2.0539,-2.0553,-2.0594,-2.0729,-2.184,-2.3877,-2.2521,-2.2876,-2.7701,-2.6408,-2.6167,-2.9039,-3.0141,-3.0209,-3.0209,-3.0505,-3.1382,-3.298,-3.1881,-3.3328,-3.6329,-3.8227,-3.797,-3.8252,-3.8271,-3.8372,-3.8441,-3.8635,-3.8324,-3.82,-3.8585,-3.8485,-3.8162,-3.8038,-3.8429,-3.9099,-3.933,-3.9626,-4.0207,-4.0815,-4.0815,-4.0655,-4.0829,-4.1096,-2.233,-2.2323,-2.2337,-2.2249,-2.212,-2.2093,-2.193,-2.1686,-2.1638,-2.1543,-2.1374,-2.096,-2.0783,-2.075,-2.0614,-2.0539,-2.0526,-2.0519,-2.0512,-2.0505,-2.0519,-2.0594,-2.0716,-2.0743,-2.0824,-2.0933,-2.0946,-2.0933,-2.0946,-2.0933,-2.0926,-2.0919,-2.0804,-2.0729,-2.0716,-2.0594,-2.0444,-2.0288,-2.0288,-2.001,-1.9474,-1.9556,-1.9474,-1.9176,-1.942,-1.9488,-1.9318,-1.9461,-1.9542,-1.9569,-1.9685,-1.9841,-2.0024,-2.0309,-2.0621,-2.0912,-2.1082,-2.1238,-2.1374,-2.1272,-2.1258,-2.1374,-2.1265,-2.1184,-2.1157,-2.1021,-2.0817,-2.0627,-2.0546,-2.0546,-2.0539,-2.0553,-2.0621,-2.0743,-2.0885,-2.124,-2.1527,-2.1487,-2.1604,-2.1984,-2.25,-2.3045,-2.6261,-2.6975,-2.6889,-2.7425,-2.7252,-2.7433,-2.8022,-2.8993,-2.9977,-3.1163,-3.1526,-3.1526,-3.2053,-3.1881,-3.2814,-3.2626,-3.2742,-3.3359,-3.3496,-3.3145,-3.2361,-3.3809,-3.275,-3.3765,-3.54,-3.6334,-3.7173,-3.8783,-3.9784,-4.0418,-4.0663,-4.0343,-4.0383,-2.2344,-2.2344,-2.2344,-2.2303,-2.2235,-2.2154,-2.1991,-2.1801,-2.1706,-2.1584,-2.1421,-2.115,-2.0987,-2.0899,-2.0743,-2.0682,-2.0682,-2.0675,-2.0729,-2.0804,-2.0811,-2.0851,-2.0899,-2.0912,-2.0939,-2.0994,-2.1001,-2.1041,-2.1116,-2.1129,-2.1082,-2.1007,-2.0933,-2.0912,-2.0899,-2.0845,-2.0695,-2.0465,-2.0451,-2.0295,-2.0003,-1.9936,-1.9861,-1.9759,-1.9861,-1.9895,-1.9841,-1.9888,-1.9963,-2.0058,-2.0193,-2.0336,-2.0492,-2.0858,-2.1129,-2.1265,-2.1482,-2.1631,-2.1699,-2.1564,-2.1509,-2.1577,-2.1435,-2.1346,-2.134,-2.1211,-2.1062,-2.096,-2.0865,-2.0777,-2.0702,-2.0756,-2.0845,-2.0912,-2.1034,-2.1157,-2.1258,-2.1367,-2.1441,-2.1469,-2.1482,-2.1986,-2.3266,-2.3471,-2.4461,-2.5477,-2.4978,-2.4053,-2.566,-2.561,-2.5014,-2.4909,-2.4868,-2.6774,-2.9394,-3.1008,-3.0936,-3.0896,-3.1453,-3.1736,-3.1059,-3.1503,-3.1422,-3.0986,-3.0457,-3.0936,-3.2583,-3.3066,-3.3612,-3.5473,-3.5222,-3.5153,-3.545,-3.5484,-3.5576,-2.2344,-2.2344,-2.2344,-2.2344,-2.233,-2.2221,-2.2065,-2.1882,-2.1774,-2.1625,-2.1435,-2.1319,-2.1197,-2.1048,-2.0899,-2.0838,-2.0838,-2.0838,-2.0892,-2.0994,-2.1001,-2.1021,-2.1055,-2.1062,-2.1082,-2.1116,-2.1129,-2.1177,-2.1265,-2.1272,-2.1218,-2.1129,-2.1082,-2.1062,-2.1055,-2.1028,-2.0892,-2.0695,-2.0668,-2.0614,-2.0512,-2.0404,-2.0329,-2.0295,-2.0329,-2.0329,-2.0288,-2.0322,-2.0376,-2.0451,-2.0587,-2.0756,-2.0953,-2.1265,-2.1475,-2.157,-2.176,-2.1882,-2.1882,-2.1787,-2.1733,-2.172,-2.1618,-2.1564,-2.1536,-2.1428,-2.1319,-2.1258,-2.1177,-2.1048,-2.0878,-2.0933,-2.1014,-2.1055,-2.1184,-2.1333,-2.1475,-2.1502,-2.1584,-2.1747,-2.1699,-2.1631,-2.153,-2.1762,-2.2537,-2.4299,-2.29,-2.1763,-2.4053,-2.292,-2.1308,-2.1014,-2.1028,-2.2972,-2.6992,-2.7795,-2.8443,-2.8415,-2.812,-2.8149,-2.8783,-2.8515,-2.8442,-2.6544,-2.779,-2.9029,-2.9494,-2.974,-3.0251,-3.0761,-3.1026,-3.1096,-3.2334,-3.1564,-3.1574,-2.2344,-2.2344,-2.2344,-2.2344,-2.2337,-2.233,-2.2154,-2.1882,-2.1869,-2.1706,-2.1462,-2.1428,-2.1346,-2.1197,-2.1062,-2.0994,-2.0987,-2.0994,-2.1001,-2.1028,-2.1021,-2.1082,-2.1197,-2.1204,-2.1272,-2.1374,-2.1374,-2.1394,-2.1421,-2.1421,-2.1428,-2.1401,-2.1272,-2.1204,-2.119,-2.1089,-2.1001,-2.0967,-2.096,-2.0967,-2.096,-2.0946,-2.0865,-2.077,-2.0872,-2.0851,-2.0763,-2.0872,-2.0892,-2.0756,-2.0899,-2.1109,-2.1367,-2.1435,-2.1584,-2.1828,-2.1882,-2.1896,-2.1903,-2.1889,-2.1876,-2.1869,-2.1848,-2.1855,-2.1835,-2.1713,-2.1577,-2.1448,-2.1421,-2.1292,-2.1055,-2.1034,-2.1095,-2.1211,-2.134,-2.1489,-2.1652,-2.1672,-2.1794,-2.1964,-2.1842,-2.1699,-2.1665,-2.1658,-2.1577,-2.2007,-2.1428,-2.1638,-2.1784,-2.1473,-2.1157,-2.1095,-2.1102,-2.1356,-2.1367,-2.3046,-2.2652,-2.2868,-2.3738,-2.2731,-2.1951,-2.1937,-2.2117,-2.2331,-2.3134,-2.4407,-2.5876,-2.7122,-2.7898,-2.8664,-2.9437,-3.0038,-2.9089,-3.0535,-3.0296,-2.2344,-2.2344,-2.2344,-2.2344,-2.2344,-2.2344,-2.2167,-2.1889,-2.1882,-2.1713,-2.1475,-2.1441,-2.1408,-2.1353,-2.1306,-2.1231,-2.1136,-2.1136,-2.119,-2.1272,-2.1279,-2.1313,-2.1353,-2.136,-2.138,-2.1428,-2.1441,-2.1441,-2.1441,-2.1441,-2.1441,-2.1435,-2.1387,-2.136,-2.1353,-2.1313,-2.1238,-2.115,-2.1136,-2.1136,-2.1136,-2.1136,-2.115,-2.119,-2.1068,-2.0973,-2.0919,-2.0973,-2.1014,-2.1048,-2.1197,-2.1374,-2.1577,-2.1767,-2.1957,-2.2147,-2.2174,-2.2174,-2.216,-2.2079,-2.2032,-2.2025,-2.1937,-2.1937,-2.1984,-2.1896,-2.1781,-2.172,-2.1631,-2.1496,-2.1346,-2.1279,-2.134,-2.1475,-2.1557,-2.1686,-2.1862,-2.1876,-2.1889,-2.2032,-2.193,-2.1815,-2.1774,-2.1726,-2.1611,-2.1475,-2.1441,-2.1408,-2.1374,-2.1353,-2.1326,-2.1299,-2.1319,-2.1285,-2.1095,-2.1123,-2.1177,-2.1109,-2.1418,-2.1847,-2.1387,-2.1428,-2.1895,-2.1881,-2.1421,-2.1672,-2.3914,-2.3914,-2.4962,-2.497,-2.6008,-2.6505,-2.4994,-2.6505,-2.6,-2.2344,-2.2344,-2.2344,-2.2344,-2.233,-2.2289,-2.212,-2.1889,-2.1835,-2.1699,-2.153,-2.1469,-2.1469,-2.1496,-2.1462,-2.1394,-2.1292,-2.1285,-2.1346,-2.1435,-2.1441,-2.1441,-2.1441,-2.1441,-2.1441,-2.1441,-2.1441,-2.1441,-2.1441,-2.1441,-2.1441,-2.1441,-2.1441,-2.1441,-2.1441,-2.1441,-2.138,-2.1299,-2.1285,-2.1285,-2.1285,-2.1285,-2.1333,-2.1394,-2.1245,-2.1116,-2.1075,-2.1116,-2.1184,-2.1292,-2.1435,-2.1604,-2.1808,-2.2045,-2.2228,-2.2323,-2.2337,-2.2344,-2.233,-2.2242,-2.2188,-2.2181,-2.2099,-2.2079,-2.2167,-2.2045,-2.1971,-2.1923,-2.1821,-2.1686,-2.1618,-2.1584,-2.1611,-2.1672,-2.1713,-2.1842,-2.2065,-2.1971,-2.1909,-2.1943,-2.1971,-2.1916,-2.1828,-2.1774,-2.1652,-2.1469,-2.1441,-2.1441,-2.1441,-2.1441,-2.1441,-2.1435,-2.1421,-2.1353,-2.1218,-2.119,-2.1211,-2.1157,-2.119,-2.1313,-2.1387,-2.1421,-2.1441,-2.1441,-2.1441,-2.1441,-2.1441,-2.1441,-2.1441,-2.1441,-2.2202,-2.3478,-2.2459,-2.1951,-2.2452,-2.2344,-2.2344,-2.2344,-2.2344,-2.2323,-2.2194,-2.2032,-2.1882,-2.1747,-2.1672,-2.1625,-2.1516,-2.1536,-2.1611,-2.1523,-2.1448,-2.1421,-2.1414,-2.1421,-2.1441,-2.1441,-2.1441,-2.1441,-2.1441,-2.1455,-2.1462,-2.1441,-2.1448,-2.1462,-2.1448,-2.1441,-2.1441,-2.1441,-2.1441,-2.1441,-2.1441,-2.1441,-2.1421,-2.1414,-2.1428,-2.1441,-2.1428,-2.1428,-2.1455,-2.1435,-2.136,-2.1231,-2.1353,-2.1435,-2.1469,-2.1604,-2.1815,-2.2065,-2.2242,-2.2337,-2.2337,-2.2344,-2.2344,-2.2344,-2.233,-2.2316,-2.2316,-2.2316,-2.2296,-2.2283,-2.2194,-2.2106,-2.2065,-2.1971,-2.1869,-2.1855,-2.1842,-2.1808,-2.172,-2.1808,-2.193,-2.2052,-2.1991,-2.1835,-2.1787,-2.1923,-2.1964,-2.1794,-2.176,-2.1713,-2.1509,-2.1441,-2.1441,-2.1441,-2.1441,-2.1441,-2.1441,-2.1428,-2.138,-2.1292,-2.1211,-2.1211,-2.1218,-2.1292,-2.138,-2.1408,-2.1441,-2.1441,-2.1441,-2.1441,-2.1441,-2.1441,-2.1441,-2.1441,-2.1441,-2.1441,-2.1428,-2.1435,-2.1435,-2.1421,-2.2344,-2.2344,-2.2344,-2.2344,-2.2316,-2.2174,-2.2025,-2.1876,-2.1733,-2.1672,-2.1658,-2.1618,-2.1625,-2.1652,-2.1611,-2.1543,-2.1448,-2.1441,-2.1441,-2.1448,-2.1441,-2.1441,-2.1441,-2.1441,-2.1496,-2.1564,-2.1489,-2.1496,-2.1564,-2.1489,-2.1441,-2.1441,-2.1441,-2.1441,-2.1441,-2.1441,-2.1441,-2.1441,-2.1441,-2.1489,-2.1577,-2.1496,-2.1496,-2.1584,-2.1597,-2.1577,-2.1536,-2.1577,-2.1645,-2.1733,-2.1889,-2.2065,-2.2235,-2.231,-2.2344,-2.2344,-2.2344,-2.2344,-2.2344,-2.2344,-2.2344,-2.2344,-2.2344,-2.2344,-2.2337,-2.2296,-2.2215,-2.214,-2.2059,-2.2004,-2.1909,-2.1882,-2.1909,-2.1971,-2.1923,-2.1991,-2.2188,-2.2208,-2.2079,-2.1889,-2.1991,-2.1964,-2.176,-2.1726,-2.1665,-2.1489,-2.1441,-2.1441,-2.1441,-2.1441,-2.1441,-2.1441,-2.1421,-2.1401,-2.1313,-2.1258,-2.1258,-2.1245,-2.1299,-2.138,-2.1414,-2.1441,-2.1441,-2.1441,-2.1441,-2.1441,-2.1441,-2.1441,-2.1441,-2.1408,-2.138,-2.1387,-2.1414,-2.1421,-2.1408,-2.2344,-2.2344,-2.2344,-2.2344,-2.2323,-2.2174,-2.2025,-2.1882,-2.1794,-2.1753,-2.1753,-2.1753,-2.1781,-2.1801,-2.172,-2.1652,-2.1604,-2.1557,-2.1557,-2.1584,-2.1536,-2.1502,-2.1448,-2.1441,-2.1523,-2.1618,-2.1516,-2.1523,-2.1658,-2.1523,-2.1441,-2.1441,-2.1441,-2.1441,-2.1441,-2.1441,-2.1441,-2.1448,-2.1502,-2.1577,-2.1645,-2.1631,-2.1652,-2.1733,-2.1747,-2.1781,-2.1821,-2.1835,-2.1876,-2.1977,-2.2113,-2.2242,-2.233,-2.2344,-2.2344,-2.2344,-2.2344,-2.2344,-2.2344,-2.2344,-2.2344,-2.2344,-2.2344,-2.2344,-2.2337,-2.2344,-2.2289,-2.2221,-2.2194,-2.2154,-2.2079,-2.2052,-2.2099,-2.2181,-2.2059,-2.2059,-2.2228,-2.2255,-2.2113,-2.1909,-2.1923,-2.1855,-2.1679,-2.1645,-2.1597,-2.1482,-2.1441,-2.1441,-2.1441,-2.1441,-2.1441,-2.1441,-2.1435,-2.1394,-2.1326,-2.1306,-2.1306,-2.1285,-2.1272,-2.1346,-2.1408,-2.1428,-2.1441,-2.1441,-2.1441,-2.1441,-2.1441,-2.1441,-2.1435,-2.138,-2.1353,-2.1394,-2.1428,-2.1394,-2.1387,-2.2344,-2.2344,-2.2344,-2.2344,-2.2323,-2.2181,-2.2038,-2.1916,-2.1876,-2.1882,-2.1889,-2.1896,-2.1964,-2.2018,-2.1842,-2.1781,-2.1835,-2.174,-2.1733,-2.1787,-2.1733,-2.1618,-2.1496,-2.1482,-2.1564,-2.1658,-2.183,-2.183,-2.1658,-2.1543,-2.1441,-2.1441,-2.1441,-2.1441,-2.1441,-2.1441,-2.1475,-2.1496,-2.1611,-2.1692,-2.172,-2.1801,-2.1876,-2.1896,-2.1896,-2.195,-2.2045,-2.2086,-2.2113,-2.214,-2.2255,-2.2323,-2.2344,-2.2344,-2.2344,-2.2364,-2.235,-2.2357,-2.235,-2.2344,-2.2344,-2.2344,-2.2344,-2.2344,-2.2344,-2.2337,-2.2337,-2.2316,-2.2316,-2.2323,-2.231,-2.2303,-2.231,-2.2316,-2.2201,-2.214,-2.2099,-2.212,-2.2025,-2.1801,-2.1781,-2.1774,-2.1516,-2.157,-2.1557,-2.1489,-2.1441,-2.1441,-2.1441,-2.1441,-2.1441,-2.1441,-2.1441,-2.138,-2.1313,-2.1285,-2.1285,-2.1265,-2.1258,-2.1326,-2.1401,-2.1428,-2.1441,-2.1441,-2.1448,-2.1448,-2.1441,-2.1441,-2.1441,-2.1414,-2.1414,-2.1435,-2.1414,-2.138,-2.1387,-2.2344,-2.2344,-2.2344,-2.2344,-2.2316,-2.2174,-2.2093,-2.2038,-2.193,-2.1957,-2.2025,-2.2052,-2.2072,-2.2093,-2.2032,-2.1964,-2.1903,-2.1848,-2.1835,-2.1869,-2.1848,-2.1747,-2.1631,-2.1344,-2.1686,-2.1801,-2.1767,-2.1733,-2.1672,-2.1625,-2.155,-2.1441,-2.1441,-2.1441,-2.1448,-2.155,-2.1604,-2.1631,-2.1753,-2.1889,-2.1957,-2.1916,-2.1943,-2.2045,-2.2052,-2.2072,-2.2127,-2.2221,-2.2276,-2.2283,-2.231,-2.2344,-2.2357,-2.2364,-2.2405,-2.2472,-2.2411,-2.2398,-2.2459,-2.2405,-2.235,-2.2344,-2.2371,-2.2344,-2.2344,-2.2344,-2.2344,-2.2344,-2.2344,-2.2344,-2.2344,-2.2344,-2.2344,-2.2337,-2.2289,-2.2188,-2.2059,-2.2133,-2.2127,-2.1781,-2.1815,-2.172,-2.1543,-2.1475,-2.1496,-2.1455,-2.1441,-2.1441,-2.1441,-2.1441,-2.1441,-2.1441,-2.1421,-2.136,-2.1306,-2.1272,-2.1252,-2.1238,-2.1258,-2.1313,-2.1387,-2.1441,-2.1441,-2.1441,-2.1482,-2.1489,-2.1455,-2.1441,-2.1441,-2.1441,-2.138,-2.136,-2.138,-2.1367,-2.1394,-2.2344,-2.2344,-2.2344,-2.2344,-2.233,-2.2249,-2.2174,-2.212,-2.2093,-2.2079,-2.2127,-2.2181,-2.2208,-2.2201,-2.214,-2.2106,-2.2072,-2.2004,-2.2018,-2.2065,-2.2011,-2.1896,-2.1794,-2.176,-2.1835,-2.1957,-2.1916,-2.1876,-2.1835,-2.174,-2.1625,-2.1543,-2.1475,-2.1475,-2.155,-2.1618,-2.1706,-2.1774,-2.1903,-2.2032,-2.2093,-2.2093,-2.2127,-2.2194,-2.2208,-2.2228,-2.2296,-2.2384,-2.2432,-2.2432,-2.2432,-2.2459,-2.252,-2.2527,-2.2567,-2.2642,-2.2567,-2.2567,-2.2615,-2.2567,-2.2534,-2.2527,-2.2527,-2.2486,-2.2452,-2.2432,-2.2418,-2.235,-2.2344,-2.2344,-2.2344,-2.2344,-2.2344,-2.2337,-2.2344,-2.2269,-2.2086,-2.2235,-2.214,-2.1909,-2.1815,-2.1774,-2.1482,-2.1448,-2.1441,-2.1441,-2.1441,-2.1441,-2.1441,-2.1441,-2.1455,-2.1475,-2.1475,-2.1428,-2.1408,-2.1387,-2.1387,-2.1353,-2.1401,-2.1428,-2.1441,-2.1502,-2.1489,-2.1496,-2.1516,-2.1516,-2.1469,-2.1441,-2.1441,-2.1408,-2.1333,-2.1367,-2.1435,-2.1475,-2.1482,-2.2344,-2.2344,-2.2344,-2.2344,-2.2344,-2.2337,-2.2255,-2.2181,-2.2255,-2.2249,-2.2194,-2.2283,-2.2316,-2.233,-2.2208,-2.2208,-2.2316,-2.2181,-2.2194,-2.2215,-2.2167,-2.2052,-2.1923,-2.1909,-2.1971,-2.2065,-2.1971,-2.1984,-2.1971,-2.1808,-2.1726,-2.1679,-2.1564,-2.1577,-2.1679,-2.1726,-2.1794,-2.1909,-2.2059,-2.2133,-2.2174,-2.2235,-2.2289,-2.2303,-2.231,-2.2384,-2.2479,-2.2547,-2.2561,-2.2608,-2.2588,-2.2642,-2.2751,-2.2771,-2.2791,-2.2784,-2.2771,-2.2757,-2.2791,-2.2771,-2.2757,-2.2744,-2.2751,-2.273,-2.2601,-2.2554,-2.2486,-2.2398,-2.235,-2.2344,-2.2344,-2.2344,-2.2344,-2.2344,-2.2344,-2.2344,-2.2344,-2.2337,-2.2228,-2.1964,-2.1909,-2.1767,-2.1577,-2.1462,-2.1462,-2.1441,-2.1448,-2.1469,-2.1489,-2.1523,-2.1543,-2.157,-2.155,-2.1523,-2.1516,-2.1509,-2.1523,-2.1536,-2.1611,-2.1638,-2.1591,-2.1611,-2.1577,-2.1577,-2.1591,-2.1536,-2.1455,-2.1441,-2.1469,-2.1502,-2.1509,-2.1577,-2.1645,-2.1658,-2.1665,-2.2344,-2.2344,-2.2344,-2.2344,-2.2344,-2.2344,-2.2323,-2.2289,-2.2323,-2.2316,-2.2303,-2.233,-2.2344,-2.2337,-2.2296,-2.231,-2.2337,-2.2289,-2.2262,-2.216,-2.2269,-2.2194,-2.2086,-2.2059,-2.2079,-2.2127,-2.2208,-2.2133,-2.1991,-2.1991,-2.195,-2.1835,-2.1787,-2.1801,-2.1842,-2.1937,-2.2025,-2.2086,-2.2208,-2.2276,-2.2276,-2.231,-2.2344,-2.2344,-2.235,-2.2418,-2.252,-2.2554,-2.2669,-2.2818,-2.2812,-2.2778,-2.2805,-2.2805,-2.2852,-2.2913,-2.2859,-2.2846,-2.2913,-2.2866,-2.2784,-2.2812,-2.2818,-2.2771,-2.2737,-2.2628,-2.2561,-2.2486,-2.2411,-2.2357,-2.2344,-2.2344,-2.2344,-2.2344,-2.2344,-2.2344,-2.2344,-2.2344,-2.2249,-2.2113,-2.2045,-2.195,-2.1665,-2.1611,-2.1564,-2.1475,-2.1469,-2.1502,-2.155,-2.1597,-2.1645,-2.1686,-2.1692,-2.1679,-2.1679,-2.1672,-2.1672,-2.1699,-2.1781,-2.1835,-2.1787,-2.1787,-2.1787,-2.1726,-2.1652,-2.1597,-2.1564,-2.157,-2.1625,-2.1658,-2.1692,-2.1753,-2.1808,-2.1821,-2.1869,-2.2344,-2.2344,-2.2344,-2.2344,-2.2344,-2.2344,-2.2344,-2.2344,-2.2344,-2.2344,-2.2344,-2.2344,-2.2344,-2.2344,-2.2344,-2.2337,-2.2344,-2.2337,-2.2296,-2.2249,-2.2303,-2.2289,-2.2242,-2.2215,-2.2215,-2.2228,-2.2289,-2.2221,-2.2147,-2.2093,-2.2059,-2.1984,-2.1923,-2.1916,-2.1984,-2.2079,-2.2147,-2.2215,-2.2289,-2.2344,-2.2344,-2.2344,-2.2344,-2.2364,-2.2405,-2.2506,-2.2649,-2.2737,-2.2886,-2.3022,-2.3029,-2.2981,-2.2988,-2.2981,-2.3029,-2.3069,-2.3049,-2.3015,-2.3063,-2.3042,-2.2995,-2.2981,-2.2981,-2.294,-2.29,-2.2805,-2.269,-2.2581,-2.2479,-2.2418,-2.235,-2.2344,-2.2344,-2.2344,-2.2344,-2.2344,-2.2344,-2.2337,-2.2283,-2.216,-2.2099,-2.1943,-2.1794,-2.1733,-2.1611,-2.1496,-2.157,-2.1611,-2.1638,-2.1692,-2.1774,-2.1815,-2.1842,-2.1848,-2.1848,-2.1842,-2.1828,-2.1862,-2.1916,-2.1964,-2.1971,-2.1991,-2.2025,-2.1916,-2.1794,-2.1794,-2.1774,-2.1781,-2.1767,-2.1787,-2.1828,-2.1903,-2.1957,-2.1984,-2.2052,-2.2344,-2.2344,-2.2344,-2.2344,-2.2344,-2.2344,-2.2344,-2.2344,-2.2344,-2.2344,-2.2344,-2.2344,-2.2344,-2.2344,-2.2344,-2.2344,-2.2344,-2.2344,-2.2323,-2.2323,-2.233,-2.233,-2.2316,-2.2316,-2.2316,-2.2344,-2.2337,-2.2316,-2.2283,-2.2221,-2.2167,-2.2127,-2.2032,-2.2052,-2.2133,-2.2154,-2.2208,-2.231,-2.233,-2.2344,-2.2344,-2.2344,-2.2344,-2.2364,-2.2472,-2.2601,-2.2751,-2.2893,-2.3063,-2.3205,-2.3219,-2.3219,-2.3219,-2.3219,-2.3219,-2.3212,-2.3185,-2.3185,-2.3185,-2.3191,-2.3191,-2.3219,-2.3212,-2.3158,-2.3063,-2.2988,-2.2866,-2.2717,-2.2588,-2.2479,-2.2364,-2.2344,-2.2344,-2.2344,-2.2344,-2.2344,-2.2344,-2.2344,-2.2276,-2.2201,-2.2174,-2.2065,-2.1909,-2.1808,-2.1665,-2.157,-2.1652,-2.172,-2.176,-2.1821,-2.1916,-2.2004,-2.2052,-2.2065,-2.2065,-2.2052,-2.2032,-2.2025,-2.2072,-2.2099,-2.2133,-2.216,-2.2154,-2.2038,-2.1957,-2.195,-2.193,-2.1909,-2.1903,-2.1909,-2.1984,-2.2079,-2.212,-2.214,-2.2201,-2.2344,-2.2344,-2.2344,-2.2344,-2.2344,-2.2344,-2.2344,-2.2344,-2.2344,-2.2344,-2.2344,-2.2344,-2.2344,-2.2344,-2.2344,-2.2344,-2.2344,-2.2344,-2.2344,-2.2344,-2.2344,-2.2344,-2.2344,-2.2344,-2.2344,-2.2344,-2.2344,-2.2344,-2.2337,-2.231,-2.2276,-2.2289,-2.2255,-2.2269,-2.2269,-2.2303,-2.2289,-2.233,-2.2344,-2.2344,-2.2344,-2.2344,-2.2344,-2.2357,-2.2479,-2.2628,-2.2778,-2.2927,-2.3076,-2.3198,-2.3219,-2.3219,-2.3219,-2.3219,-2.3219,-2.3219,-2.3219,-2.3219,-2.3219,-2.3219,-2.3219,-2.3219,-2.3219,-2.3225,-2.3164,-2.3083,-2.2974,-2.2859,-2.2662,-2.2493,-2.2357,-2.2344,-2.2344,-2.2344,-2.2344,-2.235,-2.235,-2.2344,-2.233,-2.2276,-2.2262,-2.2221,-2.2052,-2.1923,-2.1842,-2.1767,-2.1801,-2.1889,-2.195,-2.2018,-2.2106,-2.2194,-2.2283,-2.2283,-2.2283,-2.2269,-2.2249,-2.2221,-2.2242,-2.2235,-2.2269,-2.2296,-2.2262,-2.2147,-2.2079,-2.2052,-2.2038,-2.2038,-2.2052,-2.2072,-2.216,-2.2255,-2.2249,-2.2242,-2.2262,-2.2344,-2.2344,-2.2344,-2.2344,-2.2344,-2.2344,-2.2344,-2.2344,-2.2344,-2.2344,-2.2344,-2.2344,-2.2344,-2.2344,-2.2344,-2.2344,-2.2344,-2.2344,-2.2344,-2.2344,-2.2344,-2.2344,-2.2344,-2.2344,-2.2344,-2.2344,-2.2344,-2.2344,-2.2344,-2.2337,-2.2344,-2.2337,-2.2344,-2.2344,-2.2344,-2.2337,-2.2344,-2.2344,-2.2344,-2.2344,-2.2344,-2.2344,-2.2344,-2.2378,-2.2486,-2.2628,-2.2778,-2.2927,-2.3076,-2.3191,-2.3219,-2.3219,-2.3219,-2.3219,-2.3219,-2.3219,-2.3219,-2.3219,-2.3219,-2.3225,-2.3253,-2.332,-2.3273,-2.3273,-2.328,-2.3212,-2.3063,-2.2886,-2.2717,-2.2493,-2.2357,-2.235,-2.2378,-2.2418,-2.2398,-2.2391,-2.2411,-2.2384,-2.2371,-2.2364,-2.233,-2.2262,-2.214,-2.2045,-2.2011,-2.1991,-2.1977,-2.2038,-2.212,-2.2181,-2.2242,-2.2276,-2.2337,-2.2337,-2.2337,-2.2337,-2.2344,-2.2344,-2.2344,-2.2344,-2.2344,-2.2337,-2.2323,-2.2255,-2.2208,-2.216,-2.2194,-2.2208,-2.2221,-2.2221,-2.2262,-2.2303,-2.2323,-2.2337,-2.2344,-2.2344,-2.2344,-2.2344,-2.2357,-2.2378,-2.235,-2.2357,-2.2371,-2.235,-2.2344,-2.2344,-2.2344,-2.2344,-2.2344,-2.2344,-2.2344,-2.2344,-2.2344,-2.2344,-2.2344,-2.2344,-2.2344,-2.2344,-2.2344,-2.2344,-2.2344,-2.2344,-2.2344,-2.2344,-2.2344,-2.2344,-2.2344,-2.2344,-2.2344,-2.2344,-2.2344,-2.2344,-2.2344,-2.2344,-2.2344,-2.2344,-2.2344,-2.2364,-2.2398,-2.252,-2.2676,-2.2839,-2.2995,-2.311,-2.3191,-2.3219,-2.3219,-2.3219,-2.3219,-2.3219,-2.3219,-2.3219,-2.3232,-2.3266,-2.3225,-2.328,-2.3402,-2.33,-2.3307,-2.332,-2.3246,-2.311,-2.2866,-2.2696,-2.2554,-2.2439,-2.2384,-2.2439,-2.25,-2.2486,-2.2466,-2.254,-2.2534,-2.2459,-2.2439,-2.2391,-2.2316,-2.2215,-2.2188,-2.216,-2.2147,-2.2133,-2.214,-2.2221,-2.2262,-2.2303,-2.2316,-2.2344,-2.2337,-2.2344,-2.2344,-2.2344,-2.2344,-2.2344,-2.2344,-2.2344,-2.2344,-2.2323,-2.231,-2.231,-2.2276,-2.233,-2.2344,-2.2303,-2.2296,-2.233,-2.2344,-2.2344,-2.2344,-2.2344,-2.2344,-2.2344,-2.2344,-2.2411,-2.2486,-2.2391,-2.2411,-2.2493,-2.2384,-2.2344,-2.2344,-2.2344,-2.2344,-2.2344,-2.2344,-2.2344,-2.2344,-2.2344,-2.2344,-2.2344,-2.2344,-2.2344,-2.2344,-2.2344,-2.2344,-2.2344,-2.2344,-2.2344,-2.2344,-2.2344,-2.2344,-2.2344,-2.2344,-2.2344,-2.2344,-2.2344,-2.2344,-2.2344,-2.2344,-2.2344,-2.235,-2.235,-2.2405,-2.2534,-2.2649,-2.2798,-2.2934,-2.3076,-2.3178,-2.3205,-2.3219,-2.3219,-2.3219,-2.3219,-2.3219,-2.3219,-2.3232,-2.328,-2.3347,-2.3286,-2.3286,-2.3388,-2.3307,-2.3253,-2.3253,-2.3253,-2.3151,-2.3008,-2.2846,-2.2696,-2.2567,-2.2534,-2.2547,-2.2595,-2.2649,-2.2683,-2.2737,-2.2662,-2.2595,-2.2513,-2.2472,-2.2405,-2.2316,-2.2316,-2.231,-2.2303,-2.2296,-2.2289,-2.2296,-2.2323,-2.2337,-2.2344,-2.2344,-2.2344,-2.2344,-2.2344,-2.2344,-2.2344,-2.2344,-2.2344,-2.2344,-2.2344,-2.2344,-2.2337,-2.2344,-2.2344,-2.2344,-2.2344,-2.2344,-2.2344,-2.2344,-2.2344,-2.2344,-2.2344,-2.2344,-2.2459,-2.2452,-2.2371,-2.2371,-2.2418,-2.2364,-2.2371,-2.2411,-2.2371,-2.2344,-2.2344,-2.2344,-2.2344,-2.2344,-2.2344,-2.2344,-2.2344,-2.2344,-2.2344,-2.2344,-2.2344,-2.2344,-2.2344,-2.2344,-2.2344,-2.2344,-2.2344,-2.2344,-2.2344,-2.2344,-2.2344,-2.2344,-2.2344,-2.2344,-2.2344,-2.2344,-2.2344,-2.2344,-2.2344,-2.2384,-2.2418,-2.2405,-2.2452,-2.2662,-2.2669,-2.2798,-2.2974,-2.3056,-2.3151,-2.3191,-2.3219,-2.3219,-2.3198,-2.3158,-2.3124,-2.3212,-2.3137,-2.3171,-2.328,-2.3253,-2.3314,-2.3368,-2.3314,-2.3225,-2.3219,-2.3212,-2.3164,-2.3022,-2.2954,-2.2839,-2.2723,-2.2683,-2.2744,-2.2784,-2.2805,-2.2852,-2.2866,-2.2784,-2.271,-2.2628,-2.2547,-2.2466,-2.2391,-2.2344,-2.233,-2.2323,-2.2316,-2.2316,-2.2323,-2.233,-2.2344,-2.2344,-2.2344,-2.2344,-2.2344,-2.2344,-2.2344,-2.2344,-2.2344,-2.2344,-2.2344,-2.2344,-2.2344,-2.2344,-2.2344,-2.2344,-2.2344,-2.2344,-2.2344,-2.2344,-2.2344,-2.2344,-2.2344,-2.2344,-2.2344,-2.2642,-2.2595,-2.2418,-2.2357,-2.2384,-2.235,-2.2364,-2.2398,-2.2398,-2.2378,-2.2344,-2.2344,-2.2344,-2.2344,-2.2344,-2.2344,-2.2344,-2.2344,-2.2344,-2.2344,-2.2344,-2.2344,-2.2344,-2.2344,-2.2344,-2.2344,-2.2344,-2.2344,-2.2344,-2.2344,-2.2344,-2.2344,-2.2344,-2.2344,-2.2344,-2.2344,-2.2344,-2.2344,-2.2344,-2.2391,-2.2452,-2.2432,-2.2554,-2.2676,-2.2737,-2.2791,-2.3015,-2.3076,-2.3144,-2.3191,-2.3219,-2.3219,-2.3205,-2.3158,-2.3144,-2.3191,-2.3144,-2.3144,-2.3212,-2.3239,-2.3307,-2.3347,-2.332,-2.3219,-2.3219,-2.3219,-2.3198,-2.3083,-2.3015,-2.2947,-2.2873,-2.2839,-2.2873,-2.292,-2.2947,-2.2988,-2.3015,-2.2954,-2.2846,-2.2717,-2.2622,-2.2506,-2.2432,-2.2364,-2.2344,-2.2344,-2.2344,-2.2344,-2.2344,-2.2344,-2.2344,-2.2344,-2.2344,-2.2344,-2.2344,-2.2344,-2.2344,-2.2344,-2.2344,-2.2344,-2.2344,-2.2344,-2.2344,-2.2344,-2.2344,-2.2344,-2.2344,-2.2344,-2.2344,-2.2344,-2.2344,-2.2344,-2.2344,-2.2344,-2.2371,-2.2893,-2.2744,-2.2466,-2.2411,-2.2513,-2.2391,-2.2411,-2.25,-2.252,-2.2445,-2.235,-2.2344,-2.2344,-2.2344,-2.2344,-2.2344,-2.2344,-2.2344,-2.2344,-2.2344,-2.2344,-2.2344,-2.2344,-2.2344,-2.2344,-2.2344,-2.2364,-2.2371,-2.235,-2.2371,-2.2357,-2.2344,-2.2344,-2.2344,-2.2344,-2.2344,-2.2344,-2.2344,-2.2344,-2.2357,-2.2425,-2.2479,-2.2622,-2.2778,-2.2913,-2.3049,-2.3191,-2.3191,-2.3191,-2.3219,-2.3219,-2.3219,-2.3212,-2.3164,-2.3164,-2.3191,-2.3164,-2.3178,-2.3232,-2.3266,-2.3314,-2.3361,-2.3334,-2.3239,-2.3219,-2.3219,-2.3205,-2.3178,-2.3097,-2.3042,-2.3002,-2.3002,-2.3015,-2.3035,-2.3069,-2.311,-2.3137,-2.3144,-2.3029,-2.2839,-2.2696,-2.2581,-2.2439,-2.2364,-2.2344,-2.2344,-2.2344,-2.2344,-2.2344,-2.2344,-2.2344,-2.2344,-2.2344,-2.2344,-2.2344,-2.2344,-2.2344,-2.2344,-2.2344,-2.2344,-2.2344,-2.2344,-2.2344,-2.2344,-2.2344,-2.2344,-2.2344,-2.235,-2.235,-2.2344,-2.2344,-2.2344,-2.2344,-2.2344,-2.2398,-2.2974,-2.2893,-2.2595,-2.2452,-2.2418,-2.2364,-2.2371,-2.2418,-2.2425,-2.2398,-2.2344,-2.2344,-2.2344,-2.2344,-2.2344,-2.2344,-2.2344,-2.2344,-2.2344,-2.2344,-2.2344,-2.2344,-2.2344,-2.2344,-2.2344,-2.2357,-2.2411,-2.2411,-2.235,-2.2405,-2.2391,-2.2371,-2.2357,-2.2344,-2.2344,-2.2344,-2.2344,-2.2344,-2.235,-2.2378,-2.2479,-2.2527,-2.2669,-2.2913,-2.2954,-2.3083,-2.3191,-2.3212,-2.3219,-2.3219,-2.3219,-2.3219,-2.3205,-2.3158,-2.3158,-2.3198,-2.3164,-2.3198,-2.332,-2.3347,-2.3395,-2.3409,-2.3388,-2.3314,-2.3232,-2.3219,-2.3219,-2.3198,-2.3171,-2.3124,-2.3137,-2.3137,-2.3144,-2.3158,-2.3171,-2.3205,-2.3219,-2.3219,-2.3083,-2.2846,-2.2737,-2.2642,-2.2493,-2.2344,-2.2344,-2.2344,-2.2344,-2.2344,-2.2344,-2.2344,-2.2344,-2.2344,-2.2344,-2.2344,-2.2344,-2.2344,-2.2344,-2.2344,-2.2344,-2.2344,-2.2344,-2.2344,-2.2344,-2.2344,-2.2371,-2.2405,-2.2411,-2.2378,-2.2371,-2.2378,-2.2364,-2.2344,-2.2344,-2.2344,-2.2432,-2.3049,-2.2981,-2.273,-2.2534,-2.2405,-2.2357,-2.2344,-2.235,-2.2398,-2.2405,-2.2398,-2.2364,-2.2344,-2.2344,-2.2344,-2.2344,-2.2344,-2.2344,-2.2344,-2.2344,-2.2344,-2.2344,-2.2344,-2.2344,-2.2344,-2.2371,-2.2418,-2.2425,-2.2425,-2.2472,-2.2493,-2.2466,-2.2384,-2.235,-2.2344,-2.2344,-2.2344,-2.2344,-2.2398,-2.2439,-2.2547,-2.2669,-2.2757,-2.2995,-2.3049,-2.3124,-2.3198,-2.3219,-2.3219,-2.3219,-2.3219,-2.3219,-2.3185,-2.3158,-2.3144,-2.3151,-2.3164,-2.3185,-2.332,-2.3429,-2.3422,-2.3368,-2.3361,-2.33,-2.3253,-2.3219,-2.3219,-2.3219,-2.3212,-2.3219,-2.3219,-2.3205,-2.3198,-2.3191,-2.3191,-2.3219,-2.3219,-2.3205,-2.3029,-2.2832,-2.2751,-2.2676,-2.252,-2.2378,-2.2378,-2.2391,-2.2425,-2.2398,-2.2344,-2.2344,-2.2344,-2.2344,-2.2344,-2.2344,-2.2344,-2.2344,-2.2344,-2.2344,-2.2344,-2.2344,-2.2344,-2.2344,-2.2384,-2.2432,-2.2466,-2.2486,-2.2527,-2.2554,-2.2493,-2.2425,-2.2391,-2.2344,-2.2371,-2.2384,-2.2472,-2.3137,-2.2995,-2.2846,-2.269,-2.254,-2.2398,-2.2344,-2.235,-2.2459,-2.2513,-2.2486,-2.2391,-2.2344,-2.2344,-2.2344,-2.2344,-2.2344,-2.2344,-2.2344,-2.2344,-2.2344,-2.2344,-2.2344,-2.2344,-2.2344,-2.2344,-2.2398,-2.2466,-2.2506,-2.2459,-2.252,-2.2554,-2.2439,-2.2344,-2.2344,-2.2344,-2.2344,-2.2357,-2.2466,-2.2506,-2.2595,-2.2778,-2.2913,-2.3015,-2.3124,-2.3198,-2.3212,-2.3219,-2.3219,-2.3219,-2.3219,-2.3219,-2.3212,-2.3205,-2.3198,-2.3205,-2.3212,-2.3212,-2.3239,-2.3368,-2.3381,-2.3314,-2.3334,-2.328,-2.3239,-2.3219,-2.3219,-2.3219,-2.3219,-2.3219,-2.3219,-2.3219,-2.3219,-2.3219,-2.3219,-2.3219,-2.3219,-2.3212,-2.3049,-2.2893,-2.2791,-2.2696,-2.2534,-2.2418,-2.2418,-2.2445,-2.2493,-2.2459,-2.2371,-2.2344,-2.2344,-2.2344,-2.2344,-2.2344,-2.2344,-2.2344,-2.2344,-2.2344,-2.2357,-2.2371,-2.2378,-2.2378,-2.2432,-2.2513,-2.2547,-2.2554,-2.2662,-2.2771,-2.2676,-2.2574,-2.2405,-2.235,-2.2378,-2.2439,-2.2527,-2.3191,-2.3137,-2.2995,-2.2846,-2.2683,-2.2445,-2.2344,-2.235,-2.2391,-2.2411,-2.2405,-2.235,-2.2344,-2.2344,-2.2344,-2.2344,-2.2344,-2.2344,-2.2344,-2.2344,-2.2344,-2.2344,-2.2344,-2.2344,-2.2344,-2.2371,-2.2411,-2.2418,-2.2405,-2.2418,-2.2432,-2.2452,-2.2445,-2.235,-2.2344,-2.2344,-2.2344,-2.2344,-2.2398,-2.2452,-2.2567,-2.2764,-2.2927,-2.3022,-2.3158,-2.3219,-2.3219,-2.3219,-2.3219,-2.3219,-2.3219,-2.3219,-2.3219,-2.3219,-2.3219,-2.3219,-2.3219,-2.3219,-2.3259,-2.3354,-2.3422,-2.3375,-2.3341,-2.33,-2.3246,-2.3225,-2.3219,-2.3219,-2.3219,-2.3219,-2.3219,-2.3219,-2.3219,-2.3219,-2.3219,-2.3219,-2.3219,-2.3219,-2.313,-2.2981,-2.2866,-2.2642,-2.2459,-2.2452,-2.2459,-2.2445,-2.2479,-2.2445,-2.2364,-2.2344,-2.2344,-2.2344,-2.2344,-2.2344,-2.2344,-2.2364,-2.2357,-2.2344,-2.2391,-2.2445,-2.2439,-2.2439,-2.2506,-2.2601,-2.2608,-2.2622,-2.2791,-2.2907,-2.2839,-2.2723,-2.2554,-2.2459,-2.2493,-2.254,-2.2581,-2.3219,-2.3198,-2.3015,-2.2879,-2.2751,-2.252,-2.2411,-2.2405,-2.2371,-2.2364,-2.2398,-2.2371,-2.2344,-2.2344,-2.2344,-2.2344,-2.2344,-2.2344,-2.2344,-2.2344,-2.2344,-2.2344,-2.2344,-2.2344,-2.2344,-2.2371,-2.2411,-2.2439,-2.2439,-2.2459,-2.2439,-2.2398,-2.2432,-2.2432,-2.2398,-2.2344,-2.2344,-2.2378,-2.2445,-2.2574,-2.269,-2.2832,-2.3002,-2.309,-2.3171,-2.3219,-2.3219,-2.3219,-2.3219,-2.3219,-2.3219,-2.3219,-2.3219,-2.3219,-2.3219,-2.3219,-2.3219,-2.3219,-2.3253,-2.3286,-2.3341,-2.3341,-2.3368,-2.332,-2.3246,-2.3225,-2.3219,-2.3219,-2.3219,-2.3219,-2.3219,-2.3219,-2.3219,-2.3219,-2.3219,-2.3219,-2.3219,-2.3219,-2.3171,-2.3029,-2.2866,-2.2628,-2.2425,-2.2472,-2.2493,-2.2472,-2.2459,-2.2411,-2.2371,-2.235,-2.2344,-2.2344,-2.2344,-2.2344,-2.2371,-2.2418,-2.2398,-2.235,-2.2445,-2.2567,-2.2534,-2.254,-2.2615,-2.2696,-2.2764,-2.2846,-2.2974,-2.3029,-2.2947,-2.2839,-2.2696,-2.2635,-2.2635,-2.2669,-2.2717,-2.3219,-2.3178,-2.292,-2.2805,-2.2757,-2.2601,-2.254,-2.2534,-2.2411,-2.2425,-2.254,-2.2391,-2.2344,-2.2344,-2.2344,-2.2344,-2.2344,-2.2344,-2.2344,-2.2344,-2.2344,-2.2344,-2.2344,-2.2344,-2.2344,-2.2344,-2.2364,-2.2418,-2.2506,-2.2432,-2.2364,-2.2405,-2.2534,-2.2506,-2.2418,-2.2357,-2.2364,-2.2425,-2.254,-2.2676,-2.2805,-2.3008,-2.311,-2.3178,-2.3212,-2.3219,-2.3219,-2.3219,-2.3219,-2.3219,-2.3219,-2.3219,-2.3219,-2.3219,-2.3219,-2.3219,-2.3219,-2.3219,-2.3225,-2.3253,-2.3253,-2.3266,-2.3246,-2.3225,-2.3225,-2.3219,-2.3219,-2.3219,-2.3219,-2.3219,-2.3219,-2.3219,-2.3219,-2.3219,-2.3219,-2.3219,-2.3219,-2.3198,-2.3158,-2.3035,-2.2879,-2.2669,-2.2439,-2.2425,-2.2479,-2.2439,-2.2411,-2.2405,-2.2371,-2.235,-2.2344,-2.2344,-2.2344,-2.2344,-2.2378,-2.2439,-2.2459,-2.2425,-2.2628,-2.2751,-2.2703,-2.2676,-2.2771,-2.2866,-2.2961,-2.3049,-2.3117,-2.3103,-2.3049,-2.2934,-2.2866,-2.2812,-2.2812,-2.2866,-2.292,-2.3219,-2.3212,-2.313,-2.2974,-2.2771,-2.2622,-2.2554,-2.2547,-2.2506,-2.2527,-2.2547,-2.2405,-2.2344,-2.2344,-2.2344,-2.2344,-2.2344,-2.2344,-2.2344,-2.2344,-2.2344,-2.2344,-2.2344,-2.2344,-2.2344,-2.2344,-2.235,-2.2364,-2.2384,-2.2344,-2.2418,-2.2506,-2.2513,-2.2479,-2.2452,-2.2391,-2.2418,-2.2479,-2.2595,-2.2717,-2.2866,-2.3022,-2.3124,-2.3178,-2.3219,-2.3219,-2.3219,-2.3219,-2.3219,-2.3219,-2.3219,-2.3219,-2.3219,-2.3219,-2.3219,-2.3219,-2.3219,-2.3219,-2.3219,-2.3219,-2.3219,-2.3225,-2.3225,-2.3219,-2.3219,-2.3219,-2.3219,-2.3219,-2.3219,-2.3219,-2.3219,-2.3219,-2.3219,-2.3219,-2.3219,-2.3219,-2.3219,-2.3205,-2.3158,-2.3042,-2.2879,-2.269,-2.2459,-2.2391,-2.2432,-2.2384,-2.2364,-2.2384,-2.2371,-2.2357,-2.2344,-2.2344,-2.2344,-2.2344,-2.2391,-2.2445,-2.2486,-2.254,-2.2737,-2.2873,-2.2818,-2.2825,-2.2934,-2.3029,-2.3117,-2.3158,-2.3191,-2.3178,-2.3171,-2.3171,-2.311,-2.3042,-2.2995,-2.3035,-2.3069,-2.3219,-2.3212,-2.3158,-2.2968,-2.2723,-2.2723,-2.271,-2.2642,-2.2581,-2.2554,-2.2534,-2.2405,-2.2344,-2.2344,-2.2344,-2.2344,-2.2344,-2.2344,-2.2344,-2.2344,-2.2344,-2.2344,-2.2344,-2.2344,-2.2344,-2.2344,-2.2344,-2.2344,-2.235,-2.2405,-2.2472,-2.2439,-2.2398,-2.2439,-2.2425,-2.2384,-2.2425,-2.25,-2.2588,-2.2676,-2.2798,-2.2954,-2.3063,-2.3124,-2.3171,-2.3205,-2.3205,-2.3205,-2.3212,-2.3219,-2.3219,-2.3219,-2.3219,-2.3219,-2.3219,-2.3219,-2.3219,-2.3219,-2.3219,-2.3219,-2.3219,-2.3239,-2.3266,-2.3273,-2.3239,-2.3219,-2.3219,-2.3219,-2.3219,-2.3219,-2.3219,-2.3219,-2.3219,-2.3219,-2.3219,-2.3219,-2.3219,-2.3219,-2.3137,-2.3029,-2.2866,-2.2683,-2.254,-2.2459,-2.2452,-2.252,-2.2513,-2.2459,-2.2432,-2.2378,-2.2357,-2.2344,-2.2344,-2.2344,-2.2398,-2.2459,-2.2513,-2.2608,-2.2805,-2.2907,-2.2893,-2.2988,-2.3103,-2.3191,-2.3266,-2.3314,-2.3368,-2.3334,-2.332,-2.3334,-2.3354,-2.3307,-2.3225,-2.3151,-2.3185,-2.3219,-2.3205,-2.3069,-2.2859,-2.2635,-2.2852,-2.2866,-2.2744,-2.2595,-2.2567,-2.2547,-2.2411,-2.2344,-2.2344,-2.2344,-2.2344,-2.2344,-2.2344,-2.2344,-2.2344,-2.2344,-2.2344,-2.2344,-2.2344,-2.2344,-2.2344,-2.2344,-2.2344,-2.2371,-2.2411,-2.2411,-2.235,-2.2439,-2.2459,-2.2371,-2.2357,-2.2398,-2.2466,-2.2513,-2.2567,-2.2676,-2.2832,-2.2995,-2.3008,-2.3083,-2.3158,-2.3164,-2.3178,-2.3191,-2.3198,-2.3198,-2.3185,-2.3219,-2.3219,-2.3219,-2.3219,-2.3219,-2.3219,-2.3219,-2.3219,-2.3219,-2.3266,-2.3341,-2.3334,-2.3293,-2.328,-2.3293,-2.3253,-2.3246,-2.3246,-2.3239,-2.3273,-2.3293,-2.3246,-2.3219,-2.3219,-2.3219,-2.3171,-2.3063,-2.294,-2.2784,-2.2622,-2.2574,-2.2493,-2.254,-2.2656,-2.2676,-2.2588,-2.25,-2.2432,-2.2378,-2.235,-2.2344,-2.235,-2.2398,-2.2459,-2.254,-2.2676,-2.2866,-2.2954,-2.2961,-2.3103,-2.328,-2.3341,-2.3395,-2.351,-2.3565,-2.3517,-2.3497,-2.3551,-2.3565,-2.3571,-2.349,-2.3354,-2.3253,-2.3219,-2.3205,-2.3069,-2.29,-2.2744,-2.2805,-2.269,-2.2459,-2.2534,-2.2615,-2.2662,-2.2472,-2.2344,-2.2344,-2.2344,-2.2344,-2.2344,-2.2344,-2.2344,-2.2344,-2.2344,-2.2344,-2.2344,-2.2344,-2.2344,-2.2344,-2.2344,-2.2344,-2.2371,-2.2391,-2.2391,-2.235,-2.2405,-2.2378,-2.235,-2.2344,-2.2371,-2.2418,-2.2425,-2.252,-2.2669,-2.2737,-2.2839,-2.2846,-2.29,-2.292,-2.292,-2.292,-2.2974,-2.3029,-2.3056,-2.3117,-2.3212,-2.3219,-2.3219,-2.3219,-2.3219,-2.3219,-2.3219,-2.3219,-2.3219,-2.3225,-2.328,-2.3334,-2.3361,-2.3381,-2.3368,-2.3307,-2.3266,-2.3266,-2.3273,-2.3314,-2.3334,-2.3273,-2.3232,-2.3232,-2.3232,-2.3117,-2.3002,-2.2859,-2.2703,-2.2642,-2.2601,-2.2608,-2.2642,-2.2696,-2.2737,-2.2696,-2.2595,-2.2513,-2.2411,-2.2378,-2.2344,-2.2357,-2.2398,-2.2472,-2.2554,-2.2703,-2.2886,-2.2968,-2.3022,-2.3232,-2.3429,-2.3463,-2.3524,-2.3646,-2.3707,-2.366,-2.366,-2.3734,-2.3741,-2.3727,-2.368,-2.3571,-2.3415,-2.3219,-2.3205,-2.3069,-2.2927,-2.2798,-2.2778,-2.2683,-2.2561,-2.2554,-2.2601,-2.2642,-2.2459,-2.2344,-2.2344,-2.2344,-2.2344,-2.2344,-2.2344,-2.2344,-2.2344,-2.2344,-2.2344,-2.2344,-2.2344,-2.2344,-2.2344,-2.2344,-2.235,-2.2391,-2.2364,-2.235,-2.2344,-2.2344,-2.2344,-2.2344,-2.2344,-2.2344,-2.2344,-2.2344,-2.2445,-2.2615,-2.2642,-2.2676,-2.2683,-2.273,-2.2751,-2.2812,-2.2832,-2.2934,-2.3022,-2.3076,-2.3137,-2.3212,-2.3219,-2.3219,-2.3219,-2.3219,-2.3219,-2.3219,-2.3219,-2.3219,-2.3225,-2.3307,-2.3395,-2.3409,-2.3422,-2.3422,-2.3368,-2.3266,-2.3253,-2.3239,-2.3273,-2.3273,-2.3232,-2.33,-2.3347,-2.3307,-2.3225,-2.309,-2.2947,-2.2859,-2.2846,-2.2818,-2.2818,-2.2866,-2.294,-2.2954,-2.2812,-2.2703,-2.2561,-2.2472,-2.2391,-2.2357,-2.2344,-2.2364,-2.2459,-2.2581,-2.2737,-2.2886,-2.3022,-2.3124,-2.3381,-2.3565,-2.3578,-2.3653,-2.3802,-2.3829,-2.3802,-2.3849,-2.3924,-2.391,-2.3877,-2.3822,-2.3761,-2.3605,-2.3158,-2.3144,-2.3029,-2.2893,-2.2764,-2.2751,-2.2723,-2.2683,-2.2581,-2.252,-2.2513,-2.2398,-2.2344,-2.2344,-2.2344,-2.2344,-2.2344,-2.2344,-2.2344,-2.2344,-2.2344,-2.2344,-2.2344,-2.2344,-2.2344,-2.2344,-2.2344,-2.2405,-2.2466,-2.2398,-2.2344,-2.2344,-2.2344,-2.2344,-2.2344,-2.2344,-2.2344,-2.2344,-2.2344,-2.2344,-2.2405,-2.2452,-2.2506,-2.2574,-2.2642,-2.2717,-2.2764,-2.2818,-2.2907,-2.3042,-2.3103,-2.3185,-2.3212,-2.3219,-2.3219,-2.3219,-2.3219,-2.3219,-2.3219,-2.3219,-2.3219,-2.3253,-2.3375,-2.3442,-2.3442,-2.3442,-2.3442,-2.3402,-2.3307,-2.3246,-2.3239,-2.328,-2.328,-2.3239,-2.3334,-2.3409,-2.3347,-2.3273,-2.3137,-2.3002,-2.2981,-2.2974,-2.2995,-2.3002,-2.3056,-2.3144,-2.3097,-2.2954,-2.2798,-2.2622,-2.2486,-2.2411,-2.235,-2.2344,-2.2344,-2.2493,-2.2642,-2.2662,-2.2805,-2.3015,-2.3219,-2.3402,-2.3558,-2.3673,-2.3768,-2.3883,-2.3965,-2.3965,-2.4033,-2.4066,-2.4039,-2.3992,-2.3965,-2.3897,-2.3782,-2.2866,-2.2866,-2.2839,-2.2737,-2.2615,-2.2595,-2.2534,-2.2432,-2.2411,-2.2378,-2.2384,-2.2371,-2.2344,-2.2344,-2.2344,-2.2344,-2.2344,-2.2344,-2.2344,-2.2344,-2.2344,-2.2344,-2.2344,-2.2344,-2.2344,-2.235,-2.2357,-2.2364,-2.2452,-2.2391,-2.2344,-2.2344,-2.2344,-2.2344,-2.2344,-2.2344,-2.2344,-2.2344,-2.2344,-2.2344,-2.2344,-2.2371,-2.2371,-2.2398,-2.2405,-2.2425,-2.2432,-2.2452,-2.2608,-2.2818,-2.3069,-2.3185,-2.3219,-2.3219,-2.3219,-2.3219,-2.3219,-2.3219,-2.3219,-2.3219,-2.3219,-2.3232,-2.3341,-2.3429,-2.3429,-2.3429,-2.3429,-2.3442,-2.3361,-2.3293,-2.33,-2.3442,-2.347,-2.3307,-2.33,-2.3307,-2.328,-2.3185,-2.3076,-2.2995,-2.2954,-2.2981,-2.3029,-2.3049,-2.3083,-2.313,-2.3097,-2.2954,-2.2805,-2.2656,-2.25,-2.2425,-2.2344,-2.2344,-2.235,-2.2581,-2.2717,-2.2696,-2.2757,-2.3015,-2.3219,-2.3354,-2.3503,-2.3653,-2.3795,-2.3924,-2.3999,-2.4066,-2.408,-2.41,-2.4107,-2.4094,-2.4073,-2.4026,-2.3904]}]]